Ship Status Report: callsign 000000

sailwx.info

Track history (hours):
 
Tides and Currents Weather Stations Pressure Air Temp Water Temp Dewpoint Dewpoint Depression Visibility Wind Speed Wind Dir Waves Ship Positions

Callsign 000000 (name unknown)

Last reported at 2016-Jul-28 23:34 UTC. Time now 2016-Jul-29 00:15 UTC.
Position N 24°25' E 118°05'.

Type: Fishing. MMSI: 200007452.

Date/timePositionNaut miles runAvg speedWind from/ knotsBaromVisibWave heightAir tempDewpointWater temp
2016-Jul-28 23:34N 24°25' E 118°05'46676315.0
2016-Jul-28 23:33N 31°43' E 121°09'309746.3
2016-Jul-28 23:33N 31°24' E 121°36'4238.9
2016-Jul-28 23:32N 31°25' E 121°31'123.8
2016-Jul-28 23:28N 31°25' E 121°32'66232223.1
2016-Jul-28 23:27N 22°56' E 113°36'527.8
2016-Jul-28 23:16N 22°51' E 113°35'265368.9
2016-Jul-28 22:33N 24°25' E 118°05'45820107.9
2016-Jul-28 22:31N 31°24' E 121°36'663113736.7
2016-Jul-28 22:31N 22°56' E 113°36'10949.1
2016-Jul-28 22:30N 22°46' E 113°38'66924813.8
2016-Jul-28 22:29N 31°25' E 121°32'51200.7
2016-Jul-28 22:28N 31°20' E 121°33'338.0
2016-Jul-28 22:24N 31°22' E 121°36'741478.7
2016-Jul-28 22:21N 31°59' E 120°21'502992.6
2016-Jul-28 22:20N 31°39' E 121°15'465596.1
2016-Jul-28 21:33N 24°25' E 118°05'45826172.2
2016-Jul-28 21:32N 31°24' E 121°36'19318.6
2016-Jul-28 21:29N 31°35' E 121°18'583849.1
2016-Jul-28 21:28N 31°56' E 120°15'644331214.7
2016-Jul-28 21:28N 23°01' E 113°31'6522999.3
2016-Jul-28 21:15N 31°15' E 121°30'496722.2
2016-Jul-28 20:33N 23°44' E 117°37'50695956.3
2016-Jul-28 20:33N 31°24' E 121°36'45865953.9
2016-Jul-28 20:33N 24°25' E 118°05'2621378.9
2016-Jul-28 20:21N 22°56' E 113°36'663833.4
2016-Jul-28 19:33N 31°24' E 121°36'6771218286.6
2016-Jul-28 19:33N 22°28' E 113°52'26058518.7
2016-Jul-28 19:33N 24°25' E 118°05'392235494.6
2016-Jul-28 19:33N 30°04' E 121°48'61424303.3
2016-Jul-28 19:32N 22°56' E 113°36'6649303.3
2016-Jul-28 19:27N 31°22' E 121°39'901353.5
2016-Jul-28 19:23N 31°58' E 120°02'40553.2
2016-Jul-28 19:19N 31°58' E 120°49'66223816.6
2016-Jul-28 19:17N 23°04' E 113°29'10331398.4
2016-Jul-28 18:33N 38°51' E 121°32'447134077.3
2016-Jul-28 18:33N 31°24' E 121°36'458183207.5
2016-Jul-28 18:33N 24°25' E 118°05'2651042.0
2016-Jul-28 18:17N 23°04' E 113°29'64010142.3
2016-Jul-28 18:13N 31°57' E 120°07'420629.9
2016-Jul-28 17:33N 38°51' E 121°34'42084005.6
2016-Jul-28 17:33N 31°57' E 120°11'465167311.4
2016-Jul-28 17:33N 24°25' E 118°05'456328645.8
2016-Jul-28 17:33N 31°22' E 121°35'676187116.0
2016-Jul-28 17:33N 22°28' E 113°52'321107.9
2016-Jul-28 17:31N 22°53' E 113°31'66870750.4
2016-Jul-28 17:30N 31°41' E 121°13'151389.2
2016-Jul-28 17:30N 31°29' E 121°25'661148806.0
2016-Jul-28 17:30N 22°56' E 113°36'102307.1
2016-Jul-28 17:29N 23°04' E 113°29'10341113.3
2016-Jul-28 16:34N 38°51' E 121°34'884795418.6
2016-Jul-28 16:33N 24°25' E 118°05'456136943.9
2016-Jul-28 16:33N 31°22' E 121°35'866692.9
2016-Jul-28 16:32N 29°59' E 121°54'615122943.0
2016-Jul-28 16:32N 22°56' E 113°36'6618917.2
2016-Jul-28 16:28N 31°29' E 121°25'66014660.1
2016-Jul-28 16:25N 23°02' E 113°31'64612435.4
2016-Jul-28 16:22N 31°58' E 120°17'151187.5
2016-Jul-28 15:34N 29°56' E 122°02'392176354.1
2016-Jul-28 15:33N 24°25' E 118°05'456149388.0
2016-Jul-28 15:33N 31°22' E 121°35'449323068.2
2016-Jul-28 15:33N 38°51' E 121°33'1043125166.2
2016-Jul-28 15:33N 22°54' E 113°31'11127.7
2016-Jul-28 15:28N 23°03' E 113°25'61976821.9
2016-Jul-28 15:27N 29°49' E 122°06'1639803.3
2016-Jul-28 15:26N 31°57' E 120°08'6439813.1
2016-Jul-28 15:22N 22°56' E 113°36'2552060.1
2016-Jul-28 15:15N 24°10' E 118°02'47214766.2
2016-Jul-28 15:13N 31°22' E 121°36'12864.6
2016-Jul-28 15:12N 31°29' E 121°25'459715.5
2016-Jul-28 14:34N 24°25' E 118°05'26247226.4
2016-Jul-28 14:33N 22°56' E 113°36'663477704.1
2016-Jul-28 14:33N 31°23' E 121°36'953746.5
2016-Jul-28 14:32N 29°53' E 122°09'10413804.0
2016-Jul-28 14:31N 31°29' E 121°25'67624566.1
2016-Jul-28 14:29N 22°27' E 113°52'43785.8
2016-Jul-28 14:26N 23°04' E 113°29'2659721.1
2016-Jul-28 14:25N 24°14' E 118°08'46640905.7
2016-Jul-28 14:24N 31°22' E 121°36'66753324.9
2016-Jul-28 14:23N 22°54' E 113°31'6635849.1
2016-Jul-28 14:16N 32°04' E 120°28'410570.3
2016-Jul-28 13:33N 38°51' E 121°33'448134276.5
2016-Jul-28 13:33N 31°23' E 121°36'45891553.2
2016-Jul-28 13:33N 24°25' E 118°05'25946566.8
2016-Jul-28 13:32N 22°28' E 113°54'33434.7
2016-Jul-28 13:28N 22°56' E 113°36'10384.7
2016-Jul-28 13:26N 23°04' E 113°29'65916835.6
2016-Jul-28 13:24N 31°47' E 121°02'66747069.7
2016-Jul-28 13:23N 22°54' E 113°31'61745325.7
2016-Jul-28 13:22N 29°46' E 122°04'384472.9
2016-Jul-28 12:33N 24°25' E 118°05'458274646.6
2016-Jul-28 12:33N 31°23' E 121°36'2719148.2
2016-Jul-28 12:33N 31°41' E 121°13'111892.0
2016-Jul-28 12:33N 31°47' E 121°02'2610494.1
2016-Jul-28 12:33N 31°29' E 121°25'66166139.9
2016-Jul-28 12:32N 22°56' E 113°36'10208.3
2016-Jul-28 12:29N 23°04' E 113°29'111618.0
2016-Jul-28 12:29N 22°54' E 113°31'33649.5
2016-Jul-28 12:26N 22°28' E 113°54'67420929.3
2016-Jul-28 12:24N 31°22' E 121°36'456542.7
2016-Jul-28 11:33N 24°25' E 118°05'458549319.1
2016-Jul-28 11:33N 31°23' E 121°36'66385304.9
2016-Jul-28 11:33N 22°56' E 113°36'66515748.0
2016-Jul-28 11:30N 31°58' E 120°49'66236087.7
2016-Jul-28 11:29N 23°04' E 113°29'66219858.9
2016-Jul-28 11:27N 32°01' E 120°46'68020577.1
2016-Jul-28 11:25N 22°28' E 113°54'67723203.5
2016-Jul-28 11:24N 31°41' E 121°13'339.2
2016-Jul-28 11:20N 31°42' E 121°10'66713490.9
2016-Jul-28 11:17N 22°54' E 113°31'66634736.4
2016-Jul-28 11:16N 31°29' E 121°24'266229.7
2016-Jul-28 11:15N 31°47' E 121°02'541793.4
2016-Jul-28 11:14N 31°59' E 120°00'131.8
2016-Jul-28 11:12N 31°59' E 120°01'1701227.2
2016-Jul-28 11:04N 29°45' E 122°03'1609928.0
2016-Jul-28 11:03N 31°59' E 120°22'73146.7
2016-Jul-28 10:33N 31°23' E 121°36'458549293.2
2016-Jul-28 10:33N 24°25' E 118°05'46634918.2
2016-Jul-28 10:32N 31°41' E 121°13'3144.1
2016-Jul-28 10:31N 31°39' E 121°15'67665810.4
2016-Jul-28 10:31N 22°28' E 113°54'65834321.0
2016-Jul-28 10:30N 31°58' E 120°02'638109352.3
2016-Jul-28 10:29N 23°04' E 113°29'65974105.8
2016-Jul-28 10:29N 31°29' E 121°25'12422.9
2016-Jul-28 10:27N 31°22' E 121°36'6629534.0
2016-Jul-28 10:23N 22°56' E 113°36'64225124.3
2016-Jul-28 10:21N 31°58' E 120°04'86769.1
2016-Jul-28 10:15N 31°22' E 121°36'781301.4
2016-Jul-28 10:11N 31°56' E 120°14'464739.5
2016-Jul-28 09:33N 24°25' E 118°05'458549293.2
2016-Jul-28 09:33N 31°23' E 121°36'663477679.2
2016-Jul-28 09:33N 22°56' E 113°36'62093056.7
2016-Jul-28 09:33N 29°55' E 122°07'1792586442.5
2016-Jul-28 09:33N 00°04' E 121°18'141335332.7
2016-Jul-28 09:30N 22°28' E 113°54'43650.6
2016-Jul-28 09:26N 23°04' E 113°29'6593260.0
2016-Jul-28 09:14N 31°33' E 121°21'699137.5
2016-Jul-28 09:14N 31°58' E 120°05'454.5
2016-Jul-28 09:10N 31°57' E 120°10'464772.6
2016-Jul-28 08:33N 24°25' E 118°05'147469823.0
2016-Jul-28 08:32N 00°03' E 121°18'19159777.9
2016-Jul-28 08:20N 31°57' E 120°08'70253492.3
2016-Jul-28 08:20N 31°31' E 121°25'994553.6
2016-Jul-28 08:19N 29°57' E 121°59'61614134.4
2016-Jul-28 08:17N 22°56' E 113°36'6615153.5
2016-Jul-28 08:09N 31°29' E 121°25'9334.9
2016-Jul-28 08:07N 31°21' E 121°30'454802.8
2016-Jul-28 07:33N 24°25' E 118°05'4589581.1
2016-Jul-28 07:30N 31°23' E 121°36'111331.2
2016-Jul-28 07:30N 31°29' E 121°25'1886484905.1
2016-Jul-28 07:30N 00°03' E 121°18'1446192738.5
2016-Jul-28 07:29N 22°56' E 113°36'64419825.0
2016-Jul-28 07:27N 31°57' E 120°11'6614704.7
2016-Jul-28 07:19N 22°28' E 113°52'67686939.4
2016-Jul-28 07:18N 31°27' E 121°29'66034922.2
2016-Jul-28 07:17N 23°04' E 113°29'66074204.4
2016-Jul-28 07:17N 32°01' E 120°42'476659.0
2016-Jul-28 06:33N 24°25' E 118°05'4581647937.8
2016-Jul-28 06:33N 31°23' E 121°36'5751519.8
2016-Jul-28 06:33N 32°01' E 120°46'68084430.8
2016-Jul-28 06:33N 22°28' E 113°54'1413110594.6
2016-Jul-28 06:32N 00°03' E 121°18'1914104401.2
2016-Jul-28 06:31N 31°56' E 120°14'7318860.0
2016-Jul-28 06:31N 31°25' E 121°32'424254323.1
2016-Jul-28 06:31N 24°45' E 118°54'42237064.9
2016-Jul-28 06:30N 31°22' E 121°36'66216438.1
2016-Jul-28 06:28N 22°56' E 113°36'66118314.8
2016-Jul-28 06:25N 31°29' E 121°25'4264447.6
2016-Jul-28 06:20N 24°44' E 118°56'31776073.5
2016-Jul-28 06:19N 22°54' E 113°31'11303.5
2016-Jul-28 06:17N 23°04' E 113°29'265364.2
2016-Jul-28 05:34N 24°25' E 118°05'458329583.7
2016-Jul-28 05:33N 31°23' E 121°36'41975390.9
2016-Jul-28 05:33N 24°48' E 118°58'41648329.8
2016-Jul-28 05:33N 31°22' E 121°30'1879132638.2
2016-Jul-28 05:32N 00°03' E 121°18'1492488240.9
2016-Jul-28 05:32N 24°49' E 118°57'43448871.8
2016-Jul-28 05:31N 31°57' E 120°17'6448111.5
2016-Jul-28 05:26N 23°04' E 113°29'65926947.5
2016-Jul-28 05:25N 31°29' E 121°25'111991.6
2016-Jul-28 05:24N 31°20' E 121°33'67252554.7
2016-Jul-28 05:24N 22°28' E 113°54'33460.6
2016-Jul-28 05:19N 22°54' E 113°31'66992660.8
2016-Jul-28 05:19N 31°58' E 120°49'476629.2
2016-Jul-28 04:34N 24°25' E 118°05'58209945.4
2016-Jul-28 04:34N 24°53' E 119°02'41453200.0
2016-Jul-28 04:33N 31°23' E 121°36'415124561.6
2016-Jul-28 04:33N 24°53' E 118°57'31628458.3
2016-Jul-28 04:32N 22°56' E 113°36'1446106204.7
2016-Jul-28 04:31N 00°03' E 121°18'14451040212.0
2016-Jul-28 04:31N 22°54' E 113°31'65531870.3
2016-Jul-28 04:30N 31°59' E 120°20'63961.9
2016-Jul-28 04:26N 31°29' E 121°25'15650.3
2016-Jul-28 04:25N 31°15' E 121°31'66625525.3
2016-Jul-28 04:23N 22°28' E 113°54'681817036.5
2016-Jul-28 04:23N 32°01' E 120°48'3158.5
2016-Jul-28 04:22N 31°58' E 120°49'6622406.3
2016-Jul-28 04:06N 23°04' E 113°29'6611229.3
2016-Jul-28 03:33N 31°23' E 121°36'45878466.7
2016-Jul-28 03:33N 24°25' E 118°05'5539344.2
2016-Jul-28 03:33N 24°53' E 118°57'32322389.4
2016-Jul-28 03:32N 23°02' E 113°24'1455104757.1
2016-Jul-28 03:31N 00°03' E 121°18'188176932.5
2016-Jul-28 03:30N 31°24' E 121°33'7063359.4
2016-Jul-28 03:30N 32°01' E 120°23'66941539.8
2016-Jul-28 03:29N 22°28' E 113°54'33263.8
2016-Jul-28 03:21N 22°56' E 113°36'66211514.5
2016-Jul-28 03:18N 31°22' E 121°36'6675205.3
2016-Jul-28 03:10N 22°54' E 113°31'6668500.1
2016-Jul-28 03:05N 31°29' E 121°25'459864.5
2016-Jul-28 02:33N 24°25' E 118°05'5532719.5
2016-Jul-28 02:33N 24°53' E 118°57'41523725.9
2016-Jul-28 02:32N 31°23' E 121°36'118244.0
2016-Jul-28 02:32N 31°29' E 121°25'12728.6
2016-Jul-28 02:31N 31°22' E 121°36'667299952.7
2016-Jul-28 02:31N 22°54' E 113°31'144526809.5
2016-Jul-28 02:28N 00°03' E 121°18'145568007.0
2016-Jul-28 02:27N 23°02' E 113°24'44560.8
2016-Jul-28 02:22N 22°28' E 113°54'332631.7
2016-Jul-28 02:21N 22°56' E 113°36'531.3
2016-Jul-28 02:12N 22°53' E 113°32'6681055.9
2016-Jul-28 01:34N 31°23' E 121°36'415186841.1
2016-Jul-28 01:33N 24°53' E 118°57'31636705.1
2016-Jul-28 01:33N 22°56' E 113°36'659158115.8
2016-Jul-28 01:33N 31°21' E 121°31'6638467.5
2016-Jul-28 01:28N 22°54' E 113°31'334294.5
2016-Jul-28 01:27N 22°28' E 113°54'44685.0
2016-Jul-28 01:24N 23°02' E 113°24'6648956.4
2016-Jul-28 01:19N 31°22' E 121°36'456599.1
2016-Jul-28 00:33N 24°25' E 118°05'45882391.0
2016-Jul-28 00:33N 31°23' E 121°36'676202670.8
2016-Jul-28 00:33N 22°28' E 113°54'31226720.3
2016-Jul-28 00:32N 24°47' E 118°58'442397752.4
2016-Jul-28 00:32N 31°58' E 120°49'66513447.5
2016-Jul-28 00:29N 22°56' E 113°36'5211.7
2016-Jul-28 00:28N 22°54' E 113°31'1047.1
2016-Jul-28 00:15N 23°02' E 113°24'6674069.9
2016-Jul-28 00:05N 31°58' E 120°52'5198.4
2016-Jul-27 23:33N 31°23' E 121°36'45891543.4
2016-Jul-27 23:33N 24°25' E 118°05'25822155.1
2016-Jul-27 23:32N 22°28' E 113°54'331260.1
2016-Jul-27 23:31N 22°56' E 113°36'6621809.3
2016-Jul-27 23:09N 31°47' E 121°02'6677895.8
2016-Jul-27 23:04N 22°54' E 113°31'5 9.6
2016-Jul-27 22:34N 22°56' E 113°36'26231484.1
2016-Jul-27 22:33N 24°25' E 118°05'2597217.7
2016-Jul-27 22:31N 22°28' E 113°54'677609148.4
2016-Jul-27 22:31N 31°46' E 121°05'1103977.2
2016-Jul-27 22:29N 30°04' E 121°56'814287.8
2016-Jul-27 22:28N 31°23' E 121°36'80243.0
2016-Jul-27 22:08N 31°56' E 120°11'465780.1
2016-Jul-27 21:33N 24°25' E 118°05'262472260.9
2016-Jul-27 21:33N 22°56' E 113°36'620743931.6
2016-Jul-27 21:32N 29°59' E 122°02'872738.3
2016-Jul-27 21:31N 31°23' E 121°36'676162153.1
2016-Jul-27 21:30N 22°28' E 113°54'6619019.6
2016-Jul-27 21:26N 31°57' E 120°14'51314.5
2016-Jul-27 21:16N 31°41' E 121°11'66525181.1
2016-Jul-27 21:15N 23°02' E 113°24'844.9
2016-Jul-27 21:03N 22°54' E 113°28'6261250.6
2016-Jul-27 20:33N 29°58' E 122°03'394128986.9
2016-Jul-27 20:33N 24°25' E 118°05'458149798.3
2016-Jul-27 20:33N 31°23' E 121°36'663341188.0
2016-Jul-27 20:33N 22°56' E 113°36'663159138.5
2016-Jul-27 20:33N 31°40' E 121°13'1897853466.6
2016-Jul-27 20:32N 00°03' E 121°18'1915149895.6
2016-Jul-27 20:32N 31°58' E 120°18'752128.7
2016-Jul-27 20:30N 31°14' E 121°29'16362.9
2016-Jul-27 20:27N 31°29' E 121°25'66399509.9
2016-Jul-27 20:27N 23°02' E 113°24'6642603.6
2016-Jul-27 20:11N 31°39' E 121°13'109173.3
2016-Jul-27 19:33N 29°58' E 122°03'8527684.3
2016-Jul-27 19:33N 31°20' E 121°40'456328447.1
2016-Jul-27 19:33N 24°25' E 118°05'147484232.1
2016-Jul-27 19:32N 00°03' E 121°18'1446306119.6
2016-Jul-27 19:32N 22°56' E 113°36'66399461.5
2016-Jul-27 19:31N 31°40' E 121°13'6658252.4
2016-Jul-27 19:27N 23°02' E 113°24'659182504.6
2016-Jul-27 19:26N 31°16' E 121°34'286372.9
2016-Jul-27 19:26N 31°39' E 121°13'10713327.1
2016-Jul-27 19:26N 29°58' E 121°58'951542.6
2016-Jul-27 19:22N 31°29' E 121°25'42146.1
2016-Jul-27 19:05N 31°58' E 120°49'476920.0
2016-Jul-27 18:34N 24°25' E 118°05'39428377.1
2016-Jul-27 18:33N 29°58' E 122°03'8513379.5
2016-Jul-27 18:32N 31°20' E 121°33'899200.4
2016-Jul-27 18:32N 29°55' E 122°08'1792921788.8
2016-Jul-27 18:32N 00°03' E 121°18'1897568981.9
2016-Jul-27 18:32N 31°40' E 121°13'66324357.9
2016-Jul-27 18:30N 22°56' E 113°36'6625285.8
2016-Jul-27 18:22N 31°39' E 121°13'471191.3
2016-Jul-27 18:20N 32°03' E 120°25'61946.9
2016-Jul-27 18:16N 31°29' E 121°25'168048.0
2016-Jul-27 18:16N 31°20' E 121°40'793947.4
2016-Jul-27 18:15N 31°57' E 120°18'649212417.2
2016-Jul-27 18:15N 23°02' E 113°24'270392.5
2016-Jul-27 17:33N 24°25' E 118°05'262188902.8
2016-Jul-27 17:33N 22°56' E 113°36'65927256.4
2016-Jul-27 17:32N 31°22' E 121°30'237617.8
2016-Jul-27 17:32N 31°40' E 121°13'1897853474.4
2016-Jul-27 17:31N 00°03' E 121°18'1783641862.0
2016-Jul-27 17:31N 29°46' E 122°04'963990.0
2016-Jul-27 17:30N 31°20' E 121°40'66512473.3
2016-Jul-27 17:27N 23°02' E 113°24'66117881.6
2016-Jul-27 17:24N 32°04' E 120°29'59363.7
2016-Jul-27 17:15N 31°29' E 121°25'14507.6
2016-Jul-27 17:13N 31°39' E 121°13'2131.6
2016-Jul-27 16:34N 31°25' E 121°31'457182871.8
2016-Jul-27 16:33N 24°25' E 118°05'382229409.0
2016-Jul-27 16:33N 29°41' E 122°07'1265760.6
2016-Jul-27 16:32N 31°39' E 121°13'66246743.4
2016-Jul-27 16:31N 22°56' E 113°36'1446650502.2
2016-Jul-27 16:31N 00°03' E 121°18'189651307.0
2016-Jul-27 16:29N 31°39' E 121°13'66417970.5
2016-Jul-27 16:27N 23°02' E 113°24'66316026.6
2016-Jul-27 16:24N 31°29' E 121°25'422107.4
2016-Jul-27 16:23N 31°58' E 120°49'6769503.3
2016-Jul-27 16:19N 22°45' E 113°33'67416395.8
2016-Jul-27 16:16N 31°47' E 121°03'469657.9
2016-Jul-27 15:33N 24°25' E 118°05'459110168.2
2016-Jul-27 15:33N 31°29' E 121°24'11313618.2
2016-Jul-27 15:33N 29°41' E 122°05'1265664.5
2016-Jul-27 15:31N 31°39' E 121°13'1896151640.8
2016-Jul-27 15:31N 00°03' E 121°18'188659033.0
2016-Jul-27 15:29N 31°29' E 121°25'66118176.1
2016-Jul-27 15:27N 22°56' E 113°36'12251.3
2016-Jul-27 15:24N 23°02' E 113°24'66264406.6
2016-Jul-27 15:23N 32°00' E 120°39'662880.7
2016-Jul-27 15:22N 31°20' E 121°40'731760.7
2016-Jul-27 15:19N 31°58' E 120°26'20502.6
2016-Jul-27 15:17N 31°58' E 120°49'54279.4
2016-Jul-27 15:05N 31°22' E 121°36'1834.8
2016-Jul-27 14:33N 31°34' E 121°19'18901134070.5
2016-Jul-27 14:33N 00°03' E 121°18'1474663329.7
2016-Jul-27 14:33N 24°25' E 118°05'457234849.1
2016-Jul-27 14:33N 31°22' E 121°38'10374159.8
2016-Jul-27 14:33N 29°41' E 122°05'611199875.7
2016-Jul-27 14:33N 22°56' E 113°36'66152895.3
2016-Jul-27 14:32N 31°33' E 121°19'413246.3
2016-Jul-27 14:31N 32°01' E 120°44'33947.1
2016-Jul-27 14:29N 31°39' E 121°13'464498.3
2016-Jul-27 13:33N 24°25' E 118°05'46479531.7
2016-Jul-27 13:33N 31°38' E 121°14'18956821177.8
2016-Jul-27 13:33N 00°03' E 121°18'1883147352.6
2016-Jul-27 13:32N 31°26' E 121°29'31482.3
2016-Jul-27 13:28N 31°47' E 121°03'12145.9
2016-Jul-27 13:24N 31°39' E 121°13'1211178.8
2016-Jul-27 13:17N 29°46' E 122°04'61613369.4
2016-Jul-27 13:15N 23°02' E 113°24'66320766.2
2016-Jul-27 13:13N 31°29' E 121°25'3 5.2
2016-Jul-27 12:33N 31°31' E 121°21'161293.2
2016-Jul-27 12:33N 31°42' E 121°08'18993417921.9
2016-Jul-27 12:33N 00°03' E 121°18'1895426481.4
2016-Jul-27 12:32N 31°39' E 121°13'464417774.5
2016-Jul-27 12:32N 24°25' E 118°05'45920661.8
2016-Jul-27 12:31N 31°29' E 121°25'1031860.3
2016-Jul-27 12:28N 29°53' E 122°09'62015726.0
2016-Jul-27 12:25N 22°56' E 113°36'617714.5
2016-Jul-27 11:33N 29°56' E 122°00'39164020.3
2016-Jul-27 11:33N 24°25' E 118°05'463416526.2
2016-Jul-27 11:33N 31°36' E 121°16'662397205.1
2016-Jul-27 11:33N 22°56' E 113°36'66358229.5
2016-Jul-27 11:32N 31°40' E 121°13'189744625.0
2016-Jul-27 11:30N 00°04' E 121°18'145428929.2
2016-Jul-27 11:27N 23°02' E 113°24'66319258.9
2016-Jul-27 11:25N 31°29' E 121°25'25190.9
2016-Jul-27 11:17N 31°46' E 121°03'3 3.8
2016-Jul-27 10:33N 31°47' E 120°59'122782.9
2016-Jul-27 10:33N 31°40' E 121°12'3946.3
2016-Jul-27 10:33N 31°38' E 121°14'131363.6
2016-Jul-27 10:32N 31°29' E 121°25'459206629.5
2016-Jul-27 10:32N 24°25' E 118°05'465279174.0
2016-Jul-27 10:32N 31°40' E 121°13'66345045.2
2016-Jul-27 10:31N 22°56' E 113°36'144554205.1
2016-Jul-27 10:29N 00°04' E 121°18'145432726.2
2016-Jul-27 10:27N 23°02' E 113°24'6238565.8
2016-Jul-27 10:22N 29°58' E 122°03'6243719.8
2016-Jul-27 10:12N 23°02' E 113°23'65510566.6
2016-Jul-27 10:08N 31°58' E 120°26'470801.9
2016-Jul-27 09:33N 24°25' E 118°05'1474589600.2
2016-Jul-27 09:33N 00°04' E 121°18'1893174716.4
2016-Jul-27 09:33N 31°36' E 121°17'661113235.2
2016-Jul-27 09:32N 23°05' E 113°27'623320210.2
2016-Jul-27 09:32N 30°00' E 122°05'10928134.7
2016-Jul-27 09:32N 31°40' E 121°13'66315206.3
2016-Jul-27 09:29N 22°56' E 113°36'662148968.4
2016-Jul-27 09:29N 31°22' E 121°36'28509.4
2016-Jul-27 09:26N 31°41' E 121°12'3068881.5
2016-Jul-27 09:24N 26°44' E 119°44'40597249.6
2016-Jul-27 09:23N 23°05' E 113°28'65916133.0
2016-Jul-27 09:21N 31°29' E 121°25'1316.3
2016-Jul-27 08:33N 31°38' E 121°14'464151793.0
2016-Jul-27 08:33N 24°25' E 118°05'45931185.7
2016-Jul-27 08:32N 31°29' E 121°25'94853.5
2016-Jul-27 08:32N 31°36' E 121°17'65815.3
2016-Jul-27 08:32N 31°32' E 121°23'9818662.0
2016-Jul-27 08:32N 30°00' E 122°05'6239266.5
2016-Jul-27 08:28N 22°56' E 113°36'64392625.3
2016-Jul-27 08:27N 31°57' E 120°07'64422075.4
2016-Jul-27 08:26N 22°58' E 113°30'7196.1
2016-Jul-27 08:24N 23°02' E 113°24'66556988.5
2016-Jul-27 08:23N 31°40' E 121°13'465564.6
2016-Jul-27 07:33N 24°25' E 118°05'46036823.2
2016-Jul-27 07:33N 31°31' E 121°23'659103156.8
2016-Jul-27 07:32N 23°04' E 113°29'65937054.8
2016-Jul-27 07:31N 31°29' E 121°25'143649.8
2016-Jul-27 07:31N 31°40' E 121°13'10913995.5
2016-Jul-27 07:31N 30°00' E 122°05'35334312.7
2016-Jul-27 07:30N 24°50' E 118°56'420215877.8
2016-Jul-27 07:30N 31°28' E 121°28'16687.0
2016-Jul-27 07:28N 31°38' E 121°14'45338.6
2016-Jul-27 07:20N 31°58' E 120°26'1192.4
2016-Jul-27 07:13N 31°57' E 120°13'5583.3
2016-Jul-27 06:33N 31°38' E 121°14'46479511.6
2016-Jul-27 06:33N 24°25' E 118°05'46063630.2
2016-Jul-27 06:33N 31°30' E 121°24'9738610.9
2016-Jul-27 06:33N 30°00' E 122°05'14574789.5
2016-Jul-27 06:32N 31°58' E 120°26'441197.8
2016-Jul-27 06:30N 31°40' E 121°13'2226577.8
2016-Jul-27 06:30N 31°24' E 121°32'81001.5
2016-Jul-27 06:30N 31°29' E 121°25'641240.7
2016-Jul-27 06:27N 31°57' E 120°17'4319064.7
2016-Jul-27 06:24N 24°53' E 118°57'31916632.0
2016-Jul-27 06:23N 23°04' E 113°29'265324.5
2016-Jul-27 05:34N 24°25' E 118°05'464238534.8
2016-Jul-27 05:33N 31°38' E 121°14'132129.7
2016-Jul-27 05:33N 31°29' E 121°25'9642986.3
2016-Jul-27 05:33N 30°00' E 122°05'9626453.1
2016-Jul-27 05:33N 31°29' E 121°25'14425.3
2016-Jul-27 05:31N 31°40' E 121°13'229874.2
2016-Jul-27 05:31N 31°24' E 121°31'65958.9
2016-Jul-27 05:26N 31°58' E 120°26'58546.2
2016-Jul-27 05:20N 31°29' E 121°25'66110045.8
2016-Jul-27 05:16N 22°56' E 113°36'262366.9
2016-Jul-27 04:33N 24°25' E 118°05'45975132.1
2016-Jul-27 04:33N 31°29' E 121°25'1510587.6
2016-Jul-27 04:33N 31°40' E 121°13'109196734.8
2016-Jul-27 04:33N 30°00' E 122°05'14522758.2
2016-Jul-27 04:32N 31°58' E 120°26'441560.0
2016-Jul-27 04:31N 31°40' E 121°13'25988.1
2016-Jul-27 04:29N 31°21' E 121°33'111303.9
2016-Jul-27 04:29N 31°29' E 121°25'622554.9
2016-Jul-27 04:27N 31°59' E 120°22'43314856.5
2016-Jul-27 04:25N 24°53' E 118°57'3162039.8
2016-Jul-27 04:16N 22°56' E 113°36'666299790.2
2016-Jul-27 04:16N 32°01' E 120°47'3110190.5
2016-Jul-27 04:16N 31°56' E 120°11'64012063.9
2016-Jul-27 04:13N 23°05' E 113°27'6611011.9
2016-Jul-27 03:34N 31°40' E 121°13'10949181.0
2016-Jul-27 03:33N 30°00' E 122°05'954296.9
2016-Jul-27 03:32N 31°29' E 121°25'112444.9
2016-Jul-27 03:32N 31°21' E 121°33'765370.5
2016-Jul-27 03:31N 31°57' E 120°14'43562677.1
2016-Jul-27 03:31N 24°47' E 118°55'31721544.4
2016-Jul-27 03:30N 23°05' E 113°27'139022.6
2016-Jul-27 03:30N 22°56' E 113°36'661340150.0
2016-Jul-27 03:29N 31°29' E 121°25'6578292.1
2016-Jul-27 03:29N 31°56' E 120°15'60544.6
2016-Jul-27 03:23N 31°32' E 121°20'658263307.0
2016-Jul-27 03:23N 23°04' E 113°29'6605868.7
2016-Jul-27 03:16N 31°40' E 121°13'441940.5
2016-Jul-27 03:14N 31°58' E 120°26'4464.6
2016-Jul-27 02:33N 31°40' E 121°13'465152320.5
2016-Jul-27 02:33N 24°25' E 118°05'39759585.9
2016-Jul-27 02:33N 30°00' E 122°05'9568757.9
2016-Jul-27 02:33N 31°29' E 121°25'144716.7
2016-Jul-27 02:33N 31°40' E 121°13'6602377028.3
2016-Jul-27 02:33N 23°04' E 113°29'6575314.0
2016-Jul-27 02:25N 31°21' E 121°33'11124.6
2016-Jul-27 02:20N 31°29' E 121°25'66195242.7
2016-Jul-27 02:20N 22°56' E 113°36'623809.6
2016-Jul-27 01:33N 30°00' E 122°05'397286008.7
2016-Jul-27 01:33N 24°25' E 118°05'465128885.0
2016-Jul-27 01:33N 31°40' E 121°13'2513089.0
2016-Jul-27 01:33N 31°21' E 121°33'25757.5
2016-Jul-27 01:31N 31°40' E 121°13'14926.5
2016-Jul-27 01:30N 31°29' E 121°25'127041.4
2016-Jul-27 01:30N 31°22' E 121°36'6624729.2
2016-Jul-27 01:22N 22°56' E 113°36'66111787.4
2016-Jul-27 01:18N 31°29' E 121°25'6598561.4
2016-Jul-27 01:14N 23°04' E 113°29'660990.3
2016-Jul-27 00:34N 31°40' E 121°13'465186167.2
2016-Jul-27 00:33N 24°25' E 118°05'392156871.5
2016-Jul-27 00:33N 29°58' E 121°58'951262.0
2016-Jul-27 00:29N 31°29' E 121°25'142353.4
2016-Jul-27 00:28N 31°40' E 121°13'26355.5
2016-Jul-27 00:24N 31°22' E 121°36'66028609.4
2016-Jul-27 00:23N 23°04' E 113°29'6586849.0
2016-Jul-27 00:17N 31°28' E 121°25'1621.6
2016-Jul-26 23:34N 31°40' E 121°13'46555850.8
2016-Jul-26 23:33N 24°25' E 118°05'46534172.1
2016-Jul-26 23:32N 31°40' E 121°13'153074.7
2016-Jul-26 23:32N 31°28' E 121°25'470.0
2016-Jul-26 23:28N 31°26' E 121°30'5142.9
2016-Jul-26 23:26N 31°29' E 121°25'11743.8
2016-Jul-26 23:25N 31°21' E 121°33'3128.7
2016-Jul-26 23:24N 31°22' E 121°36'6622311.8
2016-Jul-26 23:07N 22°56' E 113°36'262476.8
2016-Jul-26 22:34N 24°25' E 118°05'465837782.7
2016-Jul-26 22:33N 31°40' E 121°13'441150.7
2016-Jul-26 22:31N 31°58' E 120°26'44159091.6
2016-Jul-26 22:31N 31°40' E 121°13'146434.4
2016-Jul-26 22:31N 31°29' E 121°25'91010.6
2016-Jul-26 22:31N 31°22' E 121°30'65959285.4
2016-Jul-26 22:30N 22°56' E 113°36'658237018.3
2016-Jul-26 22:30N 31°19' E 121°34'12100.3
2016-Jul-26 22:23N 31°28' E 121°25'6582369768.6
2016-Jul-26 22:23N 23°04' E 113°29'1012.4
2016-Jul-26 21:34N 22°56' E 113°36'663597033.7
2016-Jul-26 21:33N 31°40' E 121°13'141023.2
2016-Jul-26 21:33N 31°29' E 121°25'45920924.0
2016-Jul-26 21:31N 24°25' E 118°05'465837226.7
2016-Jul-26 21:31N 31°40' E 121°13'281542.2
2016-Jul-26 21:30N 31°18' E 121°33'13231.4
2016-Jul-26 21:27N 31°28' E 121°25'11677.1
2016-Jul-26 21:27N 31°29' E 121°24'1763.8
2016-Jul-26 21:11N 31°13' E 121°30'6531043.1
2016-Jul-26 20:34N 22°56' E 113°36'262236132.2
2016-Jul-26 20:33N 24°25' E 118°05'452813056.7
2016-Jul-26 20:33N 31°18' E 121°33'2824935.0
2016-Jul-26 20:33N 31°40' E 121°13'090.0
2016-Jul-26 20:33N 31°40' E 121°13'6605379.6
2016-Jul-26 20:26N 23°04' E 113°29'6599523.8
2016-Jul-26 20:22N 31°29' E 121°25'1293.6
2016-Jul-26 20:14N 31°22' E 121°36'11116.8
2016-Jul-26 20:08N 31°28' E 121°25'6611139.0
2016-Jul-26 19:34N 22°56' E 113°36'1038249186.2
2016-Jul-26 19:33N 38°50' E 121°33'4311549806.6
2016-Jul-26 19:33N 31°40' E 121°13'465239363.6
2016-Jul-26 19:33N 24°25' E 118°05'46372452.3
2016-Jul-26 19:33N 31°36' E 121°18'10704.1
2016-Jul-26 19:32N 31°28' E 121°25'1 8.5
2016-Jul-26 19:24N 31°29' E 121°25'121422.7
2016-Jul-26 19:23N 31°19' E 121°33'451542.3
2016-Jul-26 18:33N 38°50' E 121°34'431775322.0
2016-Jul-26 18:33N 31°40' E 121°13'124142.3
2016-Jul-26 18:33N 31°32' E 121°23'461207293.7
2016-Jul-26 18:33N 24°25' E 118°05'454116715.1
2016-Jul-26 18:33N 31°22' E 121°30'65673803.4
2016-Jul-26 18:32N 23°04' E 113°29'65928570.6
2016-Jul-26 18:31N 31°29' E 121°25'66152909.5
2016-Jul-26 18:30N 22°56' E 113°36'61720770.6
2016-Jul-26 18:28N 29°58' E 121°59'83200.7
2016-Jul-26 18:04N 31°18' E 121°33'454903.2
2016-Jul-26 17:33N 38°51' E 121°34'540194251.7
2016-Jul-26 17:33N 29°53' E 122°09'11784577.6
2016-Jul-26 17:33N 31°40' E 121°13'1761288.8
2016-Jul-26 17:33N 31°28' E 121°28'66231788.8
2016-Jul-26 17:32N 22°56' E 113°36'66148576.0
2016-Jul-26 17:31N 31°24' E 121°31'6215.3
2016-Jul-26 17:29N 31°28' E 121°25'592670.5
2016-Jul-26 17:28N 31°58' E 120°26'581980.4
2016-Jul-26 17:26N 31°29' E 121°25'6596717.7
2016-Jul-26 17:20N 23°04' E 113°29'660846.8
2016-Jul-26 16:34N 31°40' E 121°13'432388602.3
2016-Jul-26 16:33N 38°52' E 121°33'884353655.8
2016-Jul-26 16:33N 24°25' E 118°05'4581650209.6
2016-Jul-26 16:33N 31°28' E 121°25'6288.0
2016-Jul-26 16:32N 31°25' E 121°31'662216635.7
2016-Jul-26 16:32N 22°56' E 113°36'6619122.4
2016-Jul-26 16:27N 31°28' E 121°26'158.6
2016-Jul-26 16:26N 31°29' E 121°25'6596814.3
2016-Jul-26 16:20N 23°04' E 113°29'6108282.4
2016-Jul-26 16:16N 29°41' E 122°05'550779.0
2016-Jul-26 15:33N 38°51' E 121°34'431776623.3
2016-Jul-26 15:33N 31°40' E 121°13'4651675505.2
2016-Jul-26 15:33N 24°25' E 118°05'26514048.4
2016-Jul-26 15:32N 23°04' E 113°29'65514125.0
2016-Jul-26 15:30N 31°18' E 121°33'7012020.6
2016-Jul-26 15:29N 31°58' E 120°26'5812996.2
2016-Jul-26 15:29N 31°29' E 121°25'4691.4
2016-Jul-26 15:29N 31°32' E 121°21'66116753.0
2016-Jul-26 15:26N 22°56' E 113°36'663755.4
2016-Jul-26 14:33N 31°21' E 121°40'45791310.4
2016-Jul-26 14:33N 24°25' E 118°05'884795505.5
2016-Jul-26 14:33N 38°51' E 121°33'4321553539.1
2016-Jul-26 14:33N 31°40' E 121°13'12735087.9
2016-Jul-26 14:33N 29°41' E 122°05'61064564.0
2016-Jul-26 14:32N 23°04' E 113°29'66067907.3
2016-Jul-26 14:32N 31°22' E 121°37'12805.0
2016-Jul-26 14:31N 31°28' E 121°25'161.6
2016-Jul-26 14:30N 31°29' E 121°25'66113527.9
2016-Jul-26 14:27N 22°56' E 113°36'662158895.9
2016-Jul-26 14:27N 31°36' E 121°16'48838.7
2016-Jul-26 14:23N 31°58' E 120°26'416503.0
2016-Jul-26 13:34N 38°50' E 121°34'8833178938.1
2016-Jul-26 13:34N 24°25' E 118°05'46598559.1
2016-Jul-26 13:33N 31°40' E 121°13'443054.4
2016-Jul-26 13:32N 31°58' E 120°26'65317415.9
2016-Jul-26 13:30N 22°56' E 113°36'661237927.2
2016-Jul-26 13:30N 31°28' E 121°25'1067784.8
2016-Jul-26 13:29N 29°48' E 122°04'6136234.6
2016-Jul-26 13:23N 23°04' E 113°29'66117234.6
2016-Jul-26 13:21N 31°20' E 121°40'16291.5
2016-Jul-26 13:18N 31°29' E 121°25'661898.5
2016-Jul-26 12:34N 22°56' E 113°36'663477613.7
2016-Jul-26 12:33N 31°40' E 121°13'1416232.7
2016-Jul-26 12:33N 31°30' E 121°24'173111.7
2016-Jul-26 12:33N 31°20' E 121°40'8835139.9
2016-Jul-26 12:33N 29°55' E 122°07'10032688.9
2016-Jul-26 12:33N 31°28' E 121°25'65894791.2
2016-Jul-26 12:32N 23°04' E 113°29'265318428.2
2016-Jul-26 12:32N 24°25' E 118°05'883635889.8
2016-Jul-26 12:32N 38°51' E 121°33'431439.7
2016-Jul-26 11:33N 31°40' E 121°13'465119686.1
2016-Jul-26 11:33N 24°25' E 118°05'2625336.3
2016-Jul-26 11:30N 22°56' E 113°36'102020.2
2016-Jul-26 11:30N 23°04' E 113°29'65835905.8
2016-Jul-26 11:29N 31°28' E 121°25'15594.5
2016-Jul-26 11:27N 31°21' E 121°40'669104703.8
2016-Jul-26 11:27N 22°53' E 113°31'667750.4
2016-Jul-26 10:34N 31°39' E 121°13'46443990.0
2016-Jul-26 10:33N 24°25' E 118°05'462138662.7
2016-Jul-26 10:33N 31°35' E 121°17'662264707.4
2016-Jul-26 10:33N 22°56' E 113°36'10229.2
2016-Jul-26 10:30N 23°04' E 113°29'6561601.7
2016-Jul-26 10:05N 31°21' E 121°31'2139.6
2016-Jul-26 09:33N 31°37' E 121°15'46375840.0
2016-Jul-26 09:33N 24°25' E 118°05'466111787.5
2016-Jul-26 09:33N 31°42' E 121°08'66220547.1
2016-Jul-26 09:31N 22°56' E 113°36'65920804.3
2016-Jul-26 09:29N 31°21' E 121°31'9550.6
2016-Jul-26 09:28N 31°22' E 121°41'893.5
2016-Jul-26 09:23N 31°18' E 121°33'6557417.7
2016-Jul-26 09:18N 23°04' E 113°29'659197720.1
2016-Jul-26 09:18N 31°30' E 121°25'459623.7
2016-Jul-26 08:33N 24°25' E 118°05'45986996.4
2016-Jul-26 08:33N 31°30' E 121°24'148496.2
2016-Jul-26 08:33N 31°40' E 121°13'117706.6
2016-Jul-26 08:33N 31°46' E 121°02'66227391.1
2016-Jul-26 08:32N 22°56' E 113°36'1444199955.4
2016-Jul-26 08:31N 00°04' E 121°15'145471696.3
2016-Jul-26 08:30N 23°04' E 113°29'6506429.4
2016-Jul-26 08:24N 31°13' E 121°30'30562.9
2016-Jul-26 08:21N 31°39' E 121°13'23313.3
2016-Jul-26 08:16N 31°21' E 121°31'6647327.6
2016-Jul-26 08:11N 22°52' E 113°33'66811784.4
2016-Jul-26 08:07N 31°38' E 121°15'464822.7
2016-Jul-26 07:33N 24°25' E 118°05'14722649071.6
2016-Jul-26 07:33N 00°06' E 121°20'1890295841.4
2016-Jul-26 07:33N 31°36' E 121°18'81203.9
2016-Jul-26 07:33N 31°41' E 121°11'66282226.5
2016-Jul-26 07:32N 22°56' E 113°36'66141724.5
2016-Jul-26 07:31N 31°50' E 120°54'66699871.2
2016-Jul-26 07:31N 22°54' E 113°29'668141499.4
2016-Jul-26 07:31N 31°36' E 121°18'18368.1
2016-Jul-26 07:28N 31°21' E 121°31'65657624.9
2016-Jul-26 07:27N 23°04' E 113°29'658197468.0
2016-Jul-26 07:27N 31°31' E 121°21'18212.7
2016-Jul-26 07:22N 31°15' E 121°30'11126.8
2016-Jul-26 07:16N 31°22' E 121°41'458641.6
2016-Jul-26 06:33N 24°25' E 118°05'1476885664.8
2016-Jul-26 06:33N 00°02' E 121°26'1888566284.0
2016-Jul-26 06:33N 31°30' E 121°23'2316.7
2016-Jul-26 06:33N 31°32' E 121°22'66255440.6
2016-Jul-26 06:32N 22°56' E 113°36'661216464.6
2016-Jul-26 06:32N 31°34' E 121°19'18260.0
2016-Jul-26 06:28N 31°21' E 121°32'4171500898.9
2016-Jul-26 06:28N 24°48' E 118°52'44239807.8
2016-Jul-26 06:27N 31°58' E 120°52'663596331.0
2016-Jul-26 06:27N 23°04' E 113°29'6504365.2
2016-Jul-26 06:18N 31°13' E 121°30'446599.9
2016-Jul-26 05:33N 24°25' E 118°05'5025579.7
2016-Jul-26 05:33N 24°49' E 118°53'424190927.3
2016-Jul-26 05:33N 31°33' E 121°19'6656.8
2016-Jul-26 05:32N 31°38' E 121°14'28896.9
2016-Jul-26 05:31N 31°58' E 120°52'544442.9
2016-Jul-26 05:30N 31°15' E 121°31'65437373.4
2016-Jul-26 05:29N 22°56' E 113°36'66570396.0
2016-Jul-26 05:28N 31°22' E 121°41'66228389.8
2016-Jul-26 05:27N 23°04' E 113°29'66055235.1
2016-Jul-26 05:26N 31°29' E 121°27'7258.4
2016-Jul-26 05:25N 31°24' E 121°31'92557.8
2016-Jul-26 05:24N 31°26' E 121°22'10392.5
2016-Jul-26 05:23N 31°21' E 121°32'454550.0
2016-Jul-26 04:33N 24°25' E 118°05'45845845.5
2016-Jul-26 04:33N 31°28' E 121°27'41736587.3
2016-Jul-26 04:32N 24°53' E 118°57'41620806.5
2016-Jul-26 04:31N 31°26' E 121°30'65935970.2
2016-Jul-26 04:30N 23°04' E 113°29'65519651.3
2016-Jul-26 04:28N 31°17' E 121°34'544253.6
2016-Jul-26 04:27N 31°58' E 120°52'502011.4
2016-Jul-26 04:26N 31°21' E 121°31'268.3
2016-Jul-26 04:24N 31°23' E 121°30'114.5
2016-Jul-26 04:19N 31°22' E 121°30'9266.6
2016-Jul-26 04:16N 31°22' E 121°41'66521758.8
2016-Jul-26 04:15N 22°56' E 113°36'6623448.6
2016-Jul-26 04:03N 31°26' E 121°30'458931.3
2016-Jul-26 03:34N 24°25' E 118°05'548845.0
2016-Jul-26 03:33N 24°52' E 118°57'43028656.6
2016-Jul-26 03:32N 31°58' E 120°06'643771405.5
2016-Jul-26 03:32N 22°56' E 113°36'66122888.1
2016-Jul-26 03:30N 31°25' E 121°30'862717.0
2016-Jul-26 03:29N 30°01' E 121°50'1271922.7
2016-Jul-26 03:25N 31°58' E 120°52'48934.5
2016-Jul-26 03:22N 31°24' E 121°31'9260.8
2016-Jul-26 03:20N 31°22' E 121°41'981.1
2016-Jul-26 03:13N 31°21' E 121°31'454686.3
2016-Jul-26 02:34N 24°25' E 118°05'4549128.5
2016-Jul-26 02:31N 31°21' E 121°31'65712846.9
2016-Jul-26 02:27N 23°05' E 113°28'66353028.3
2016-Jul-26 02:27N 31°58' E 120°52'331225.8
2016-Jul-26 02:25N 31°57' E 120°12'4302624.8
2016-Jul-26 02:15N 24°52' E 118°57'4163523.3
2016-Jul-26 02:08N 31°22' E 121°41'416711.6
2016-Jul-26 01:33N 24°51' E 118°58'552156.9
2016-Jul-26 01:32N 24°25' E 118°05'4571643609.3
2016-Jul-26 01:32N 31°22' E 121°36'53550.8
2016-Jul-26 01:26N 31°58' E 120°51'66515550.8
2016-Jul-26 01:23N 22°56' E 113°36'65971870.3
2016-Jul-26 01:23N 31°21' E 121°31'6568231.9
2016-Jul-26 01:18N 23°04' E 113°29'6383925.8
2016-Jul-26 01:08N 31°60' E 120°00'85145.4
2016-Jul-26 00:33N 31°22' E 121°30'45554573.6
2016-Jul-26 00:33N 24°25' E 118°05'26220984.1
2016-Jul-26 00:32N 22°56' E 113°36'6598292.7
2016-Jul-26 00:27N 31°21' E 121°31'656590669.4
2016-Jul-26 00:27N 23°04' E 113°29'662264774.0
2016-Jul-26 00:27N 31°58' E 120°51'477513.0
2016-Jul-25 23:31N 24°25' E 118°04'473212682.6
2016-Jul-25 23:31N 32°01' E 120°24'23191.2
2016-Jul-25 23:24N 31°58' E 120°51'5613502.8
2016-Jul-25 23:24N 31°22' E 121°41'8615485.0
2016-Jul-25 23:23N 31°57' E 120°09'79431.0
2016-Jul-25 23:12N 31°21' E 121°31'53415.9
2016-Jul-25 23:05N 31°60' E 120°49'478896.8
2016-Jul-25 22:33N 24°25' E 118°04'47725992.0
2016-Jul-25 22:32N 31°58' E 120°51'3223077.2
2016-Jul-25 22:32N 31°57' E 120°13'642384963.3
2016-Jul-25 22:31N 23°04' E 113°29'66214720.7
2016-Jul-25 22:29N 31°22' E 121°41'6657144.6
2016-Jul-25 22:23N 22°56' E 113°36'222799.1
2016-Jul-25 22:07N 23°45' E 117°32'5089.7
2016-Jul-25 21:33N 24°25' E 118°04'26137623.4
2016-Jul-25 21:33N 22°56' E 113°36'665478952.5
2016-Jul-25 21:33N 31°58' E 120°51'3329581.7
2016-Jul-25 21:33N 31°56' E 120°12'5537.8
2016-Jul-25 21:32N 31°57' E 120°17'64455229.9
2016-Jul-25 21:31N 23°04' E 113°29'65813846.4
2016-Jul-25 21:29N 32°00' E 120°39'63687.8
2016-Jul-25 21:23N 31°18' E 121°33'414114.6
2016-Jul-25 21:23N 31°21' E 121°31'743.8
2016-Jul-25 21:13N 31°14' E 121°30'448667.4
2016-Jul-25 20:33N 24°25' E 118°04'47628120.9
2016-Jul-25 20:32N 31°58' E 120°51'662119148.5
2016-Jul-25 20:31N 23°04' E 113°29'1047.1
2016-Jul-25 20:19N 22°56' E 113°36'6589106.6
2016-Jul-25 20:14N 31°18' E 121°33'748.6
2016-Jul-25 20:05N 31°22' E 121°41'459875.6
2016-Jul-25 19:34N 24°25' E 118°04'47124224.5
2016-Jul-25 19:32N 31°60' E 120°21'65278236.8
2016-Jul-25 19:32N 22°56' E 113°36'101743.9
2016-Jul-25 19:31N 23°04' E 113°29'66214710.6
2016-Jul-25 19:29N 31°58' E 120°51'503421.1
2016-Jul-25 19:28N 31°21' E 121°31'311.9
2016-Jul-25 19:12N 31°19' E 121°34'123.9
2016-Jul-25 19:09N 31°18' E 121°33'5361.5
2016-Jul-25 19:08N 31°14' E 121°29'448749.2
2016-Jul-25 18:33N 24°25' E 118°04'45481794.9
2016-Jul-25 18:32N 31°20' E 121°33'65752523.8
2016-Jul-25 18:31N 23°04' E 113°29'64734275.1
2016-Jul-25 18:30N 31°59' E 120°21'65146871.0
2016-Jul-25 18:30N 22°56' E 113°36'655181354.8
2016-Jul-25 18:29N 32°02' E 120°24'23342.1
2016-Jul-25 18:25N 31°58' E 120°51'543682.5
2016-Jul-25 18:24N 31°18' E 121°33'4215.2
2016-Jul-25 18:23N 31°21' E 121°31'455546.3
2016-Jul-25 17:33N 24°25' E 118°04'26137623.1
2016-Jul-25 17:33N 22°56' E 113°36'61733681.0
2016-Jul-25 17:32N 29°58' E 121°59'616138638.0
2016-Jul-25 17:32N 23°04' E 113°29'65469235.2
2016-Jul-25 17:31N 32°03' E 120°26'212749.4
2016-Jul-25 17:30N 31°58' E 120°51'48488.2
2016-Jul-25 17:25N 31°25' E 121°31'412.3
2016-Jul-25 17:05N 31°21' E 121°32'455864.9
2016-Jul-25 16:33N 24°25' E 118°04'394109038.9
2016-Jul-25 16:33N 29°53' E 122°09'9513139.1
2016-Jul-25 16:33N 31°22' E 121°30'659118542.5
2016-Jul-25 16:32N 22°56' E 113°36'661216410.0
2016-Jul-25 16:32N 31°27' E 121°28'4756.1
2016-Jul-25 16:32N 31°24' E 121°31'492610.7
2016-Jul-25 16:31N 31°58' E 120°51'19169.4
2016-Jul-25 16:24N 32°04' E 120°29'758127.9
2016-Jul-25 16:23N 31°22' E 121°41'66254198.8
2016-Jul-25 16:22N 23°04' E 113°29'264324.1
2016-Jul-25 15:34N 24°25' E 118°04'45847123.1
2016-Jul-25 15:33N 31°25' E 121°31'631295.1
2016-Jul-25 15:30N 32°04' E 120°33'66133031.5
2016-Jul-25 15:29N 22°56' E 113°36'66133537.5
2016-Jul-25 15:28N 31°27' E 121°28'444070.6
2016-Jul-25 15:27N 31°58' E 120°51'54438.6
2016-Jul-25 15:20N 31°18' E 121°33'60904.5
2016-Jul-25 15:16N 32°01' E 120°45'56333.4
2016-Jul-25 15:06N 31°23' E 121°34'5093.6
2016-Jul-25 14:33N 31°58' E 120°51'353484.1
2016-Jul-25 14:33N 31°33' E 121°19'462332578.7
2016-Jul-25 14:33N 24°25' E 118°04'45927086.4
2016-Jul-25 14:32N 31°26' E 121°29'659395336.6
2016-Jul-25 14:31N 23°04' E 113°29'65730717.5
2016-Jul-25 14:30N 32°01' E 120°36'6607429.8
2016-Jul-25 14:25N 22°56' E 113°36'6659809.0
2016-Jul-25 14:21N 31°22' E 121°41'60389.1
2016-Jul-25 14:12N 32°01' E 120°48'478753.1
2016-Jul-25 13:33N 24°25' E 118°04'4627806.2
2016-Jul-25 13:30N 31°33' E 121°19'161605.9
2016-Jul-25 13:29N 31°21' E 121°32'5930572.3
2016-Jul-25 13:29N 32°00' E 120°39'6585862.0
2016-Jul-25 13:22N 23°04' E 113°29'65847408.6
2016-Jul-25 13:22N 31°33' E 121°20'36252.5
2016-Jul-25 13:13N 31°58' E 120°51'27190.8
2016-Jul-25 13:05N 31°39' E 121°13'3364.1
2016-Jul-25 12:33N 32°01' E 120°44'477122739.9
2016-Jul-25 12:33N 24°25' E 118°04'47721714.8
2016-Jul-25 12:32N 31°58' E 120°51'28457.0
2016-Jul-25 12:28N 31°38' E 121°14'0370.3
2016-Jul-25 12:28N 31°38' E 121°14'1231004.7
2016-Jul-25 12:21N 29°43' E 122°02'1504831.9
2016-Jul-25 12:19N 31°59' E 120°49'582401.8
2016-Jul-25 12:18N 31°22' E 121°41'665132969.6
2016-Jul-25 12:17N 22°56' E 113°36'261353.3
2016-Jul-25 11:33N 24°25' E 118°04'47614916.1
2016-Jul-25 11:31N 31°58' E 120°51'66555690.1
2016-Jul-25 11:30N 22°56' E 113°36'66610162.7
2016-Jul-25 11:26N 31°60' E 120°50'581289.4
2016-Jul-25 11:24N 31°22' E 121°41'66230571.5
2016-Jul-25 11:22N 23°04' E 113°29'6191945.9
2016-Jul-25 11:03N 29°53' E 122°08'394795.6
2016-Jul-25 10:34N 24°25' E 118°04'3936205.6
2016-Jul-25 10:30N 29°55' E 122°04'61779301.6
2016-Jul-25 10:29N 23°04' E 113°30'63920173.0
2016-Jul-25 10:27N 31°58' E 120°06'64312307.1
2016-Jul-25 10:24N 22°56' E 113°36'10313.3
2016-Jul-25 10:22N 23°04' E 113°29'6624766.1
2016-Jul-25 10:14N 31°58' E 120°51'133196.0
2016-Jul-25 09:33N 29°57' E 121°55'13359802.4
2016-Jul-25 09:33N 31°58' E 120°51'665149668.3
2016-Jul-25 09:33N 22°56' E 113°36'26149504.0
2016-Jul-25 09:33N 24°25' E 118°04'26412520.1
2016-Jul-25 09:31N 23°04' E 113°29'113.7
2016-Jul-25 09:28N 23°04' E 113°30'64029184.9
2016-Jul-25 09:27N 31°57' E 120°10'811025.8
2016-Jul-25 09:22N 31°18' E 121°33'58454.5
2016-Jul-25 09:15N 32°00' E 120°47'478697.1
2016-Jul-25 08:33N 24°25' E 118°04'541114.5
2016-Jul-25 08:30N 24°48' E 118°58'31529850.7
2016-Jul-25 08:30N 22°56' E 113°36'6639820.9
2016-Jul-25 08:26N 31°40' E 121°13'66020662.3
2016-Jul-25 08:24N 23°04' E 113°29'66210988.8
2016-Jul-25 08:20N 31°22' E 121°41'551080.0
2016-Jul-25 08:17N 31°58' E 120°52'5243720.0
2016-Jul-25 08:09N 23°44' E 117°33'5176325.4
2016-Jul-25 08:04N 31°46' E 121°03'428827.8
2016-Jul-25 07:33N 24°53' E 118°57'31614978.0
2016-Jul-25 07:32N 22°56' E 113°36'66358210.9
2016-Jul-25 07:31N 31°44' E 121°07'197472.4
2016-Jul-25 07:31N 31°58' E 120°52'32114831.1
2016-Jul-25 07:31N 31°57' E 120°14'58104629.4
2016-Jul-25 07:31N 31°36' E 121°18'66011309.1
2016-Jul-25 07:27N 23°04' E 113°30'1166.3
2016-Jul-25 07:27N 23°04' E 113°29'660741.2
2016-Jul-25 06:33N 31°41' E 121°11'2512968.0
2016-Jul-25 06:33N 31°59' E 120°50'3912821.9
2016-Jul-25 06:33N 31°32' E 121°23'6110047.2
2016-Jul-25 06:33N 31°58' E 120°18'4321553691.2
2016-Jul-25 06:33N 24°53' E 118°57'5612557.3
2016-Jul-25 06:33N 24°25' E 118°04'26123514.6
2016-Jul-25 06:32N 22°56' E 113°36'1056.0
2016-Jul-25 06:22N 23°04' E 113°30'6562567.1
2016-Jul-25 06:06N 31°21' E 121°31'455829.4
2016-Jul-25 05:33N 24°25' E 118°04'46646588.5
2016-Jul-25 05:33N 31°39' E 121°14'23437.3
2016-Jul-25 05:30N 31°21' E 121°31'6591185860.2
2016-Jul-25 05:30N 22°56' E 113°36'6538028.8
2016-Jul-25 05:25N 32°01' E 120°22'9142.4
2016-Jul-25 05:21N 31°56' E 120°14'5671.4
2016-Jul-25 04:34N 31°38' E 121°17'3137355.9
2016-Jul-25 04:33N 31°59' E 120°50'47761334.8
2016-Jul-25 04:33N 24°25' E 118°04'2618550.8
2016-Jul-25 04:31N 22°56' E 113°36'65827246.4
2016-Jul-25 04:30N 31°22' E 121°29'285.8
2016-Jul-25 04:28N 31°24' E 121°31'4154568.2
2016-Jul-25 04:23N 24°51' E 118°58'43960754.5
2016-Jul-25 04:22N 32°03' E 120°26'761220.2
2016-Jul-25 04:18N 31°22' E 121°41'9681.2
2016-Jul-25 04:18N 31°21' E 121°31'4706.7
2016-Jul-25 04:17N 31°18' E 121°33'453617.9
2016-Jul-25 03:33N 24°25' E 118°04'46616445.7
2016-Jul-25 03:32N 31°38' E 121°17'66491943.1
2016-Jul-25 03:31N 22°56' E 113°36'659395286.7
2016-Jul-25 03:31N 31°21' E 121°31'514999.0
2016-Jul-25 03:30N 31°59' E 120°50'18235.7
2016-Jul-25 03:26N 32°04' E 120°29'65626242.0
2016-Jul-25 03:24N 23°04' E 113°30'31811116.7
2016-Jul-25 03:23N 24°51' E 118°57'5567.5
2016-Jul-25 02:33N 24°25' E 118°04'46637277.0
2016-Jul-25 02:33N 31°38' E 121°17'66432746.8
2016-Jul-25 02:32N 22°56' E 113°36'65923026.4
2016-Jul-25 02:30N 31°21' E 121°31'41515902.8
2016-Jul-25 02:28N 24°49' E 118°57'3058256.1
2016-Jul-25 02:26N 22°19' E 114°07'68262925.4
2016-Jul-25 02:25N 31°59' E 120°50'477549.2
2016-Jul-25 01:33N 24°25' E 118°04'46664517.1
2016-Jul-25 01:33N 31°38' E 121°17'67845212.4
2016-Jul-25 01:32N 22°19' E 114°07'67239636.5
2016-Jul-25 01:31N 31°21' E 121°31'5110879.3
2016-Jul-25 01:31N 31°59' E 120°50'665479120.2
2016-Jul-25 01:31N 22°56' E 113°36'1042.2
2016-Jul-25 01:16N 23°04' E 113°29'264366.8
2016-Jul-25 00:33N 24°25' E 118°04'45532759.8
2016-Jul-25 00:32N 31°21' E 121°31'504302436.9
2016-Jul-25 00:32N 23°44' E 117°32'525314947.5
2016-Jul-25 00:32N 31°59' E 120°50'68272180.3
2016-Jul-25 00:32N 22°19' E 114°07'67849826.6
2016-Jul-25 00:31N 31°38' E 121°17'6649159.1
2016-Jul-25 00:27N 22°56' E 113°36'6455388.3
2016-Jul-25 00:19N 31°57' E 120°12'6506174.0
2016-Jul-25 00:13N 22°53' E 113°31'12262.7
2016-Jul-25 00:10N 23°04' E 113°29'264422.6
2016-Jul-24 23:33N 24°25' E 118°04'26115676.4
2016-Jul-24 23:32N 22°56' E 113°36'665598904.6
2016-Jul-24 23:32N 31°59' E 120°50'671241668.9
2016-Jul-24 23:32N 22°55' E 113°27'66585512.7
2016-Jul-24 23:31N 31°21' E 121°31'73716.5
2016-Jul-24 23:25N 31°58' E 120°17'64514240.2
2016-Jul-24 23:22N 23°04' E 113°29'581220.8
2016-Jul-24 23:20N 22°19' E 114°07'67861035.7
2016-Jul-24 23:19N 31°38' E 121°17'34981.8
2016-Jul-24 23:17N 32°01' E 120°48'60818.7
2016-Jul-24 23:12N 31°22' E 121°41'5788.0
2016-Jul-24 22:33N 31°59' E 120°50'477245353.8
2016-Jul-24 22:33N 24°25' E 118°04'46618038.1
2016-Jul-24 22:32N 31°38' E 121°17'21250.4
2016-Jul-24 22:27N 31°21' E 121°31'659139513.0
2016-Jul-24 22:27N 22°56' E 113°36'65998867.7
2016-Jul-24 22:26N 31°26' E 121°25'6574139.1
2016-Jul-24 22:17N 23°04' E 113°29'264366.8
2016-Jul-24 21:33N 24°25' E 118°04'47768697.6
2016-Jul-24 21:33N 31°59' E 120°50'311834.4
2016-Jul-24 21:32N 31°38' E 121°17'67849828.9
2016-Jul-24 21:31N 22°19' E 114°07'6728086.2
2016-Jul-24 21:26N 31°21' E 121°31'9322.7
2016-Jul-24 21:25N 31°22' E 121°41'66291724.2
2016-Jul-24 21:24N 23°04' E 113°29'10200.8
2016-Jul-24 21:21N 22°56' E 113°36'6622998.1
2016-Jul-24 21:08N 31°22' E 121°36'6621154.8
2016-Jul-24 20:34N 22°56' E 113°36'26194057.7
2016-Jul-24 20:33N 24°25' E 118°04'47790391.4
2016-Jul-24 20:33N 31°59' E 120°50'5137002.3
2016-Jul-24 20:33N 31°21' E 121°31'657147720.0
2016-Jul-24 20:33N 23°03' E 113°31'2 6.0
2016-Jul-24 20:13N 23°04' E 113°29'264397.3
2016-Jul-24 19:33N 24°25' E 118°04'477132105.7
2016-Jul-24 19:33N 31°59' E 120°50'66566545.4
2016-Jul-24 19:33N 22°56' E 113°36'65920804.6
2016-Jul-24 19:31N 31°21' E 121°31'65618316.1
2016-Jul-24 19:28N 23°04' E 113°29'6572213.0
2016-Jul-24 19:11N 31°26' E 121°25'20234.1
2016-Jul-24 19:05N 31°42' E 121°09'467854.5
2016-Jul-24 18:33N 24°25' E 118°04'4666931.8
2016-Jul-24 18:29N 31°40' E 121°13'281000.9
2016-Jul-24 18:27N 31°59' E 120°50'665299456.6
2016-Jul-24 18:27N 22°56' E 113°36'6635473.4
2016-Jul-24 18:20N 31°38' E 121°15'22268.7
2016-Jul-24 18:15N 31°21' E 121°31'44926079.9
2016-Jul-24 18:14N 38°50' E 121°32'8841316.2
2016-Jul-24 17:33N 24°25' E 118°04'88467707.6
2016-Jul-24 17:33N 38°51' E 121°32'43529011.9
2016-Jul-24 17:32N 31°36' E 121°18'181327.4
2016-Jul-24 17:31N 31°21' E 121°31'171236.8
2016-Jul-24 17:30N 31°35' E 121°19'345885.1
2016-Jul-24 17:30N 31°59' E 120°50'2560.6
2016-Jul-24 17:05N 31°41' E 121°10'2446.5
2016-Jul-24 16:33N 31°23' E 121°30'4571644150.4
2016-Jul-24 16:33N 24°25' E 118°04'884265322.2
2016-Jul-24 16:33N 38°51' E 121°33'53279842.3
2016-Jul-24 16:33N 29°59' E 121°58'9887973.8
2016-Jul-24 16:33N 31°32' E 121°22'391216.4
2016-Jul-24 16:31N 31°59' E 120°50'398878.6
2016-Jul-24 16:30N 31°31' E 121°23'66211035.4
2016-Jul-24 16:27N 22°56' E 113°36'6631854.1
2016-Jul-24 16:05N 31°41' E 121°11'467872.1
2016-Jul-24 15:33N 24°25' E 118°04'3951420232.1
2016-Jul-24 15:33N 29°54' E 122°09'53812334.7
2016-Jul-24 15:31N 38°51' E 121°34'44431352.0
2016-Jul-24 15:30N 31°27' E 121°28'5267.7
2016-Jul-24 15:29N 31°30' E 121°24'175631.7
2016-Jul-24 15:28N 31°22' E 121°41'571504.0
2016-Jul-24 15:26N 31°59' E 120°50'45264.3
2016-Jul-24 15:16N 31°28' E 121°29'3 4.7
2016-Jul-24 14:33N 31°25' E 121°31'10510169.3
2016-Jul-24 14:33N 29°44' E 122°03'38472783.5
2016-Jul-24 14:33N 24°25' E 118°04'477286229.0
2016-Jul-24 14:32N 31°59' E 120°50'402238.4
2016-Jul-24 14:31N 31°30' E 121°24'440198044.9
2016-Jul-24 14:31N 38°50' E 121°33'10383738519.7
2016-Jul-24 14:31N 22°56' E 113°36'471890.0
2016-Jul-24 14:30N 22°19' E 114°07'6776484.1
2016-Jul-24 14:23N 31°41' E 121°11'104380.6
2016-Jul-24 14:07N 30°05' E 121°55'782777.8
2016-Jul-24 14:05N 31°22' E 121°41'82153.3
2016-Jul-24 13:33N 30°01' E 121°60'39654891.9
2016-Jul-24 13:33N 24°25' E 118°04'45516540.7
2016-Jul-24 13:31N 31°20' E 121°33'67218750.6
2016-Jul-24 13:29N 22°19' E 114°07'68261347.1
2016-Jul-24 13:28N 31°59' E 120°50'66516186.0
2016-Jul-24 13:26N 22°56' E 113°36'1038533954.9
2016-Jul-24 13:26N 38°50' E 121°33'4408795.4
2016-Jul-24 13:23N 31°30' E 121°24'66821486.6
2016-Jul-24 13:21N 22°55' E 113°25'6205338.0
2016-Jul-24 13:14N 29°41' E 122°07'1032967.3
2016-Jul-24 13:12N 31°22' E 121°41'459719.6
2016-Jul-24 12:34N 24°25' E 118°04'883212025.3
2016-Jul-24 12:33N 38°50' E 121°33'53677170.9
2016-Jul-24 12:33N 29°55' E 122°07'14028098.5
2016-Jul-24 12:33N 31°59' E 120°50'67156142.3
2016-Jul-24 12:32N 22°54' E 113°29'659118572.5
2016-Jul-24 12:32N 31°15' E 121°30'66614267.7
2016-Jul-24 12:29N 22°19' E 114°07'48630.0
2016-Jul-24 12:24N 22°56' E 113°36'6646907.6
2016-Jul-24 12:18N 31°38' E 121°18'9764.0
2016-Jul-24 12:18N 31°30' E 121°24'76582.6
2016-Jul-24 12:10N 31°59' E 120°01'466764.6
2016-Jul-24 11:33N 24°25' E 118°04'466167670.5
2016-Jul-24 11:33N 31°38' E 121°18'664119519.0
2016-Jul-24 11:33N 22°56' E 113°36'61559864.1
2016-Jul-24 11:32N 29°48' E 122°05'62210268.3
2016-Jul-24 11:29N 22°19' E 114°07'68225298.1
2016-Jul-24 11:27N 31°59' E 120°50'1466104.4
2016-Jul-24 11:26N 29°48' E 122°04'1082892.3
2016-Jul-24 11:23N 31°30' E 121°24'71649.6
2016-Jul-24 11:17N 31°58' E 120°06'64215606.2
2016-Jul-24 11:14N 23°00' E 113°31'264387.3
2016-Jul-24 10:33N 24°25' E 118°04'395203142.3
2016-Jul-24 10:33N 29°55' E 122°08'62135483.8
2016-Jul-24 10:32N 22°56' E 113°36'662595512.9
2016-Jul-24 10:32N 31°30' E 121°24'659339009.6
2016-Jul-24 10:32N 23°03' E 113°30'641144249.5
2016-Jul-24 10:32N 31°57' E 120°11'33379.5
2016-Jul-24 10:27N 31°59' E 120°50'322342.3
2016-Jul-24 10:26N 31°38' E 121°18'6784343.4
2016-Jul-24 10:16N 22°19' E 114°07'67711497.5
2016-Jul-24 10:13N 31°45' E 121°05'6597506.5
2016-Jul-24 10:08N 23°04' E 113°30'6611165.3
2016-Jul-24 09:34N 31°38' E 121°18'466111789.6
2016-Jul-24 09:33N 24°25' E 118°04'392352647.1
2016-Jul-24 09:33N 29°58' E 121°56'1342695.0
2016-Jul-24 09:30N 31°59' E 120°50'283550.0
2016-Jul-24 09:30N 31°58' E 120°17'66626936.9
2016-Jul-24 09:28N 22°19' E 114°07'585335.3
2016-Jul-24 09:28N 23°04' E 113°29'6587899.5
2016-Jul-24 09:23N 31°28' E 121°25'6617298.5
2016-Jul-24 09:17N 22°56' E 113°36'6632889.1
2016-Jul-24 09:03N 31°41' E 121°11'467934.8
2016-Jul-24 08:33N 24°25' E 118°04'2707788.0
2016-Jul-24 08:31N 23°02' E 113°23'667800732.8
2016-Jul-24 08:31N 31°59' E 120°50'66516297.3
2016-Jul-24 08:29N 22°56' E 113°36'653588025.4
2016-Jul-24 08:29N 32°01' E 120°22'67154894.0
2016-Jul-24 08:28N 22°19' E 114°07'66013733.8
2016-Jul-24 08:25N 31°59' E 120°01'63848833.9
2016-Jul-24 08:24N 23°04' E 113°30'66125315.4
2016-Jul-24 08:23N 31°38' E 121°18'466565.2
2016-Jul-24 07:33N 24°25' E 118°04'46615820.3
2016-Jul-24 07:32N 31°38' E 121°18'66113444.4
2016-Jul-24 07:29N 23°04' E 113°30'658789631.8
2016-Jul-24 07:29N 31°28' E 121°25'75294.0
2016-Jul-24 07:13N 31°58' E 120°05'466696.9
2016-Jul-24 06:33N 24°25' E 118°04'46418998.2
2016-Jul-24 06:32N 31°36' E 121°17'1150.6
2016-Jul-24 06:31N 31°38' E 121°18'66495625.1
2016-Jul-24 06:31N 22°56' E 113°36'64313162.3
2016-Jul-24 06:28N 31°57' E 120°08'7214318.4
2016-Jul-24 06:28N 31°28' E 121°25'41308.7
2016-Jul-24 06:20N 31°58' E 120°51'477617.6
2016-Jul-24 05:33N 24°25' E 118°04'261188116.8
2016-Jul-24 05:33N 22°56' E 113°36'481525.1
2016-Jul-24 05:31N 22°18' E 114°08'67823010.5
2016-Jul-24 05:30N 31°41' E 121°11'66015032.1
2016-Jul-24 05:27N 23°04' E 113°30'661139986.1
2016-Jul-24 05:27N 31°38' E 121°18'32437.3
2016-Jul-24 05:22N 31°59' E 120°50'477585.1
2016-Jul-24 04:33N 24°25' E 118°04'2516952.4
2016-Jul-24 04:31N 22°18' E 114°08'67823912.7
2016-Jul-24 04:29N 31°41' E 121°11'66332248.3
2016-Jul-24 04:28N 22°56' E 113°36'101237.4
2016-Jul-24 04:28N 23°04' E 113°30'66113676.0
2016-Jul-24 04:25N 31°38' E 121°18'324264.8
2016-Jul-24 04:24N 31°59' E 120°50'431546.7
2016-Jul-24 04:23N 31°28' E 121°25'651133.5
2016-Jul-24 04:19N 31°58' E 120°17'645842.1
2016-Jul-24 03:33N 23°03' E 113°30'264237423.7
2016-Jul-24 03:33N 24°25' E 118°04'4771717783.9
2016-Jul-24 03:33N 31°59' E 120°50'325006.5
2016-Jul-24 03:33N 31°38' E 121°18'66423905.8
2016-Jul-24 03:31N 22°56' E 113°36'66322727.4
2016-Jul-24 03:29N 31°41' E 121°11'6788934.4
2016-Jul-24 03:25N 22°18' E 114°08'67425027.2
2016-Jul-24 03:23N 31°28' E 121°25'634727.3
2016-Jul-24 03:22N 32°00' E 120°21'15285.8
2016-Jul-24 03:19N 32°00' E 120°39'65845531.3
2016-Jul-24 03:18N 23°04' E 113°30'65510341.6
2016-Jul-24 03:15N 31°18' E 121°33'453660.2
2016-Jul-24 02:33N 24°25' E 118°04'26810710.6
2016-Jul-24 02:32N 23°04' E 113°25'4414.9
2016-Jul-24 02:31N 23°04' E 113°30'660339498.0
2016-Jul-24 02:31N 32°01' E 120°43'384516.8
2016-Jul-24 02:31N 31°38' E 121°18'32615.8
2016-Jul-24 02:28N 31°59' E 120°50'431278.1
2016-Jul-24 02:26N 31°28' E 121°25'6614905.9
2016-Jul-24 02:18N 22°56' E 113°36'6659142.4
2016-Jul-24 02:13N 31°59' E 120°49'6827968.2
2016-Jul-24 02:08N 22°18' E 114°08'67811344.5
2016-Jul-24 02:04N 31°41' E 121°11'467899.2
2016-Jul-24 01:33N 24°25' E 118°04'47766068.6
2016-Jul-24 01:33N 31°59' E 120°50'321096.7
2016-Jul-24 01:31N 31°38' E 121°18'701485.6
2016-Jul-24 01:28N 31°60' E 120°00'4129242.8
2016-Jul-24 01:28N 32°01' E 120°48'22915.8
2016-Jul-24 01:27N 32°01' E 120°22'6714938.8
2016-Jul-24 01:19N 22°18' E 114°08'6784998.1
2016-Jul-24 01:10N 31°41' E 121°11'47447401.9
2016-Jul-24 01:10N 39°05' E 117°45'4917179.4
2016-Jul-24 01:06N 31°28' E 121°25'65814449.1
2016-Jul-24 01:03N 23°04' E 113°29'264536.5
2016-Jul-24 00:33N 24°25' E 118°04'26152253.9
2016-Jul-24 00:33N 22°56' E 113°36'481914.8
2016-Jul-24 00:32N 22°18' E 114°08'67819689.8
2016-Jul-24 00:30N 31°38' E 121°18'1384.2
2016-Jul-24 00:21N 31°26' E 121°25'458579.2
2016-Jul-23 23:33N 24°25' E 118°04'261235142.5
2016-Jul-23 23:33N 22°56' E 113°36'66416954.5
2016-Jul-23 23:31N 31°38' E 121°18'67865987.5
2016-Jul-23 23:30N 22°18' E 114°08'582107.6
2016-Jul-23 23:29N 23°04' E 113°29'6624703.1
2016-Jul-23 23:20N 31°22' E 121°41'15207.9
2016-Jul-23 23:16N 31°28' E 121°25'460651.8
2016-Jul-23 22:34N 24°25' E 118°04'26123514.2
2016-Jul-23 22:33N 22°56' E 113°36'6618620.7
2016-Jul-23 22:28N 31°28' E 121°25'11213.3
2016-Jul-23 22:25N 31°38' E 121°18'6782283.9
2016-Jul-23 22:07N 22°18' E 114°08'251440.4
2016-Jul-23 21:33N 24°25' E 118°04'46631049.5
2016-Jul-23 21:32N 31°38' E 121°18'7612.9
2016-Jul-23 21:31N 31°41' E 121°11'666399437.1
2016-Jul-23 21:31N 23°02' E 113°22'6118271.9
2016-Jul-23 21:31N 22°18' E 114°08'67475864.8
2016-Jul-23 21:31N 31°28' E 121°25'66119034.7
2016-Jul-23 21:29N 22°56' E 113°36'6656400.0
2016-Jul-23 21:22N 31°56' E 120°52'542785.7
2016-Jul-23 21:21N 31°22' E 121°41'663832.2
2016-Jul-23 20:33N 23°05' E 113°28'265238578.2
2016-Jul-23 20:33N 24°25' E 118°04'261188114.0
2016-Jul-23 20:33N 22°56' E 113°36'1039934736.7
2016-Jul-23 20:33N 38°51' E 121°33'106430389.5
2016-Jul-23 20:31N 22°18' E 114°08'67431124.0
2016-Jul-23 20:30N 31°28' E 121°25'22267.9
2016-Jul-23 20:25N 31°44' E 121°07'11372.7
2016-Jul-23 20:23N 31°38' E 121°18'22813.3
2016-Jul-23 20:21N 31°22' E 121°36'457572.6
2016-Jul-23 19:33N 24°25' E 118°04'884530664.5
2016-Jul-23 19:33N 38°51' E 121°33'43147042.6
2016-Jul-23 19:33N 31°40' E 121°13'5290.6
2016-Jul-23 19:32N 31°38' E 121°18'7198.2
2016-Jul-23 19:29N 31°41' E 121°11'66325405.1
2016-Jul-23 19:28N 22°58' E 113°32'4218.3
2016-Jul-23 19:27N 22°56' E 113°36'6612832.5
2016-Jul-23 19:13N 31°28' E 121°25'2178.3
2016-Jul-23 19:12N 31°26' E 121°25'65622721.6
2016-Jul-23 19:10N 23°04' E 113°29'1016.5
2016-Jul-23 18:34N 22°56' E 113°36'261313523.3
2016-Jul-23 18:33N 24°25' E 118°04'88441864.0
2016-Jul-23 18:32N 38°50' E 121°32'41328055.2
2016-Jul-23 18:31N 31°59' E 120°50'68264598.7
2016-Jul-23 18:31N 22°18' E 114°08'67231853.2
2016-Jul-23 18:29N 31°26' E 121°25'50696.7
2016-Jul-23 18:25N 32°01' E 120°42'44196.4
2016-Jul-23 18:12N 31°32' E 121°21'6774.7
2016-Jul-23 18:11N 31°38' E 121°18'4262.3
2016-Jul-23 18:10N 31°40' E 121°13'15206.7
2016-Jul-23 18:06N 31°28' E 121°25'460854.5
2016-Jul-23 17:33N 24°25' E 118°04'4781719008.6
2016-Jul-23 17:33N 32°00' E 120°45'665149524.3
2016-Jul-23 17:33N 22°56' E 113°36'66169990.5
2016-Jul-23 17:33N 31°29' E 121°24'17455.7
2016-Jul-23 17:30N 31°41' E 121°11'42949851.0
2016-Jul-23 17:30N 38°50' E 121°33'43511860.9
2016-Jul-23 17:28N 31°36' E 121°18'6768986.2
2016-Jul-23 17:23N 22°18' E 114°08'6787139.2
2016-Jul-23 17:17N 31°38' E 121°18'65635.6
2016-Jul-23 17:11N 31°58' E 120°05'63979287.8
2016-Jul-23 17:11N 23°04' E 113°29'65832460.4
2016-Jul-23 17:10N 31°28' E 121°25'459759.9
2016-Jul-23 16:33N 24°25' E 118°04'46151905.1
2016-Jul-23 16:33N 31°31' E 121°24'979720.7
2016-Jul-23 16:32N 29°58' E 121°59'10619992.9
2016-Jul-23 16:32N 31°38' E 121°18'66454333.7
2016-Jul-23 16:31N 22°56' E 113°36'661118963.6
2016-Jul-23 16:31N 31°28' E 121°25'67421109.3
2016-Jul-23 16:29N 22°18' E 114°08'106356287.7
2016-Jul-23 16:28N 38°50' E 121°33'4121998.1
2016-Jul-23 16:15N 32°01' E 120°32'412587.4
2016-Jul-23 15:33N 38°51' E 121°33'884127327.9
2016-Jul-23 15:33N 24°25' E 118°04'39454594.1
2016-Jul-23 15:32N 29°53' E 122°09'621131432.3
2016-Jul-23 15:32N 22°56' E 113°36'65458891.3
2016-Jul-23 15:32N 32°01' E 120°24'5230904.4
2016-Jul-23 15:31N 31°38' E 121°18'16259.5
2016-Jul-23 15:28N 31°26' E 121°30'534.0
2016-Jul-23 15:19N 31°28' E 121°25'6744816.6
2016-Jul-23 15:11N 22°18' E 114°08'67720837.5
2016-Jul-23 15:09N 31°22' E 121°41'6651133.2
2016-Jul-23 14:34N 22°56' E 113°36'1039415559.8
2016-Jul-23 14:33N 38°51' E 121°34'884227370.6
2016-Jul-23 14:33N 24°25' E 118°04'383125392.0
2016-Jul-23 14:33N 29°43' E 122°02'16213525.3
2016-Jul-23 14:32N 31°56' E 120°15'43011732.4
2016-Jul-23 14:30N 24°51' E 119°01'4181505488.1
2016-Jul-23 14:30N 31°30' E 121°24'675303639.2
2016-Jul-23 14:30N 22°18' E 114°08'678110978.1
2016-Jul-23 14:30N 31°38' E 121°18'713018.0
2016-Jul-23 14:29N 31°41' E 121°11'6607565.9
2016-Jul-23 14:24N 23°04' E 113°29'6589009.7
2016-Jul-23 14:20N 31°28' E 121°25'15430.8
2016-Jul-23 14:18N 31°22' E 121°41'423573.5
2016-Jul-23 13:34N 24°45' E 118°54'857617191.7
2016-Jul-23 13:33N 38°51' E 121°34'885637016.4
2016-Jul-23 13:33N 24°25' E 118°04'261117571.2
2016-Jul-23 13:33N 22°56' E 113°36'665113968.6
2016-Jul-23 13:33N 31°22' E 121°41'839343.5
2016-Jul-23 13:32N 31°57' E 120°13'683026.6
2016-Jul-23 13:31N 31°28' E 121°25'7361.7
2016-Jul-23 13:30N 31°22' E 121°30'197406.8
2016-Jul-23 13:30N 31°38' E 121°18'661606.6
2016-Jul-23 13:27N 31°57' E 120°04'638164032.0
2016-Jul-23 13:27N 23°04' E 113°29'61042210.4
2016-Jul-23 13:26N 29°41' E 122°05'61710627.6
2016-Jul-23 13:23N 22°18' E 114°08'6758376.3
2016-Jul-23 13:18N 31°30' E 121°24'460624.3
2016-Jul-23 12:33N 24°25' E 118°04'88593658.9
2016-Jul-23 12:33N 38°51' E 121°33'43478030.1
2016-Jul-23 12:33N 31°38' E 121°18'1185828.9
2016-Jul-23 12:31N 29°46' E 122°04'61343246.7
2016-Jul-23 12:31N 22°56' E 113°36'48219.8
2016-Jul-23 12:17N 22°18' E 114°08'67842790.8
2016-Jul-23 12:17N 31°41' E 121°11'25985.7
2016-Jul-23 12:15N 31°22' E 121°30'1017273.6
2016-Jul-23 12:15N 31°22' E 121°41'66236683.0
2016-Jul-23 12:14N 23°04' E 113°29'65838861.1
2016-Jul-23 12:13N 31°30' E 121°24'2199.0
2016-Jul-23 12:12N 31°28' E 121°25'652589.5
2016-Jul-23 12:11N 31°57' E 120°16'2 3.8
2016-Jul-23 11:34N 31°58' E 120°18'469844238.4
2016-Jul-23 11:33N 24°25' E 118°04'39540578.7
2016-Jul-23 11:33N 29°54' E 122°08'6212234623.5
2016-Jul-23 11:33N 22°56' E 113°36'661264485.3
2016-Jul-23 11:33N 31°30' E 121°24'9271.0
2016-Jul-23 11:31N 31°38' E 121°18'67978812.7
2016-Jul-23 11:30N 22°48' E 113°21'680271864.2
2016-Jul-23 11:30N 31°22' E 121°41'67759463.6
2016-Jul-23 11:29N 22°18' E 114°08'6742405.9
2016-Jul-23 11:13N 31°28' E 121°25'658338510.4
2016-Jul-23 11:12N 23°04' E 113°29'6566673.2
2016-Jul-23 11:06N 31°22' E 121°30'2 3.6
2016-Jul-23 10:33N 31°24' E 121°31'457164646.1
2016-Jul-23 10:33N 24°25' E 118°04'26137622.8
2016-Jul-23 10:33N 22°56' E 113°36'616158487.5
2016-Jul-23 10:33N 29°58' E 121°58'37961952.4
2016-Jul-23 10:32N 24°26' E 118°33'45014213.7
2016-Jul-23 10:30N 31°30' E 121°24'16242.4
2016-Jul-23 10:26N 31°41' E 121°11'332090.7
2016-Jul-23 10:25N 31°22' E 121°41'6778921.5
2016-Jul-23 10:21N 22°19' E 114°09'250314.5
2016-Jul-23 09:33N 24°25' E 118°04'202194.2
2016-Jul-23 09:33N 24°23' E 118°25'2797788.9
2016-Jul-23 09:31N 22°56' E 113°36'66121440.8
2016-Jul-23 09:29N 31°28' E 121°25'181403.9
2016-Jul-23 09:28N 31°41' E 121°11'332544.9
2016-Jul-23 09:27N 31°22' E 121°41'8121.0
2016-Jul-23 09:23N 31°25' E 121°33'100602.5
2016-Jul-23 09:13N 29°49' E 122°05'59649908.3
2016-Jul-23 09:12N 39°05' E 117°45'8801350.9
2016-Jul-23 08:33N 24°25' E 118°04'13961.4
2016-Jul-23 08:33N 24°21' E 118°17'46738204.0
2016-Jul-23 08:32N 31°43' E 121°06'66229795.5
2016-Jul-23 08:31N 22°56' E 113°36'10605.8
2016-Jul-23 08:30N 23°04' E 113°29'6598290.5
2016-Jul-23 08:25N 31°30' E 121°23'0171.9
2016-Jul-23 08:25N 31°30' E 121°24'10211456.8
2016-Jul-23 08:24N 29°55' E 122°07'89685.2
2016-Jul-23 08:16N 31°22' E 121°41'67057398.5
2016-Jul-23 08:16N 22°52' E 113°33'265377.3
2016-Jul-23 07:33N 24°25' E 118°04'5344.7
2016-Jul-23 07:33N 24°22' E 118°09'46075247.4
2016-Jul-23 07:32N 31°25' E 121°33'882373.5
2016-Jul-23 07:30N 30°01' E 122°00'620318711.0
2016-Jul-23 07:30N 22°56' E 113°36'66132167.0
2016-Jul-23 07:29N 31°30' E 121°24'65268.5
2016-Jul-23 07:14N 31°56' E 120°14'512244.4
2016-Jul-23 07:13N 31°41' E 121°12'467711.9
2016-Jul-23 06:33N 24°25' E 118°04'23209.8
2016-Jul-23 06:33N 24°25' E 118°02'46717500.3
2016-Jul-23 06:32N 31°41' E 121°12'66339779.4
2016-Jul-23 06:31N 22°56' E 113°36'66368192.2
2016-Jul-23 06:30N 31°38' E 121°15'27560.5
2016-Jul-23 06:27N 31°22' E 121°41'814480.7
2016-Jul-23 06:27N 31°25' E 121°33'19238.4
2016-Jul-23 06:23N 31°37' E 121°16'1054.3
2016-Jul-23 06:12N 31°30' E 121°24'65842331.5
2016-Jul-23 06:11N 23°04' E 113°29'264162.8
2016-Jul-23 04:33N 24°25' E 118°04'26152253.9
2016-Jul-23 04:33N 22°56' E 113°36'25541796.5
2016-Jul-23 04:33N 24°24' E 117°57'46528355.5
2016-Jul-23 04:32N 31°32' E 121°22'669802340.0
2016-Jul-23 04:32N 22°55' E 113°26'669100417.2
2016-Jul-23 04:31N 31°30' E 121°26'243.6
2016-Jul-23 04:29N 31°30' E 121°24'0 8.1
2016-Jul-23 04:26N 31°30' E 121°24'65814908.9
2016-Jul-23 04:23N 23°04' E 113°29'6604868.4
2016-Jul-23 04:15N 31°25' E 121°33'459665.5
2016-Jul-23 03:33N 24°25' E 118°04'461165977.6
2016-Jul-23 03:33N 31°30' E 121°26'43057.8
2016-Jul-23 03:33N 31°27' E 121°30'7184.2
2016-Jul-23 03:31N 31°30' E 121°24'66921492.9
2016-Jul-23 03:29N 22°55' E 113°25'67224447.8
2016-Jul-23 03:28N 31°22' E 121°41'83000.0
2016-Jul-23 03:27N 31°18' E 121°33'151192.1
2016-Jul-23 03:27N 31°30' E 121°24'661340054.9
2016-Jul-23 03:27N 22°56' E 113°36'66123808.0
2016-Jul-23 03:25N 31°24' E 121°32'541821.6
2016-Jul-23 03:23N 32°00' E 120°44'542865.6
2016-Jul-23 03:22N 31°25' E 121°33'55292.3
2016-Jul-23 03:11N 32°01' E 120°44'478756.3
2016-Jul-23 02:33N 24°25' E 118°04'460138118.1
2016-Jul-23 02:33N 31°30' E 121°24'451583.7
2016-Jul-23 02:31N 32°01' E 120°46'502657.8
2016-Jul-23 02:30N 31°26' E 121°28'12207.8
2016-Jul-23 02:26N 31°22' E 121°41'665239346.6
2016-Jul-23 02:26N 22°56' E 113°36'66168027.1
2016-Jul-23 02:26N 31°30' E 121°24'9161.8
2016-Jul-23 02:22N 31°24' E 121°31'6327.5
2016-Jul-23 02:21N 31°18' E 121°33'4566387.7
2016-Jul-23 02:17N 24°24' E 117°57'2622632.6
2016-Jul-23 02:11N 22°54' E 113°28'268430.9
2016-Jul-23 01:33N 24°25' E 118°04'26116501.4
2016-Jul-23 01:33N 22°56' E 113°36'65826905.7
2016-Jul-23 01:31N 31°18' E 121°33'7446.1
2016-Jul-23 01:30N 31°25' E 121°33'91527.6
2016-Jul-23 01:30N 31°30' E 121°24'46328275.6
2016-Jul-23 01:29N 24°24' E 117°57'4647800.4
2016-Jul-23 01:25N 31°30' E 121°24'6594919.4
2016-Jul-23 01:17N 23°04' E 113°29'6623821.4
2016-Jul-23 01:07N 31°22' E 121°41'181036.3
2016-Jul-23 01:06N 31°31' E 121°23'599572.8
2016-Jul-23 01:05N 32°01' E 120°24'473884.6
2016-Jul-23 00:33N 24°25' E 118°04'46050224.8
2016-Jul-23 00:33N 31°30' E 121°24'1317.6
2016-Jul-23 00:33N 31°31' E 121°23'604922.2
2016-Jul-23 00:32N 31°58' E 120°20'471424270.8
2016-Jul-23 00:32N 24°24' E 117°57'2556076.6
2016-Jul-23 00:29N 22°56' E 113°36'6619193.0
2016-Jul-23 00:25N 31°30' E 121°24'976.0
2016-Jul-23 00:18N 31°25' E 121°33'66540.4
2016-Jul-23 00:10N 31°58' E 120°26'65030377.1
2016-Jul-23 00:09N 23°04' E 113°29'264445.7
2016-Jul-22 23:33N 24°25' E 118°04'26520279.4
2016-Jul-22 23:33N 22°51' E 113°34'53806.4
2016-Jul-22 23:33N 22°56' E 113°36'25518726.1
2016-Jul-22 23:32N 24°24' E 117°57'46316196.5
2016-Jul-22 23:30N 31°30' E 121°24'0 1.6
2016-Jul-22 23:13N 31°30' E 121°24'461702.4
2016-Jul-22 22:33N 24°25' E 118°04'4619162.7
2016-Jul-22 22:30N 31°30' E 121°24'055.3
2016-Jul-22 22:30N 31°30' E 121°24'46323832.3
2016-Jul-22 22:29N 24°24' E 117°57'2557168.6
2016-Jul-22 22:27N 22°56' E 113°36'6599637.9
2016-Jul-22 22:22N 31°21' E 121°31'455556.4
2016-Jul-22 21:33N 24°25' E 118°04'7227.8
2016-Jul-22 21:32N 24°24' E 117°57'46039462.6
2016-Jul-22 21:31N 31°24' E 121°31'5395.6
2016-Jul-22 21:30N 31°21' E 121°26'9105.6
2016-Jul-22 21:25N 31°30' E 121°24'019.8
2016-Jul-22 21:24N 31°30' E 121°24'17639.2
2016-Jul-22 21:22N 31°22' E 121°41'665299179.6
2016-Jul-22 21:22N 22°56' E 113°36'6596683.6
2016-Jul-22 21:16N 31°26' E 121°25'6565216.4
2016-Jul-22 21:08N 23°04' E 113°29'264454.7
2016-Jul-22 20:34N 24°25' E 118°04'7207.9
2016-Jul-22 20:32N 24°24' E 117°57'459150296.3
2016-Jul-22 20:31N 31°23' E 121°30'659148377.0
2016-Jul-22 20:31N 22°56' E 113°36'66345000.3
2016-Jul-22 20:30N 31°25' E 121°33'9100.1
2016-Jul-22 20:25N 31°30' E 121°24'69692822.5
2016-Jul-22 20:24N 22°11' E 113°39'69638568.2
2016-Jul-22 20:23N 31°30' E 121°24'461552.3
2016-Jul-22 19:33N 24°25' E 118°04'2613024.3
2016-Jul-22 19:28N 22°56' E 113°36'66128004.4
2016-Jul-22 19:27N 31°30' E 121°24'1994.5
2016-Jul-22 19:15N 31°43' E 121°08'536.4
2016-Jul-22 19:07N 31°41' E 121°12'466827.1
2016-Jul-22 18:33N 24°25' E 118°04'26129392.8
2016-Jul-22 18:33N 22°56' E 113°36'661793306.0
2016-Jul-22 18:33N 31°32' E 121°20'43374.7
2016-Jul-22 18:33N 31°30' E 121°24'10986.2
2016-Jul-22 18:32N 31°37' E 121°16'4256.9
2016-Jul-22 18:31N 31°40' E 121°12'46910754.5
2016-Jul-22 18:29N 24°24' E 117°57'2586823.2
2016-Jul-22 18:26N 23°04' E 113°29'658197505.4
2016-Jul-22 18:26N 31°24' E 121°30'1265.9
2016-Jul-22 18:16N 31°13' E 121°30'447638.6
2016-Jul-22 17:34N 24°25' E 118°04'46210796.5
2016-Jul-22 17:31N 31°32' E 121°23'5319.0
2016-Jul-22 17:30N 31°35' E 121°18'71077.8
2016-Jul-22 17:30N 31°30' E 121°24'0 3.4
2016-Jul-22 17:22N 31°30' E 121°23'972133.8
2016-Jul-22 17:19N 29°58' E 121°59'98128.5
2016-Jul-22 16:34N 31°31' E 121°24'462830716.2
2016-Jul-22 16:33N 24°25' E 118°04'39574914.9
2016-Jul-22 16:33N 29°55' E 122°07'1111229.5
2016-Jul-22 16:28N 31°37' E 121°16'1033.1
2016-Jul-22 16:10N 31°30' E 121°24'0 8.1
2016-Jul-22 16:07N 31°30' E 121°23'461830.9
2016-Jul-22 15:33N 24°25' E 118°04'45815402.8
2016-Jul-22 15:32N 31°24' E 121°30'1049338.8
2016-Jul-22 15:31N 29°45' E 122°03'9910175.5
2016-Jul-22 15:30N 31°21' E 121°38'151117.0
2016-Jul-22 15:30N 31°30' E 121°24'16684.8
2016-Jul-22 15:28N 31°41' E 121°10'66255450.0
2016-Jul-22 15:28N 22°56' E 113°36'66213771.8
2016-Jul-22 15:25N 31°26' E 121°30'5189.2
2016-Jul-22 15:23N 31°21' E 121°30'656124299.1
2016-Jul-22 15:23N 23°04' E 113°29'6592340.7
2016-Jul-22 15:06N 31°30' E 121°24'114210.0
2016-Jul-22 14:33N 29°42' E 122°04'383229698.8
2016-Jul-22 14:33N 24°25' E 118°04'261188114.0
2016-Jul-22 14:33N 22°56' E 113°36'66252929.0
2016-Jul-22 14:32N 31°25' E 121°31'65919606.3
2016-Jul-22 14:30N 23°04' E 113°29'65867727.4
2016-Jul-22 14:30N 31°30' E 121°24'6598912.9
2016-Jul-22 14:25N 23°04' E 113°29'6394886.9
2016-Jul-22 14:18N 32°03' E 119°57'902013.5
2016-Jul-22 14:15N 31°25' E 121°33'459665.5
2016-Jul-22 13:33N 24°25' E 118°04'460552471.6
2016-Jul-22 13:33N 31°30' E 121°23'10575.0
2016-Jul-22 13:32N 31°25' E 121°33'3112.7
2016-Jul-22 13:31N 31°26' E 121°29'6611190277.6
2016-Jul-22 13:31N 22°56' E 113°36'61455239.2
2016-Jul-22 13:30N 29°47' E 122°04'1084237.1
2016-Jul-22 13:29N 31°30' E 121°24'652.0
2016-Jul-22 13:22N 31°26' E 121°29'741.4
2016-Jul-22 13:12N 31°21' E 121°24'3 3.9
2016-Jul-22 12:33N 31°21' E 121°27'1917079.8
2016-Jul-22 12:33N 31°37' E 121°15'465836289.5
2016-Jul-22 12:33N 24°25' E 118°04'394236372.9
2016-Jul-22 12:33N 29°53' E 122°08'1033378.2
2016-Jul-22 12:31N 31°29' E 121°25'117.0
2016-Jul-22 12:26N 31°30' E 121°23'66111779.6
2016-Jul-22 12:23N 22°56' E 113°36'102961.6
2016-Jul-22 12:23N 23°04' E 113°29'6626587.6
2016-Jul-22 12:17N 31°22' E 121°41'17580.2
2016-Jul-22 12:15N 31°30' E 121°24'461665.8
2016-Jul-22 11:33N 24°25' E 118°04'468280785.5
2016-Jul-22 11:33N 31°44' E 121°06'11842450.6
2016-Jul-22 11:33N 29°56' E 122°00'10221578.1
2016-Jul-22 11:33N 31°32' E 121°21'41266.3
2016-Jul-22 11:33N 31°30' E 121°24'65991186.3
2016-Jul-22 11:32N 23°04' E 113°29'10223.5
2016-Jul-22 11:30N 22°56' E 113°36'66135007.5
2016-Jul-22 11:28N 31°24' E 121°31'9190.9
2016-Jul-22 11:26N 31°22' E 121°41'883.3
2016-Jul-22 11:20N 31°25' E 121°33'67311109.4
2016-Jul-22 11:16N 22°58' E 113°16'65261757.1
2016-Jul-22 11:16N 31°57' E 120°08'6408344.8
2016-Jul-22 11:11N 23°04' E 113°29'65938244.1
2016-Jul-22 11:10N 31°30' E 121°24'6636917.7
2016-Jul-22 11:04N 22°55' E 113°34'66246738.0
2016-Jul-22 11:03N 31°26' E 121°28'458917.1
2016-Jul-22 10:34N 24°25' E 118°04'46031272.8
2016-Jul-22 10:33N 31°30' E 121°24'93115.5
2016-Jul-22 10:32N 31°36' E 121°17'65953938.4
2016-Jul-22 10:32N 23°04' E 113°29'64288856.0
2016-Jul-22 10:31N 31°57' E 120°13'6619681.5
2016-Jul-22 10:31N 31°30' E 121°24'611034.4
2016-Jul-22 10:31N 31°26' E 121°28'12304.5
2016-Jul-22 10:29N 31°22' E 121°41'66542738.8
2016-Jul-22 10:28N 22°56' E 113°36'6632385015.3
2016-Jul-22 10:28N 31°25' E 121°33'67545868.8
2016-Jul-22 10:27N 22°54' E 113°16'16789.8
2016-Jul-22 10:26N 23°04' E 113°29'661758.6
2016-Jul-22 09:33N 31°20' E 121°41'458137331.6
2016-Jul-22 09:33N 24°25' E 118°04'46072019.3
2016-Jul-22 09:33N 31°30' E 121°24'1459.4
2016-Jul-22 09:33N 31°30' E 121°24'66168028.0
2016-Jul-22 09:32N 22°56' E 113°36'66213704.3
2016-Jul-22 09:29N 31°40' E 121°12'24225.2
2016-Jul-22 09:23N 31°21' E 121°31'10782.5
2016-Jul-22 09:22N 31°30' E 121°24'621026.7
2016-Jul-22 09:18N 31°60' E 120°20'712207.2
2016-Jul-22 09:17N 31°25' E 121°33'6779483.0
2016-Jul-22 09:12N 22°49' E 113°20'277424.0
2016-Jul-22 08:33N 24°25' E 118°04'26113831.9
2016-Jul-22 08:32N 22°56' E 113°36'66121640.8
2016-Jul-22 08:30N 31°30' E 121°24'4255.2
2016-Jul-22 08:29N 31°32' E 121°19'443.1
2016-Jul-22 08:24N 31°30' E 121°23'18465.1
2016-Jul-22 08:21N 31°42' E 121°08'467581.7
2016-Jul-22 07:33N 24°25' E 118°04'46136878.0
2016-Jul-22 07:33N 31°32' E 121°19'4262.4
2016-Jul-22 07:32N 31°30' E 121°24'15397.8
2016-Jul-22 07:29N 31°18' E 121°33'65813686.2
2016-Jul-22 07:27N 22°56' E 113°36'6619600.4
2016-Jul-22 07:22N 31°30' E 121°23'1618.8
2016-Jul-22 06:32N 31°21' E 121°38'663265291.6
2016-Jul-22 06:32N 22°56' E 113°36'261131.8
2016-Jul-22 04:33N 24°25' E 118°04'461331705.4
2016-Jul-22 04:33N 31°30' E 121°23'6410924.2
2016-Jul-22 04:33N 31°56' E 120°15'645094.9
2016-Jul-22 04:32N 31°30' E 121°23'661237900.5
2016-Jul-22 04:32N 22°56' E 113°36'64423188.0
2016-Jul-22 04:30N 31°57' E 120°10'6417414.4
2016-Jul-22 04:25N 23°04' E 113°29'65915198.7
2016-Jul-22 04:22N 31°25' E 121°30'7113.0
2016-Jul-22 04:19N 31°30' E 121°24'968.2
2016-Jul-22 04:11N 31°25' E 121°33'459738.4
2016-Jul-22 03:34N 24°25' E 118°04'46030133.9
2016-Jul-22 03:33N 31°30' E 121°24'680.2
2016-Jul-22 03:28N 31°26' E 121°28'66113595.4
2016-Jul-22 03:26N 22°56' E 113°36'10226.9
2016-Jul-22 03:23N 23°04' E 113°29'65918819.2
2016-Jul-22 03:21N 31°30' E 121°24'114898.8
2016-Jul-22 03:21N 31°21' E 121°31'4103.3
2016-Jul-22 03:18N 31°25' E 121°33'46377.8
2016-Jul-22 03:11N 31°55' E 120°52'475761.4
2016-Jul-22 02:34N 24°25' E 118°04'46133169.9
2016-Jul-22 02:33N 31°30' E 121°24'66135014.7
2016-Jul-22 02:32N 22°56' E 113°36'1036536.8
2016-Jul-22 02:32N 23°04' E 113°29'019.0
2016-Jul-22 02:31N 23°04' E 113°29'66355474.7
2016-Jul-22 02:30N 31°60' E 120°49'291339.6
2016-Jul-22 02:29N 31°57' E 120°15'65116870.8
2016-Jul-22 02:26N 22°54' E 113°29'66896180.3
2016-Jul-22 02:26N 31°25' E 121°33'702186.9
2016-Jul-22 02:24N 31°59' E 120°21'66338.5
2016-Jul-22 02:12N 31°26' E 121°28'458706.5
2016-Jul-22 01:33N 24°25' E 118°04'46040425.8
2016-Jul-22 01:33N 31°30' E 121°24'4857504.6
2016-Jul-22 01:33N 31°60' E 120°40'615088.8
2016-Jul-22 01:32N 31°22' E 121°36'662238354.3
2016-Jul-22 01:32N 22°56' E 113°36'10808.1
2016-Jul-22 01:31N 23°04' E 113°29'64154925.4
2016-Jul-22 01:30N 31°56' E 120°12'655.9
2016-Jul-22 01:24N 31°58' E 120°18'712006.3
2016-Jul-22 01:22N 31°25' E 121°33'959.5
2016-Jul-22 01:13N 31°30' E 121°24'141015.4
2016-Jul-22 01:12N 31°23' E 121°38'459717.8
2016-Jul-22 00:34N 24°25' E 118°04'460150668.0
2016-Jul-22 00:33N 31°30' E 121°23'66116077.3
2016-Jul-22 00:31N 22°56' E 113°36'65327980.4
2016-Jul-22 00:29N 32°01' E 120°22'753507.9
2016-Jul-22 00:28N 31°23' E 121°38'221.8
2016-Jul-22 00:23N 31°22' E 121°36'7147.8
2016-Jul-22 00:20N 31°26' E 121°28'6584617.5
2016-Jul-22 00:11N 23°04' E 113°29'6591045.8
2016-Jul-21 23:33N 31°34' E 121°18'463138782.4
2016-Jul-21 23:33N 24°25' E 118°04'46130712.9
2016-Jul-21 23:32N 31°30' E 121°24'66176806.3
2016-Jul-21 23:32N 22°56' E 113°36'6644999.7
2016-Jul-21 23:24N 31°23' E 121°38'66164353.1
2016-Jul-21 23:23N 23°04' E 113°29'64915379.9
2016-Jul-21 23:21N 32°00' E 120°23'5296.2
2016-Jul-21 23:20N 32°04' E 120°27'691436.3
2016-Jul-21 23:17N 31°21' E 121°31'455629.3
2016-Jul-21 22:33N 24°25' E 118°04'465186175.5
2016-Jul-21 22:33N 31°39' E 121°14'12531.4
2016-Jul-21 22:32N 31°30' E 121°23'659182386.8
2016-Jul-21 22:32N 23°04' E 113°29'64423904.3
2016-Jul-21 22:30N 31°57' E 120°17'721011.2
2016-Jul-21 22:26N 31°25' E 121°33'66239098.3
2016-Jul-21 22:25N 22°56' E 113°36'6646946.8
2016-Jul-21 22:19N 31°23' E 121°38'6613064.3
2016-Jul-21 22:06N 23°04' E 113°29'65512961.3
2016-Jul-21 22:03N 31°18' E 121°33'453915.3
2016-Jul-21 21:33N 24°25' E 118°04'46541847.2
2016-Jul-21 21:33N 31°56' E 120°12'641288435.2
2016-Jul-21 21:33N 23°03' E 113°31'65416019.5
2016-Jul-21 21:30N 32°03' E 120°26'682864.1
2016-Jul-21 21:29N 31°25' E 121°33'6624640.1
2016-Jul-21 21:20N 22°56' E 113°36'65822987.4
2016-Jul-21 21:18N 31°18' E 121°33'657.5
2016-Jul-21 21:12N 31°23' E 121°38'60401.9
2016-Jul-21 21:03N 32°01' E 120°43'477968.4
2016-Jul-21 20:34N 24°25' E 118°04'4594977.0
2016-Jul-21 20:28N 31°25' E 121°33'71046.8
2016-Jul-21 20:28N 31°18' E 121°33'657.9
2016-Jul-21 20:21N 31°23' E 121°38'66889011.3
2016-Jul-21 20:21N 22°55' E 113°30'64589350.0
2016-Jul-21 20:20N 31°57' E 120°06'711187.9
2016-Jul-21 20:17N 31°30' E 121°23'6613396.4
2016-Jul-21 20:05N 22°56' E 113°36'261495.0
2016-Jul-21 19:34N 24°25' E 118°04'45916691.2
2016-Jul-21 19:32N 31°25' E 121°33'9465.0
2016-Jul-21 19:31N 31°30' E 121°23'66126752.4
2016-Jul-21 19:29N 22°56' E 113°36'6625082.2
2016-Jul-21 19:21N 31°22' E 121°36'534661.3
2016-Jul-21 18:33N 22°33' E 120°17'16515635.4
2016-Jul-21 18:32N 24°25' E 118°04'45978688.0
2016-Jul-21 18:32N 31°25' E 121°33'93080.3
2016-Jul-21 18:32N 31°30' E 121°23'66115360.7
2016-Jul-21 18:29N 22°56' E 113°36'6665113.1
2016-Jul-21 18:21N 31°60' E 120°50'478597.6
2016-Jul-21 17:33N 24°25' E 118°04'45913219.6
2016-Jul-21 17:31N 31°25' E 121°33'663298135.0
2016-Jul-21 17:31N 22°56' E 113°36'6616434.9
2016-Jul-21 17:25N 31°30' E 121°23'661771.0
2016-Jul-21 16:34N 22°56' E 113°36'261188114.0
2016-Jul-21 16:33N 24°25' E 118°04'46712731.6
2016-Jul-21 16:31N 31°42' E 121°10'16219.5
2016-Jul-21 16:27N 31°30' E 121°23'373673.0
2016-Jul-21 16:26N 31°56' E 120°52'303731.1
2016-Jul-21 16:26N 31°35' E 121°18'1349.0
2016-Jul-21 16:10N 31°26' E 121°28'4114.4
2016-Jul-21 16:08N 31°25' E 121°33'459801.8
2016-Jul-21 15:34N 24°25' E 118°04'26438053.1
2016-Jul-21 15:33N 23°04' E 113°29'101044.4
2016-Jul-21 15:33N 22°56' E 113°36'66322301.0
2016-Jul-21 15:31N 31°38' E 121°15'1104568.5
2016-Jul-21 15:29N 29°56' E 122°03'1011303.4
2016-Jul-21 15:25N 31°30' E 121°23'9180.5
2016-Jul-21 15:22N 31°25' E 121°33'517.2
2016-Jul-21 15:04N 31°23' E 121°38'6372.5
2016-Jul-21 15:03N 31°24' E 121°31'457932.3
2016-Jul-21 14:33N 24°25' E 118°04'459103222.1
2016-Jul-21 14:33N 31°23' E 121°38'201696.3
2016-Jul-21 14:32N 31°35' E 121°19'6216.2
2016-Jul-21 14:31N 31°30' E 121°23'66150656.2
2016-Jul-21 14:30N 22°56' E 113°36'61563259.5
2016-Jul-21 14:29N 29°48' E 122°05'6147128.5
2016-Jul-21 14:24N 23°04' E 113°29'659779.5
2016-Jul-21 13:33N 31°32' E 121°22'462207756.6
2016-Jul-21 13:33N 24°25' E 118°04'384690572.3
2016-Jul-21 13:33N 29°41' E 122°07'1071221.3
2016-Jul-21 13:28N 31°24' E 121°31'65840155.3
2016-Jul-21 13:27N 23°04' E 113°29'10247.1
2016-Jul-21 13:25N 22°56' E 113°36'66214712.2
2016-Jul-21 13:22N 31°22' E 121°35'13397.5
2016-Jul-21 13:20N 31°30' E 121°23'5364359.7
2016-Jul-21 13:13N 22°37' E 120°17'53210404.7
2016-Jul-21 13:09N 31°25' E 121°31'458764.1
2016-Jul-21 12:33N 24°25' E 118°04'26116796.0
2016-Jul-21 12:33N 22°56' E 113°36'661103534.5
2016-Jul-21 12:32N 31°28' E 121°27'3196.3
2016-Jul-21 12:31N 31°30' E 121°23'020.6
2016-Jul-21 12:30N 31°31' E 121°23'592246.7
2016-Jul-21 12:28N 32°01' E 120°24'9417.1
2016-Jul-21 12:27N 32°02' E 120°35'611246.4
2016-Jul-21 12:24N 31°22' E 121°30'5306.9
2016-Jul-21 12:23N 31°22' E 121°35'1001864.2
2016-Jul-21 12:20N 29°45' E 122°03'43812525.8
2016-Jul-21 12:18N 22°37' E 120°17'539728.3
2016-Jul-21 11:33N 31°33' E 121°20'46257303.9
2016-Jul-21 11:33N 24°25' E 118°04'46121000.9
2016-Jul-21 11:32N 31°31' E 121°23'132033.2
2016-Jul-21 11:31N 31°22' E 121°35'5142.7
2016-Jul-21 11:29N 31°22' E 121°30'708740.5
2016-Jul-21 11:29N 31°57' E 120°18'50360.0
2016-Jul-21 11:21N 31°39' E 121°13'65927280.8
2016-Jul-21 11:19N 23°04' E 113°29'65927254.0
2016-Jul-21 11:18N 31°30' E 121°24'471920.4
2016-Jul-21 11:16N 32°00' E 120°40'56463411.0
2016-Jul-21 11:16N 22°37' E 120°17'44731551.1
2016-Jul-21 11:15N 29°53' E 122°08'941667.3
2016-Jul-21 11:11N 31°22' E 121°36'457721.6
2016-Jul-21 10:33N 24°25' E 118°04'393202031.1
2016-Jul-21 10:33N 29°55' E 122°03'15455319.2
2016-Jul-21 10:33N 31°56' E 120°12'542083.6
2016-Jul-21 10:32N 31°39' E 121°13'13964.6
2016-Jul-21 10:31N 31°30' E 121°24'026.3
2016-Jul-21 10:30N 31°31' E 121°23'124645.9
2016-Jul-21 10:30N 31°39' E 121°13'18695.3
2016-Jul-21 10:28N 31°26' E 121°28'5327428.6
2016-Jul-21 10:24N 22°37' E 120°17'53041477.3
2016-Jul-21 10:23N 31°22' E 121°35'550.4
2016-Jul-21 10:18N 31°22' E 121°30'455615.2
2016-Jul-21 09:33N 24°25' E 118°04'16218173.9
2016-Jul-21 09:33N 22°34' E 120°13'547393989.6
2016-Jul-21 09:33N 31°39' E 121°13'131412.6
2016-Jul-21 09:32N 31°30' E 121°23'0133.6
2016-Jul-21 09:32N 31°31' E 121°23'101739.6
2016-Jul-21 09:32N 31°22' E 121°30'5111.4
2016-Jul-21 09:29N 31°22' E 121°35'66215680.0
2016-Jul-21 09:27N 22°56' E 113°36'6424926.9
2016-Jul-21 09:19N 31°57' E 120°05'601051.8
2016-Jul-21 09:15N 31°39' E 121°13'65971918.9
2016-Jul-21 09:15N 23°04' E 113°29'63932393.6
2016-Jul-21 09:14N 31°58' E 120°05'85667.3
2016-Jul-21 09:06N 31°18' E 121°33'453832.4
2016-Jul-21 08:33N 24°25' E 118°04'460183813.2
2016-Jul-21 08:33N 31°28' E 121°25'2321.6
2016-Jul-21 08:33N 31°30' E 121°24'13901.5
2016-Jul-21 08:32N 31°22' E 121°36'26303.9
2016-Jul-21 08:27N 31°39' E 121°13'6627665.5
2016-Jul-21 08:22N 22°56' E 113°36'6613654.3
2016-Jul-21 08:11N 31°47' E 120°58'15434.4
2016-Jul-21 08:09N 31°39' E 121°13'22315.0
2016-Jul-21 08:04N 31°22' E 121°30'455884.8
2016-Jul-21 07:33N 24°25' E 118°04'2647610.3
2016-Jul-21 07:31N 23°04' E 113°29'6582370503.3
2016-Jul-21 07:31N 31°24' E 121°31'7667.9
2016-Jul-21 07:31N 31°28' E 121°25'7299.1
2016-Jul-21 07:29N 31°22' E 121°30'324144.1
2016-Jul-21 07:29N 31°46' E 121°04'66317293.6
2016-Jul-21 07:27N 22°56' E 113°36'6616523.1
2016-Jul-21 07:20N 31°30' E 121°23'659841.7
2016-Jul-21 06:33N 23°04' E 113°29'264118910.6
2016-Jul-21 06:33N 24°25' E 118°04'46676326.4
2016-Jul-21 06:33N 31°41' E 121°12'283.1
2016-Jul-21 06:32N 31°39' E 121°13'12641.1
2016-Jul-21 06:30N 31°30' E 121°23'13672.6
2016-Jul-21 06:29N 31°22' E 121°35'6627334.0
2016-Jul-21 06:24N 22°56' E 113°36'6614895.7
2016-Jul-21 06:16N 31°28' E 121°25'261118.2
2016-Jul-21 06:14N 31°46' E 121°04'3450.1
2016-Jul-21 05:34N 31°24' E 121°34'459137661.2
2016-Jul-21 05:33N 24°25' E 118°04'463833629.4
2016-Jul-21 05:33N 31°34' E 121°20'8579.4
2016-Jul-21 05:32N 31°28' E 121°25'213561.3
2016-Jul-21 05:32N 31°43' E 121°08'6139.9
2016-Jul-21 05:30N 31°39' E 121°13'12831.3
2016-Jul-21 05:29N 31°30' E 121°23'461500.0
2016-Jul-21 04:33N 24°25' E 118°04'46583653.5
2016-Jul-21 04:33N 31°37' E 121°16'32319.5
2016-Jul-21 04:33N 31°39' E 121°14'1527521.8
2016-Jul-21 04:33N 31°31' E 121°29'10347.5
2016-Jul-21 04:31N 31°35' E 121°19'66315811.2
2016-Jul-21 04:29N 23°03' E 113°25'12364.7
2016-Jul-21 04:27N 22°56' E 113°36'66314288.0
2016-Jul-21 04:24N 31°24' E 121°34'11152.1
2016-Jul-21 04:20N 31°30' E 121°23'314.1
2016-Jul-21 04:09N 31°28' E 121°25'16262.7
2016-Jul-21 04:05N 31°40' E 121°13'2313586.7
2016-Jul-21 04:05N 31°22' E 121°29'1222.1
2016-Jul-21 03:34N 31°32' E 121°22'462415699.3
2016-Jul-21 03:33N 24°25' E 118°04'46398055.6
2016-Jul-21 03:33N 31°34' E 121°19'16703.3
2016-Jul-21 03:32N 31°23' E 121°33'1120.2
2016-Jul-21 03:31N 31°24' E 121°34'31108.3
2016-Jul-21 03:31N 31°22' E 121°36'66614717.3
2016-Jul-21 03:28N 23°03' E 113°20'6647789.1
2016-Jul-21 03:23N 31°26' E 121°28'4153.1
2016-Jul-21 03:22N 31°28' E 121°25'9265.7
2016-Jul-21 03:20N 31°21' E 121°31'65925773.7
2016-Jul-21 03:18N 22°56' E 113°36'66115663.7
2016-Jul-21 03:16N 31°30' E 121°23'66592065.7
2016-Jul-21 03:15N 23°03' E 113°20'6664538.3
2016-Jul-21 03:06N 31°39' E 121°14'1220.9
2016-Jul-21 02:33N 31°31' E 121°24'1035187.0
2016-Jul-21 02:33N 31°23' E 121°30'662132433.3
2016-Jul-21 02:33N 23°02' E 113°24'270121410.1
2016-Jul-21 02:33N 24°25' E 118°04'261188114.0
2016-Jul-21 02:33N 22°56' E 113°36'121327.5
2016-Jul-21 02:32N 23°05' E 113°26'66138384.7
2016-Jul-21 02:31N 31°28' E 121°28'2330.7
2016-Jul-21 02:31N 31°28' E 121°25'2733.2
2016-Jul-21 02:31N 31°30' E 121°23'916219.8
2016-Jul-21 02:31N 31°24' E 121°31'8570.1
2016-Jul-21 02:30N 31°22' E 121°41'630.8
2016-Jul-21 02:18N 31°24' E 121°34'459615.7
2016-Jul-21 01:34N 24°25' E 118°04'45922629.0
2016-Jul-21 01:32N 31°24' E 121°34'661339738.7
2016-Jul-21 01:32N 23°05' E 113°28'659103165.1
2016-Jul-21 01:32N 31°29' E 121°25'5355.1
2016-Jul-21 01:31N 31°26' E 121°28'41814.4
2016-Jul-21 01:31N 31°24' E 121°32'66213311.8
2016-Jul-21 01:28N 22°56' E 113°36'661108150.6
2016-Jul-21 01:27N 31°28' E 121°25'6624302.6
2016-Jul-21 01:18N 22°57' E 113°33'3 3.8
2016-Jul-21 00:34N 22°56' E 113°36'261235142.5
2016-Jul-21 00:33N 24°25' E 118°04'45560655.1
2016-Jul-21 00:33N 31°20' E 121°33'12701.7
2016-Jul-21 00:32N 31°29' E 121°25'10348.1
2016-Jul-21 00:30N 31°24' E 121°34'15208.6
2016-Jul-21 00:26N 31°33' E 121°20'1065.5
2016-Jul-21 00:17N 31°26' E 121°28'458632.3
2016-Jul-20 23:33N 24°25' E 118°04'46021209.2
2016-Jul-20 23:32N 31°28' E 121°25'9312.0
2016-Jul-20 23:30N 31°24' E 121°34'66370181.5
2016-Jul-20 23:30N 22°56' E 113°36'661238098.0
2016-Jul-20 23:30N 31°30' E 121°24'618.9
2016-Jul-20 23:10N 31°26' E 121°28'458748.9
2016-Jul-20 22:33N 24°25' E 118°04'26162704.7
2016-Jul-20 22:33N 22°56' E 113°36'663183557.8
2016-Jul-20 22:33N 31°24' E 121°34'10137.6
2016-Jul-20 22:29N 31°29' E 121°25'1 4.2
2016-Jul-20 22:11N 31°28' E 121°25'460731.0
2016-Jul-20 21:33N 24°25' E 118°04'459137664.5
2016-Jul-20 21:33N 31°24' E 121°34'994.9
2016-Jul-20 21:28N 31°28' E 121°25'171320.4
2016-Jul-20 21:27N 31°21' E 121°44'18933.4
2016-Jul-20 21:26N 31°29' E 121°25'1 5.3
2016-Jul-20 21:11N 31°30' E 121°23'1117.2
2016-Jul-20 20:33N 31°24' E 121°34'51543.7
2016-Jul-20 20:33N 31°26' E 121°28'45844567.3
2016-Jul-20 20:32N 24°25' E 118°04'4609693.1
2016-Jul-20 20:29N 31°29' E 121°25'162.9
2016-Jul-20 20:28N 31°28' E 121°25'66111663.3
2016-Jul-20 20:25N 22°56' E 113°36'66113683.9
2016-Jul-20 20:22N 31°30' E 121°24'19116.8
2016-Jul-20 20:12N 31°21' E 121°44'460694.6
2016-Jul-20 19:32N 24°25' E 118°04'46111360.0
2016-Jul-20 19:30N 31°30' E 121°24'157.9
2016-Jul-20 19:29N 31°30' E 121°25'10425.8
2016-Jul-20 19:27N 31°24' E 121°34'598.0
2016-Jul-20 19:24N 31°26' E 121°28'6616050.8
2016-Jul-20 19:18N 22°56' E 113°36'261356.3
2016-Jul-20 18:34N 24°25' E 118°04'46055213.6
2016-Jul-20 18:33N 31°29' E 121°25'23553.1
2016-Jul-20 18:33N 31°30' E 121°23'661297618.9
2016-Jul-20 18:33N 22°56' E 113°36'6615432.7
2016-Jul-20 18:26N 31°29' E 121°25'18959.7
2016-Jul-20 18:24N 31°21' E 121°44'958.7
2016-Jul-20 18:15N 31°18' E 121°33'453658.1
2016-Jul-20 17:33N 24°25' E 118°04'46015344.4
2016-Jul-20 17:32N 31°29' E 121°25'66185034.3
2016-Jul-20 17:31N 22°56' E 113°36'66176749.7
2016-Jul-20 17:31N 31°28' E 121°25'2211.9
2016-Jul-20 17:30N 31°30' E 121°23'15906.3
2016-Jul-20 17:29N 31°18' E 121°33'37855.9
2016-Jul-20 17:26N 31°46' E 121°05'331944.9
2016-Jul-20 17:25N 31°24' E 121°34'459527.8
2016-Jul-20 16:33N 24°25' E 118°04'46713225.4
2016-Jul-20 16:31N 31°41' E 121°11'66370178.1
2016-Jul-20 16:31N 22°56' E 113°36'658197312.8
2016-Jul-20 16:30N 31°18' E 121°33'13494.6
2016-Jul-20 16:29N 31°28' E 121°25'3115.8
2016-Jul-20 16:27N 31°30' E 121°23'6841.7
2016-Jul-20 16:27N 31°26' E 121°28'146241.2
2016-Jul-20 16:27N 31°21' E 121°44'9178.6
2016-Jul-20 16:24N 31°24' E 121°34'10264.6
2016-Jul-20 16:22N 31°29' E 121°25'460571.6
2016-Jul-20 15:33N 24°25' E 118°04'26126873.4
2016-Jul-20 15:33N 22°56' E 113°36'66191573.2
2016-Jul-20 15:32N 31°30' E 121°23'171067.9
2016-Jul-20 15:31N 31°14' E 121°29'2414427.4
2016-Jul-20 15:31N 31°36' E 121°17'92654.9
2016-Jul-20 15:31N 31°29' E 121°25'561.3
2016-Jul-20 15:26N 31°26' E 121°28'9572.5
2016-Jul-20 15:25N 31°18' E 121°33'131749.3
2016-Jul-20 15:25N 31°28' E 121°25'17368.4
2016-Jul-20 15:22N 31°21' E 121°44'460568.1
2016-Jul-20 14:34N 24°25' E 118°04'46024025.1
2016-Jul-20 14:32N 31°30' E 121°23'961754.6
2016-Jul-20 14:29N 29°59' E 121°56'9548990.0
2016-Jul-20 14:29N 31°30' E 121°23'2442.5
2016-Jul-20 14:29N 31°29' E 121°25'661297461.4
2016-Jul-20 14:29N 22°56' E 113°36'661216458.1
2016-Jul-20 14:28N 31°29' E 121°25'10133.9
2016-Jul-20 14:24N 31°24' E 121°34'593.5
2016-Jul-20 14:21N 31°20' E 121°33'90112.6
2016-Jul-20 13:33N 29°55' E 122°07'621203193.3
2016-Jul-20 13:33N 22°56' E 113°36'261104507.8
2016-Jul-20 13:33N 24°25' E 118°04'46029541.4
2016-Jul-20 13:32N 31°28' E 121°25'2202.0
2016-Jul-20 13:31N 31°30' E 121°24'1923275.4
2016-Jul-20 13:31N 31°21' E 121°44'14648.4
2016-Jul-20 13:30N 31°26' E 121°28'3413.0
2016-Jul-20 13:30N 31°22' E 121°30'8164.9
2016-Jul-20 13:27N 31°29' E 121°25'8494.2
2016-Jul-20 13:26N 31°24' E 121°32'8286.8
2016-Jul-20 13:24N 31°29' E 121°25'67921437.9
2016-Jul-20 13:22N 22°47' E 113°18'67521136.4
2016-Jul-20 13:20N 31°18' E 121°33'453583.4
2016-Jul-20 12:33N 24°25' E 118°04'26155328.1
2016-Jul-20 12:33N 22°56' E 113°36'66125601.0
2016-Jul-20 12:32N 31°28' E 121°26'181.0
2016-Jul-20 12:31N 31°29' E 121°25'1628972.9
2016-Jul-20 12:31N 31°14' E 121°30'13602.6
2016-Jul-20 12:29N 31°27' E 121°29'4793.0
2016-Jul-20 12:29N 31°29' E 121°25'239.7
2016-Jul-20 12:27N 31°30' E 121°24'6135.2
2016-Jul-20 12:24N 31°26' E 121°28'4214.1
2016-Jul-20 12:23N 31°28' E 121°25'1238.2
2016-Jul-20 12:04N 31°18' E 121°33'453906.5
2016-Jul-20 11:34N 24°25' E 118°04'46257372.7
2016-Jul-20 11:33N 31°33' E 121°19'66112336.8
2016-Jul-20 11:30N 22°56' E 113°36'666114219.9
2016-Jul-20 11:29N 31°21' E 121°44'10222988.7
2016-Jul-20 11:29N 29°41' E 122°07'114136988.8
2016-Jul-20 11:29N 31°29' E 121°25'5248.4
2016-Jul-20 11:28N 31°26' E 121°28'534.5
2016-Jul-20 11:20N 31°29' E 121°25'190.4
2016-Jul-20 11:19N 31°30' E 121°23'273.9
2016-Jul-20 11:17N 31°28' E 121°25'627.5
2016-Jul-20 11:04N 31°32' E 121°20'461918.4
2016-Jul-20 10:33N 24°25' E 118°04'16148419.7
2016-Jul-20 10:33N 22°32' E 120°10'54125288.5
2016-Jul-20 10:32N 31°28' E 121°25'1127061.7
2016-Jul-20 10:31N 29°42' E 122°05'11315062.2
2016-Jul-20 10:31N 31°29' E 121°25'1410079.9
2016-Jul-20 10:30N 31°39' E 121°13'141063.1
2016-Jul-20 10:30N 31°29' E 121°25'1097.7
2016-Jul-20 10:24N 31°36' E 121°17'69520.6
2016-Jul-20 10:16N 31°60' E 120°00'64219577.5
2016-Jul-20 10:14N 22°56' E 113°36'614916.1
2016-Jul-20 09:34N 29°48' E 122°04'12071961.0
2016-Jul-20 09:34N 31°39' E 121°13'2712043.6
2016-Jul-20 09:33N 31°19' E 121°33'454181490.2
2016-Jul-20 09:33N 24°25' E 118°04'46038536.0
2016-Jul-20 09:33N 31°29' E 121°25'16570.4
2016-Jul-20 09:31N 31°40' E 121°11'66256777.5
2016-Jul-20 09:30N 22°56' E 113°36'6627658.8
2016-Jul-20 09:25N 31°29' E 121°25'1674.1
2016-Jul-20 09:25N 31°30' E 121°24'2188.8
2016-Jul-20 09:24N 31°28' E 121°25'7160.9
2016-Jul-20 09:21N 31°22' E 121°30'81808.1
2016-Jul-20 09:15N 31°58' E 120°05'843070.4
2016-Jul-20 09:14N 31°20' E 121°33'7209.9
2016-Jul-20 09:12N 31°26' E 121°28'461103763.0
2016-Jul-20 09:11N 24°24' E 117°57'6 9.9
2016-Jul-20 08:33N 24°25' E 118°04'46055235.0
2016-Jul-20 08:33N 31°29' E 121°25'10672.6
2016-Jul-20 08:32N 31°21' E 121°31'9125222.0
2016-Jul-20 08:32N 29°55' E 122°06'62072008.3
2016-Jul-20 08:31N 22°56' E 113°36'65921559.5
2016-Jul-20 08:29N 31°21' E 121°31'101011.5
2016-Jul-20 08:29N 31°29' E 121°25'280.7
2016-Jul-20 08:28N 31°30' E 121°24'239.6
2016-Jul-20 08:24N 31°28' E 121°25'183409.4
2016-Jul-20 08:24N 31°41' E 121°10'35904.1
2016-Jul-20 08:21N 31°21' E 121°44'460573.8
2016-Jul-20 07:33N 24°25' E 118°04'26136175.8
2016-Jul-20 07:33N 22°56' E 113°36'66036018.2
2016-Jul-20 07:32N 31°24' E 121°31'095.4
2016-Jul-20 07:32N 31°23' E 121°30'899975.8
2016-Jul-20 07:31N 29°57' E 121°54'954479.9
2016-Jul-20 07:30N 31°28' E 121°25'12112.2
2016-Jul-20 07:30N 31°29' E 121°25'0 3.0
2016-Jul-20 07:25N 31°30' E 121°25'5244.4
2016-Jul-20 07:23N 31°26' E 121°28'19644.2
2016-Jul-20 07:22N 31°40' E 121°13'1351.5
2016-Jul-20 07:07N 31°30' E 121°23'461837.1
2016-Jul-20 06:34N 24°25' E 118°04'16320910.9
2016-Jul-20 06:33N 22°37' E 120°17'53664361.8
2016-Jul-20 06:33N 31°30' E 121°25'0 9.8
2016-Jul-20 06:31N 31°29' E 121°25'145617.9
2016-Jul-20 06:31N 31°40' E 121°13'153443.9
2016-Jul-20 06:31N 31°28' E 121°25'66115450.0
2016-Jul-20 06:28N 22°56' E 113°36'6582162.3
2016-Jul-20 06:10N 31°18' E 121°33'9547.2
2016-Jul-20 06:09N 31°26' E 121°28'670.8
2016-Jul-20 06:04N 31°30' E 121°23'461917.3
2016-Jul-20 05:34N 24°25' E 118°04'46141463.2
2016-Jul-20 05:33N 31°30' E 121°23'147.1
2016-Jul-20 05:31N 31°29' E 121°24'141517.1
2016-Jul-20 05:31N 31°40' E 121°13'333157.9
2016-Jul-20 05:30N 31°09' E 121°27'211892.8
2016-Jul-20 05:30N 31°29' E 121°25'66158072.2
2016-Jul-20 05:29N 22°56' E 113°36'6626943.8
2016-Jul-20 05:23N 31°30' E 121°25'460555.7
2016-Jul-20 04:33N 24°25' E 118°04'461414806.6
2016-Jul-20 04:33N 31°31' E 121°21'3321.4
2016-Jul-20 04:33N 31°29' E 121°25'14457.9
2016-Jul-20 04:31N 31°40' E 121°13'13848.4
2016-Jul-20 04:30N 31°30' E 121°23'1253.7
2016-Jul-20 04:30N 31°30' E 121°25'144.3
2016-Jul-20 04:28N 31°28' E 121°25'103573.1
2016-Jul-20 04:28N 31°21' E 121°32'65913331.3
2016-Jul-20 04:25N 22°56' E 113°36'666299827.1
2016-Jul-20 04:25N 31°21' E 121°44'67330675.1
2016-Jul-20 04:23N 22°55' E 113°26'26419415.5
2016-Jul-20 04:23N 24°24' E 117°57'450108096.0
2016-Jul-20 04:22N 31°13' E 121°30'3037.2
2016-Jul-20 03:33N 31°40' E 121°13'4661678061.9
2016-Jul-20 03:33N 24°25' E 118°04'4621664910.4
2016-Jul-20 03:33N 31°34' E 121°18'2219793.1
2016-Jul-20 03:33N 31°15' E 121°31'14377.3
2016-Jul-20 03:31N 31°28' E 121°25'344.2
2016-Jul-20 03:28N 31°30' E 121°23'61177.8
2016-Jul-20 03:27N 31°26' E 121°28'3527.2
2016-Jul-20 03:27N 31°24' E 121°31'862.3
2016-Jul-20 03:19N 31°29' E 121°25'14342.0
2016-Jul-20 03:17N 31°18' E 121°33'66212813.1
2016-Jul-20 03:14N 23°03' E 113°19'666266255.3
2016-Jul-20 03:14N 31°30' E 121°25'1059.6
2016-Jul-20 03:04N 31°21' E 121°31'455892.7
2016-Jul-20 02:33N 24°25' E 118°04'26950886.2
2016-Jul-20 02:33N 23°03' E 113°25'662216717.0
2016-Jul-20 02:33N 31°24' E 121°31'205100.9
2016-Jul-20 02:33N 31°38' E 121°14'2610396.9
2016-Jul-20 02:32N 31°18' E 121°34'141987.2
2016-Jul-20 02:32N 31°29' E 121°25'1282.2
2016-Jul-20 02:32N 31°28' E 121°25'91704.5
2016-Jul-20 02:31N 31°21' E 121°31'241550.5
2016-Jul-20 02:31N 31°40' E 121°13'131069.4
2016-Jul-20 02:30N 31°30' E 121°23'133.6
2016-Jul-20 02:28N 31°29' E 121°25'661119051.1
2016-Jul-20 02:27N 22°56' E 113°36'3652866.5
2016-Jul-20 02:20N 22°43' E 120°11'5273250.0
2016-Jul-20 02:10N 31°25' E 121°32'610.2
2016-Jul-20 01:33N 31°28' E 121°25'460275713.1
2016-Jul-20 01:33N 24°25' E 118°04'45540941.4
2016-Jul-20 01:33N 31°21' E 121°30'911288.6
2016-Jul-20 01:33N 31°29' E 121°25'142535.9
2016-Jul-20 01:32N 31°40' E 121°13'24861.2
2016-Jul-20 01:31N 31°21' E 121°31'142.5
2016-Jul-20 01:29N 31°21' E 121°32'65736932.6
2016-Jul-20 01:28N 23°03' E 113°30'658169301.3
2016-Jul-20 01:28N 31°31' E 121°22'3113.9
2016-Jul-20 01:27N 31°29' E 121°25'218.8
2016-Jul-20 01:22N 31°30' E 121°23'66144090.0
2016-Jul-20 01:21N 22°56' E 113°36'6492655.1
2016-Jul-20 01:06N 31°58' E 120°19'468856.7
2016-Jul-20 00:33N 24°25' E 118°04'46045952.7
2016-Jul-20 00:33N 31°28' E 121°25'658394834.1
2016-Jul-20 00:33N 23°04' E 113°30'656262558.6
2016-Jul-20 00:33N 31°23' E 121°30'8291.7
2016-Jul-20 00:31N 31°29' E 121°25'423394.5
2016-Jul-20 00:30N 31°59' E 120°49'28714.1
2016-Jul-20 00:28N 31°40' E 121°13'1425653.4
2016-Jul-20 00:28N 31°29' E 121°25'2129.1
2016-Jul-20 00:27N 31°30' E 121°23'9643.0
2016-Jul-20 00:26N 31°24' E 121°31'66124534.5
2016-Jul-20 00:25N 22°56' E 113°36'662216689.5
2016-Jul-20 00:24N 31°36' E 121°16'18441.5
2016-Jul-20 00:22N 31°25' E 121°32'349.3
2016-Jul-20 00:18N 31°21' E 121°31'83735.2
2016-Jul-20 00:11N 31°58' E 120°04'6298.8
2016-Jul-19 23:33N 31°40' E 121°13'148455.7
2016-Jul-19 23:33N 31°29' E 121°25'46066281.2
2016-Jul-19 23:33N 24°25' E 118°04'458137279.0
2016-Jul-19 23:33N 31°24' E 121°32'2212.2
2016-Jul-19 23:32N 31°22' E 121°30'65624599.4
2016-Jul-19 23:30N 23°04' E 113°30'104931.8
2016-Jul-19 23:30N 22°56' E 113°36'66115068.1
2016-Jul-19 23:28N 31°28' E 121°26'121310.4
2016-Jul-19 23:27N 31°18' E 121°33'14369.8
2016-Jul-19 23:25N 31°29' E 121°25'1256.6
2016-Jul-19 23:25N 31°28' E 121°25'216.7
2016-Jul-19 23:16N 31°30' E 121°23'691542.8
2016-Jul-19 23:13N 31°57' E 120°08'643976.6
2016-Jul-19 22:34N 22°56' E 113°36'26137622.8
2016-Jul-19 22:33N 24°25' E 118°04'46057043.9
2016-Jul-19 22:33N 31°28' E 121°27'659118540.0
2016-Jul-19 22:32N 23°04' E 113°30'641769260.8
2016-Jul-19 22:32N 31°57' E 120°12'6917641.8
2016-Jul-19 22:32N 31°28' E 121°25'1206.4
2016-Jul-19 22:32N 31°29' E 121°25'142332.1
2016-Jul-19 22:31N 31°40' E 121°13'235076.6
2016-Jul-19 22:31N 31°22' E 121°30'125.1
2016-Jul-19 22:28N 31°23' E 121°30'6227.3
2016-Jul-19 22:27N 31°18' E 121°33'141010.1
2016-Jul-19 22:26N 31°29' E 121°25'5381.3
2016-Jul-19 22:25N 31°32' E 121°20'23188.7
2016-Jul-19 22:18N 31°21' E 121°44'460623.2
2016-Jul-19 21:34N 24°25' E 118°04'466335594.6
2016-Jul-19 21:33N 31°40' E 121°13'112207.5
2016-Jul-19 21:33N 31°31' E 121°22'2425.6
2016-Jul-19 21:33N 31°30' E 121°23'2801.4
2016-Jul-19 21:33N 31°28' E 121°25'177756.4
2016-Jul-19 21:33N 31°21' E 121°44'18685.6
2016-Jul-19 21:31N 31°29' E 121°25'056.5
2016-Jul-19 21:31N 31°29' E 121°25'9519.0
2016-Jul-19 21:30N 31°22' E 121°30'513452.1
2016-Jul-19 21:29N 31°59' E 120°49'565441.8
2016-Jul-19 21:28N 31°18' E 121°33'65510433.7
2016-Jul-19 21:24N 23°04' E 113°30'65471327.2
2016-Jul-19 21:24N 31°21' E 121°27'65730305.4
2016-Jul-19 21:23N 22°56' E 113°36'6495868.9
2016-Jul-19 21:16N 31°58' E 120°18'6459255.5
2016-Jul-19 21:12N 23°04' E 113°29'6607683.7
2016-Jul-19 21:07N 31°39' E 121°14'1 1.9
2016-Jul-19 20:34N 31°40' E 121°13'466419493.3
2016-Jul-19 20:33N 24°25' E 118°04'455163897.7
2016-Jul-19 20:33N 31°22' E 121°30'9342.2
2016-Jul-19 20:32N 31°29' E 121°25'142137.4
2016-Jul-19 20:31N 31°18' E 121°33'8197230.7
2016-Jul-19 20:31N 31°57' E 120°10'708700.9
2016-Jul-19 20:31N 31°28' E 121°25'171939.1
2016-Jul-19 20:30N 31°21' E 121°44'664103875.2
2016-Jul-19 20:30N 23°04' E 113°30'13579.6
2016-Jul-19 20:29N 23°03' E 113°16'6672402246.2
2016-Jul-19 20:29N 31°36' E 121°17'8736.5
2016-Jul-19 20:28N 31°30' E 121°23'123.1
2016-Jul-19 20:25N 31°29' E 121°25'6599524.0
2016-Jul-19 20:20N 23°04' E 113°29'1036.4
2016-Jul-19 20:04N 22°56' E 113°36'261510.4
2016-Jul-19 19:33N 24°25' E 118°04'46667032.1
2016-Jul-19 19:33N 31°39' E 121°13'143010.0
2016-Jul-19 19:33N 31°29' E 121°25'14389.0
2016-Jul-19 19:31N 31°40' E 121°13'14163.7
2016-Jul-19 19:25N 31°29' E 121°25'124.9
2016-Jul-19 19:22N 31°30' E 121°23'46349069.4
2016-Jul-19 19:22N 24°24' E 117°57'260324.2
2016-Jul-19 18:34N 23°05' E 113°27'2583.1
2016-Jul-19 18:33N 23°04' E 113°29'264951009.8
2016-Jul-19 18:33N 24°25' E 118°04'467209951.4
2016-Jul-19 18:33N 31°42' E 121°09'3610750.7
2016-Jul-19 18:33N 31°21' E 121°44'186492.4
2016-Jul-19 18:33N 31°30' E 121°25'052.1
2016-Jul-19 18:32N 31°29' E 121°25'13137.5
2016-Jul-19 18:27N 31°38' E 121°14'66262728.6
2016-Jul-19 18:26N 22°56' E 113°36'66127687.2
2016-Jul-19 18:25N 31°29' E 121°25'213231.0
2016-Jul-19 18:24N 31°44' E 121°07'29231.9
2016-Jul-19 18:17N 31°22' E 121°30'45821991.0
2016-Jul-19 18:16N 24°24' E 117°57'456647.5
2016-Jul-19 17:33N 31°18' E 121°33'655294869.1
2016-Jul-19 17:33N 23°04' E 113°29'667141198.3
2016-Jul-19 17:33N 31°30' E 121°37'114295.3
2016-Jul-19 17:33N 31°29' E 121°25'1619090.2
2016-Jul-19 17:33N 31°41' E 121°12'165617.8
2016-Jul-19 17:33N 31°29' E 121°25'213925.7
2016-Jul-19 17:32N 31°43' E 121°07'66285108.6
2016-Jul-19 17:32N 22°59' E 113°31'662198453.5
2016-Jul-19 17:32N 31°30' E 121°25'133278.9
2016-Jul-19 17:31N 31°38' E 121°14'211336.8
2016-Jul-19 17:30N 31°22' E 121°30'65662141.8
2016-Jul-19 17:30N 23°04' E 113°30'10302.8
2016-Jul-19 17:28N 22°56' E 113°36'66145749.7
2016-Jul-19 17:27N 32°00' E 120°38'635272.1
2016-Jul-19 17:26N 31°18' E 121°33'15208.3
2016-Jul-19 17:22N 31°30' E 121°23'46466745.4
2016-Jul-19 17:22N 24°24' E 117°57'46793493.0
2016-Jul-19 17:21N 31°57' E 120°10'5771.1
2016-Jul-19 16:34N 31°39' E 121°13'465837640.2
2016-Jul-19 16:33N 24°25' E 118°04'46163790.3
2016-Jul-19 16:33N 31°30' E 121°23'65918102.0
2016-Jul-19 16:31N 23°04' E 113°29'655196580.7
2016-Jul-19 16:31N 31°18' E 121°33'010.2
2016-Jul-19 16:30N 31°18' E 121°33'66226480.7
2016-Jul-19 16:28N 22°52' E 113°34'51812.8
2016-Jul-19 16:28N 22°56' E 113°36'66239698.1
2016-Jul-19 16:27N 31°30' E 121°25'9762.1
2016-Jul-19 16:26N 31°22' E 121°30'12210.0
2016-Jul-19 16:23N 31°21' E 121°44'18665.4
2016-Jul-19 16:21N 31°29' E 121°25'862.3
2016-Jul-19 16:14N 31°35' E 121°19'463689.8
2016-Jul-19 15:33N 24°25' E 118°04'46133859.4
2016-Jul-19 15:33N 31°31' E 121°22'15854.3
2016-Jul-19 15:32N 31°42' E 121°09'18581.2
2016-Jul-19 15:30N 31°30' E 121°25'01135.1
2016-Jul-19 15:30N 31°29' E 121°25'1111.8
2016-Jul-19 15:29N 31°30' E 121°23'223.0
2016-Jul-19 15:25N 31°29' E 121°25'171612.9
2016-Jul-19 15:24N 31°42' E 121°10'52259.7
2016-Jul-19 15:12N 31°57' E 120°12'466721.2
2016-Jul-19 14:33N 24°25' E 118°04'46911397.3
2016-Jul-19 14:31N 31°46' E 121°03'24686.5
2016-Jul-19 14:29N 31°29' E 121°25'667160.2
2016-Jul-19 14:28N 31°57' E 120°14'647412.7
2016-Jul-19 14:28N 31°30' E 121°23'233.1
2016-Jul-19 14:24N 31°29' E 121°25'0136.8
2016-Jul-19 14:24N 31°30' E 121°25'95602.0
2016-Jul-19 14:14N 29°59' E 121°56'96948.9
2016-Jul-19 14:08N 31°30' E 121°23'461787.1
2016-Jul-19 13:33N 24°25' E 118°04'46019726.6
2016-Jul-19 13:32N 31°29' E 121°25'10018855.1
2016-Jul-19 13:31N 29°56' E 122°04'9110597.9
2016-Jul-19 13:31N 31°22' E 121°30'65930016.9
2016-Jul-19 13:30N 22°56' E 113°36'66254134.0
2016-Jul-19 13:29N 31°29' E 121°25'268.2
2016-Jul-19 13:27N 31°30' E 121°23'108121.4
2016-Jul-19 12:33N 29°48' E 122°05'10825965.8
2016-Jul-19 12:33N 31°30' E 121°23'1139.0
2016-Jul-19 12:33N 31°30' E 121°23'1796.6
2016-Jul-19 12:33N 31°29' E 121°25'460150640.8
2016-Jul-19 12:32N 24°25' E 118°04'46018617.9
2016-Jul-19 12:31N 31°29' E 121°25'0 2.7
2016-Jul-19 12:26N 31°29' E 121°25'678943.3
2016-Jul-19 12:26N 31°56' E 120°12'74206.1
2016-Jul-19 12:04N 31°23' E 121°31'815.2
2016-Jul-19 11:34N 31°29' E 121°25'460165710.9
2016-Jul-19 11:33N 24°25' E 118°04'3801.7
2016-Jul-19 11:33N 24°25' E 118°01'46120242.2
2016-Jul-19 11:32N 31°29' E 121°25'242.2
2016-Jul-19 11:30N 31°30' E 121°24'139.1
2016-Jul-19 11:28N 31°30' E 121°23'9162.4
2016-Jul-19 11:25N 31°25' E 121°31'7439.0
2016-Jul-19 11:24N 31°29' E 121°25'1143007.9
2016-Jul-19 11:22N 29°41' E 122°07'106131.2
2016-Jul-19 10:34N 31°21' E 121°30'111267.3
2016-Jul-19 10:33N 31°30' E 121°24'11523037.3
2016-Jul-19 10:33N 29°41' E 122°07'384125511.6
2016-Jul-19 10:33N 24°25' E 118°04'46669924.2
2016-Jul-19 10:32N 31°57' E 120°13'46752542.4
2016-Jul-19 10:32N 24°23' E 118°06'4617275.8
2016-Jul-19 10:28N 31°29' E 121°25'022.7
2016-Jul-19 10:27N 31°29' E 121°25'0557.7
2016-Jul-19 10:27N 31°29' E 121°25'43336.4
2016-Jul-19 10:19N 31°59' E 120°49'60306.6
2016-Jul-19 10:08N 31°21' E 121°44'460789.4
2016-Jul-19 09:33N 24°25' E 118°04'47785833.8
2016-Jul-19 09:32N 31°59' E 120°49'665108814.4
2016-Jul-19 09:32N 22°56' E 113°36'26355677.7
2016-Jul-19 09:32N 24°23' E 118°06'46114437.7
2016-Jul-19 09:30N 31°30' E 121°23'21387.8
2016-Jul-19 09:30N 31°29' E 121°25'10932651.9
2016-Jul-19 09:29N 29°46' E 122°03'1607309.2
2016-Jul-19 09:28N 31°58' E 120°18'6432661.9
2016-Jul-19 09:28N 31°29' E 121°25'692128.6
2016-Jul-19 09:26N 31°57' E 120°10'70407.0
2016-Jul-19 09:16N 31°29' E 121°25'15153.2
2016-Jul-19 09:10N 31°15' E 121°31'449741.6
2016-Jul-19 08:33N 24°25' E 118°04'460276162.5
2016-Jul-19 08:33N 31°29' E 121°25'1175.3
2016-Jul-19 08:33N 31°28' E 121°26'1258.7
2016-Jul-19 08:33N 31°29' E 121°25'10333799.7
2016-Jul-19 08:33N 29°53' E 122°09'1048358.8
2016-Jul-19 08:32N 31°30' E 121°24'46187389.2
2016-Jul-19 08:32N 24°23' E 118°06'26323659.4
2016-Jul-19 08:31N 22°56' E 113°36'66074289.5
2016-Jul-19 08:30N 31°30' E 121°22'632238.7
2016-Jul-19 08:29N 31°56' E 120°15'651254.8
2016-Jul-19 08:26N 31°29' E 121°25'42329.8
2016-Jul-19 08:18N 31°59' E 120°49'5668315.1
2016-Jul-19 08:14N 22°34' E 120°17'550819.3
2016-Jul-19 07:33N 31°42' E 121°10'467168125.8
2016-Jul-19 07:33N 24°25' E 118°04'39350525.8
2016-Jul-19 07:33N 29°57' E 121°59'45239720.9
2016-Jul-19 07:32N 22°35' E 120°15'54041386.0
2016-Jul-19 07:31N 31°32' E 121°20'672543.3
2016-Jul-19 07:30N 31°56' E 120°07'6913869.1
2016-Jul-19 07:29N 31°30' E 121°22'194.9
2016-Jul-19 07:29N 31°30' E 121°24'272.5
2016-Jul-19 07:27N 31°29' E 121°25'0 5.4
2016-Jul-19 07:25N 31°29' E 121°25'0 4.7
2016-Jul-19 07:21N 31°29' E 121°25'0 0.3
2016-Jul-19 06:33N 31°29' E 121°25'119.5
2016-Jul-19 06:29N 31°30' E 121°23'2 9.5
2016-Jul-19 06:19N 31°29' E 121°25'460261.6
2016-Jul-19 04:33N 24°25' E 118°04'46135285.8
2016-Jul-19 04:33N 31°30' E 121°23'66135011.5
2016-Jul-19 04:32N 22°56' E 113°36'66219067.3
2016-Jul-19 04:29N 31°32' E 121°22'2070390.3
2016-Jul-19 04:29N 31°14' E 121°30'8111148.5
2016-Jul-19 04:29N 31°57' E 120°10'6922633.1
2016-Jul-19 04:29N 31°30' E 121°25'18385.0
2016-Jul-19 04:26N 31°21' E 121°44'1896.9
2016-Jul-19 04:15N 31°29' E 121°25'2149.0
2016-Jul-19 04:14N 31°30' E 121°22'460684.1
2016-Jul-19 03:34N 24°25' E 118°04'45328106.9
2016-Jul-19 03:33N 31°18' E 121°33'65829231.5
2016-Jul-19 03:31N 22°56' E 113°36'66588663.5
2016-Jul-19 03:31N 31°59' E 120°49'4129518.0
2016-Jul-19 03:31N 31°30' E 121°23'119.4
2016-Jul-19 03:26N 31°30' E 121°25'0 1.5
2016-Jul-19 03:18N 31°29' E 121°25'17536.6
2016-Jul-19 03:16N 31°13' E 121°30'14161.6
2016-Jul-19 03:10N 31°21' E 121°44'322677.3
2016-Jul-19 03:10N 31°39' E 121°13'46213866.3
2016-Jul-19 03:08N 24°28' E 118°04'45715675.1
2016-Jul-19 03:06N 31°29' E 121°25'171707.4
2016-Jul-19 03:05N 31°42' E 121°10'1731.7
2016-Jul-19 02:33N 31°30' E 121°25'15102.4
2016-Jul-19 02:33N 31°30' E 121°23'461118452.0
2016-Jul-19 02:33N 24°25' E 118°04'9726.5
2016-Jul-19 02:32N 24°17' E 118°08'466186488.4
2016-Jul-19 02:32N 31°29' E 121°25'431278.7
2016-Jul-19 02:30N 31°59' E 120°49'66514421.2
2016-Jul-19 02:27N 22°56' E 113°36'6616802.9
2016-Jul-19 02:21N 31°29' E 121°25'1417.9
2016-Jul-19 01:34N 31°39' E 121°13'4651675536.5
2016-Jul-19 01:33N 24°25' E 118°04'26155328.1
2016-Jul-19 01:33N 22°56' E 113°36'65964088.1
2016-Jul-19 01:33N 31°22' E 121°30'91395.4
2016-Jul-19 01:32N 31°29' E 121°25'0 5.9
2016-Jul-19 01:30N 31°29' E 121°25'034.3
2016-Jul-19 01:30N 31°29' E 121°25'115.7
2016-Jul-19 01:25N 31°28' E 121°25'1039.6
2016-Jul-19 01:09N 31°20' E 121°33'5014932.0
2016-Jul-19 01:03N 23°43' E 117°40'4793.8
2016-Jul-19 00:34N 24°25' E 118°04'512500.3
2016-Jul-19 00:32N 23°40' E 117°37'505363852.3
2016-Jul-19 00:32N 31°21' E 121°30'31568.1
2016-Jul-19 00:32N 31°24' E 121°32'66115061.9
2016-Jul-19 00:30N 22°56' E 113°36'36941493.3
2016-Jul-19 00:29N 22°35' E 120°15'56244950.9
2016-Jul-19 00:28N 31°57' E 120°10'6375822.0
2016-Jul-19 00:22N 23°05' E 113°34'655147447.7
2016-Jul-19 00:21N 31°29' E 121°25'0 5.4
2016-Jul-19 00:19N 31°29' E 121°25'  
Track history (hours):
 
Tides and Currents Weather Stations Pressure Air Temp Water Temp Dewpoint Dewpoint Depression Visibility Wind Speed Wind Dir Waves Ship Positions

Callsign 000000 (name unknown)

Last reported at 2016-Jul-28 23:34 UTC. Time now 2016-Jul-29 00:15 UTC.
Position N 24°25' E 118°05'.

Type: Fishing. MMSI: 200007452.

Date/timePositionNaut miles runAvg speedWind from/ knotsBaromVisibWave heightAir tempDewpointWater temp
2016-Jul-28 23:34N 24°25' E 118°05'46676315.0
2016-Jul-28 23:33N 31°43' E 121°09'309746.3
2016-Jul-28 23:33N 31°24' E 121°36'4238.9
2016-Jul-28 23:32N 31°25' E 121°31'123.8
2016-Jul-28 23:28N 31°25' E 121°32'66232223.1
2016-Jul-28 23:27N 22°56' E 113°36'527.8
2016-Jul-28 23:16N 22°51' E 113°35'265368.9
2016-Jul-28 22:33N 24°25' E 118°05'45820107.9
2016-Jul-28 22:31N 31°24' E 121°36'663113736.7
2016-Jul-28 22:31N 22°56' E 113°36'10949.1
2016-Jul-28 22:30N 22°46' E 113°38'66924813.8
2016-Jul-28 22:29N 31°25' E 121°32'51200.7
2016-Jul-28 22:28N 31°20' E 121°33'338.0
2016-Jul-28 22:24N 31°22' E 121°36'741478.7
2016-Jul-28 22:21N 31°59' E 120°21'502992.6
2016-Jul-28 22:20N 31°39' E 121°15'465596.1
2016-Jul-28 21:33N 24°25' E 118°05'45826172.2
2016-Jul-28 21:32N 31°24' E 121°36'19318.6
2016-Jul-28 21:29N 31°35' E 121°18'583849.1
2016-Jul-28 21:28N 31°56' E 120°15'644331214.7
2016-Jul-28 21:28N 23°01' E 113°31'6522999.3
2016-Jul-28 21:15N 31°15' E 121°30'496722.2
2016-Jul-28 20:33N 23°44' E 117°37'50695956.3
2016-Jul-28 20:33N 31°24' E 121°36'45865953.9
2016-Jul-28 20:33N 24°25' E 118°05'2621378.9
2016-Jul-28 20:21N 22°56' E 113°36'663833.4
2016-Jul-28 19:33N 31°24' E 121°36'6771218286.6
2016-Jul-28 19:33N 22°28' E 113°52'26058518.7
2016-Jul-28 19:33N 24°25' E 118°05'392235494.6
2016-Jul-28 19:33N 30°04' E 121°48'61424303.3
2016-Jul-28 19:32N 22°56' E 113°36'6649303.3
2016-Jul-28 19:27N 31°22' E 121°39'901353.5
2016-Jul-28 19:23N 31°58' E 120°02'40553.2
2016-Jul-28 19:19N 31°58' E 120°49'66223816.6
2016-Jul-28 19:17N 23°04' E 113°29'10331398.4
2016-Jul-28 18:33N 38°51' E 121°32'447134077.3
2016-Jul-28 18:33N 31°24' E 121°36'458183207.5
2016-Jul-28 18:33N 24°25' E 118°05'2651042.0
2016-Jul-28 18:17N 23°04' E 113°29'64010142.3
2016-Jul-28 18:13N 31°57' E 120°07'420629.9
2016-Jul-28 17:33N 38°51' E 121°34'42084005.6
2016-Jul-28 17:33N 31°57' E 120°11'465167311.4
2016-Jul-28 17:33N 24°25' E 118°05'456328645.8
2016-Jul-28 17:33N 31°22' E 121°35'676187116.0
2016-Jul-28 17:33N 22°28' E 113°52'321107.9
2016-Jul-28 17:31N 22°53' E 113°31'66870750.4
2016-Jul-28 17:30N 31°41' E 121°13'151389.2
2016-Jul-28 17:30N 31°29' E 121°25'661148806.0
2016-Jul-28 17:30N 22°56' E 113°36'102307.1
2016-Jul-28 17:29N 23°04' E 113°29'10341113.3
2016-Jul-28 16:34N 38°51' E 121°34'884795418.6
2016-Jul-28 16:33N 24°25' E 118°05'456136943.9
2016-Jul-28 16:33N 31°22' E 121°35'866692.9
2016-Jul-28 16:32N 29°59' E 121°54'615122943.0
2016-Jul-28 16:32N 22°56' E 113°36'6618917.2
2016-Jul-28 16:28N 31°29' E 121°25'66014660.1
2016-Jul-28 16:25N 23°02' E 113°31'64612435.4
2016-Jul-28 16:22N 31°58' E 120°17'151187.5
2016-Jul-28 15:34N 29°56' E 122°02'392176354.1
2016-Jul-28 15:33N 24°25' E 118°05'456149388.0
2016-Jul-28 15:33N 31°22' E 121°35'449323068.2
2016-Jul-28 15:33N 38°51' E 121°33'1043125166.2
2016-Jul-28 15:33N 22°54' E 113°31'11127.7
2016-Jul-28 15:28N 23°03' E 113°25'61976821.9
2016-Jul-28 15:27N 29°49' E 122°06'1639803.3
2016-Jul-28 15:26N 31°57' E 120°08'6439813.1
2016-Jul-28 15:22N 22°56' E 113°36'2552060.1
2016-Jul-28 15:15N 24°10' E 118°02'47214766.2
2016-Jul-28 15:13N 31°22' E 121°36'12864.6
2016-Jul-28 15:12N 31°29' E 121°25'459715.5
2016-Jul-28 14:34N 24°25' E 118°05'26247226.4
2016-Jul-28 14:33N 22°56' E 113°36'663477704.1
2016-Jul-28 14:33N 31°23' E 121°36'953746.5
2016-Jul-28 14:32N 29°53' E 122°09'10413804.0
2016-Jul-28 14:31N 31°29' E 121°25'67624566.1
2016-Jul-28 14:29N 22°27' E 113°52'43785.8
2016-Jul-28 14:26N 23°04' E 113°29'2659721.1
2016-Jul-28 14:25N 24°14' E 118°08'46640905.7
2016-Jul-28 14:24N 31°22' E 121°36'66753324.9
2016-Jul-28 14:23N 22°54' E 113°31'6635849.1
2016-Jul-28 14:16N 32°04' E 120°28'410570.3
2016-Jul-28 13:33N 38°51' E 121°33'448134276.5
2016-Jul-28 13:33N 31°23' E 121°36'45891553.2
2016-Jul-28 13:33N 24°25' E 118°05'25946566.8
2016-Jul-28 13:32N 22°28' E 113°54'33434.7
2016-Jul-28 13:28N 22°56' E 113°36'10384.7
2016-Jul-28 13:26N 23°04' E 113°29'65916835.6
2016-Jul-28 13:24N 31°47' E 121°02'66747069.7
2016-Jul-28 13:23N 22°54' E 113°31'61745325.7
2016-Jul-28 13:22N 29°46' E 122°04'384472.9
2016-Jul-28 12:33N 24°25' E 118°05'458274646.6
2016-Jul-28 12:33N 31°23' E 121°36'2719148.2
2016-Jul-28 12:33N 31°41' E 121°13'111892.0
2016-Jul-28 12:33N 31°47' E 121°02'2610494.1
2016-Jul-28 12:33N 31°29' E 121°25'66166139.9
2016-Jul-28 12:32N 22°56' E 113°36'10208.3
2016-Jul-28 12:29N 23°04' E 113°29'111618.0
2016-Jul-28 12:29N 22°54' E 113°31'33649.5
2016-Jul-28 12:26N 22°28' E 113°54'67420929.3
2016-Jul-28 12:24N 31°22' E 121°36'456542.7
2016-Jul-28 11:33N 24°25' E 118°05'458549319.1
2016-Jul-28 11:33N 31°23' E 121°36'66385304.9
2016-Jul-28 11:33N 22°56' E 113°36'66515748.0
2016-Jul-28 11:30N 31°58' E 120°49'66236087.7
2016-Jul-28 11:29N 23°04' E 113°29'66219858.9
2016-Jul-28 11:27N 32°01' E 120°46'68020577.1
2016-Jul-28 11:25N 22°28' E 113°54'67723203.5
2016-Jul-28 11:24N 31°41' E 121°13'339.2
2016-Jul-28 11:20N 31°42' E 121°10'66713490.9
2016-Jul-28 11:17N 22°54' E 113°31'66634736.4
2016-Jul-28 11:16N 31°29' E 121°24'266229.7
2016-Jul-28 11:15N 31°47' E 121°02'541793.4
2016-Jul-28 11:14N 31°59' E 120°00'131.8
2016-Jul-28 11:12N 31°59' E 120°01'1701227.2
2016-Jul-28 11:04N 29°45' E 122°03'1609928.0
2016-Jul-28 11:03N 31°59' E 120°22'73146.7
2016-Jul-28 10:33N 31°23' E 121°36'458549293.2
2016-Jul-28 10:33N 24°25' E 118°05'46634918.2
2016-Jul-28 10:32N 31°41' E 121°13'3144.1
2016-Jul-28 10:31N 31°39' E 121°15'67665810.4
2016-Jul-28 10:31N 22°28' E 113°54'65834321.0
2016-Jul-28 10:30N 31°58' E 120°02'638109352.3
2016-Jul-28 10:29N 23°04' E 113°29'65974105.8
2016-Jul-28 10:29N 31°29' E 121°25'12422.9
2016-Jul-28 10:27N 31°22' E 121°36'6629534.0
2016-Jul-28 10:23N 22°56' E 113°36'64225124.3
2016-Jul-28 10:21N 31°58' E 120°04'86769.1
2016-Jul-28 10:15N 31°22' E 121°36'781301.4
2016-Jul-28 10:11N 31°56' E 120°14'464739.5
2016-Jul-28 09:33N 24°25' E 118°05'458549293.2
2016-Jul-28 09:33N 31°23' E 121°36'663477679.2
2016-Jul-28 09:33N 22°56' E 113°36'62093056.7
2016-Jul-28 09:33N 29°55' E 122°07'1792586442.5
2016-Jul-28 09:33N 00°04' E 121°18'141335332.7
2016-Jul-28 09:30N 22°28' E 113°54'43650.6
2016-Jul-28 09:26N 23°04' E 113°29'6593260.0
2016-Jul-28 09:14N 31°33' E 121°21'699137.5
2016-Jul-28 09:14N 31°58' E 120°05'454.5
2016-Jul-28 09:10N 31°57' E 120°10'464772.6
2016-Jul-28 08:33N 24°25' E 118°05'147469823.0
2016-Jul-28 08:32N 00°03' E 121°18'19159777.9
2016-Jul-28 08:20N 31°57' E 120°08'70253492.3
2016-Jul-28 08:20N 31°31' E 121°25'994553.6
2016-Jul-28 08:19N 29°57' E 121°59'61614134.4
2016-Jul-28 08:17N 22°56' E 113°36'6615153.5
2016-Jul-28 08:09N 31°29' E 121°25'9334.9
2016-Jul-28 08:07N 31°21' E 121°30'454802.8
2016-Jul-28 07:33N 24°25' E 118°05'4589581.1
2016-Jul-28 07:30N 31°23' E 121°36'111331.2
2016-Jul-28 07:30N 31°29' E 121°25'1886484905.1
2016-Jul-28 07:30N 00°03' E 121°18'1446192738.5
2016-Jul-28 07:29N 22°56' E 113°36'64419825.0
2016-Jul-28 07:27N 31°57' E 120°11'6614704.7
2016-Jul-28 07:19N 22°28' E 113°52'67686939.4
2016-Jul-28 07:18N 31°27' E 121°29'66034922.2
2016-Jul-28 07:17N 23°04' E 113°29'66074204.4
2016-Jul-28 07:17N 32°01' E 120°42'476659.0
2016-Jul-28 06:33N 24°25' E 118°05'4581647937.8
2016-Jul-28 06:33N 31°23' E 121°36'5751519.8
2016-Jul-28 06:33N 32°01' E 120°46'68084430.8
2016-Jul-28 06:33N 22°28' E 113°54'1413110594.6
2016-Jul-28 06:32N 00°03' E 121°18'1914104401.2
2016-Jul-28 06:31N 31°56' E 120°14'7318860.0
2016-Jul-28 06:31N 31°25' E 121°32'424254323.1
2016-Jul-28 06:31N 24°45' E 118°54'42237064.9
2016-Jul-28 06:30N 31°22' E 121°36'66216438.1
2016-Jul-28 06:28N 22°56' E 113°36'66118314.8
2016-Jul-28 06:25N 31°29' E 121°25'4264447.6
2016-Jul-28 06:20N 24°44' E 118°56'31776073.5
2016-Jul-28 06:19N 22°54' E 113°31'11303.5
2016-Jul-28 06:17N 23°04' E 113°29'265364.2
2016-Jul-28 05:34N 24°25' E 118°05'458329583.7
2016-Jul-28 05:33N 31°23' E 121°36'41975390.9
2016-Jul-28 05:33N 24°48' E 118°58'41648329.8
2016-Jul-28 05:33N 31°22' E 121°30'1879132638.2
2016-Jul-28 05:32N 00°03' E 121°18'1492488240.9
2016-Jul-28 05:32N 24°49' E 118°57'43448871.8
2016-Jul-28 05:31N 31°57' E 120°17'6448111.5
2016-Jul-28 05:26N 23°04' E 113°29'65926947.5
2016-Jul-28 05:25N 31°29' E 121°25'111991.6
2016-Jul-28 05:24N 31°20' E 121°33'67252554.7
2016-Jul-28 05:24N 22°28' E 113°54'33460.6
2016-Jul-28 05:19N 22°54' E 113°31'66992660.8
2016-Jul-28 05:19N 31°58' E 120°49'476629.2
2016-Jul-28 04:34N 24°25' E 118°05'58209945.4
2016-Jul-28 04:34N 24°53' E 119°02'41453200.0
2016-Jul-28 04:33N 31°23' E 121°36'415124561.6
2016-Jul-28 04:33N 24°53' E 118°57'31628458.3
2016-Jul-28 04:32N 22°56' E 113°36'1446106204.7
2016-Jul-28 04:31N 00°03' E 121°18'14451040212.0
2016-Jul-28 04:31N 22°54' E 113°31'65531870.3
2016-Jul-28 04:30N 31°59' E 120°20'63961.9
2016-Jul-28 04:26N 31°29' E 121°25'15650.3
2016-Jul-28 04:25N 31°15' E 121°31'66625525.3
2016-Jul-28 04:23N 22°28' E 113°54'681817036.5
2016-Jul-28 04:23N 32°01' E 120°48'3158.5
2016-Jul-28 04:22N 31°58' E 120°49'6622406.3
2016-Jul-28 04:06N 23°04' E 113°29'6611229.3
2016-Jul-28 03:33N 31°23' E 121°36'45878466.7
2016-Jul-28 03:33N 24°25' E 118°05'5539344.2
2016-Jul-28 03:33N 24°53' E 118°57'32322389.4
2016-Jul-28 03:32N 23°02' E 113°24'1455104757.1
2016-Jul-28 03:31N 00°03' E 121°18'188176932.5
2016-Jul-28 03:30N 31°24' E 121°33'7063359.4
2016-Jul-28 03:30N 32°01' E 120°23'66941539.8
2016-Jul-28 03:29N 22°28' E 113°54'33263.8
2016-Jul-28 03:21N 22°56' E 113°36'66211514.5
2016-Jul-28 03:18N 31°22' E 121°36'6675205.3
2016-Jul-28 03:10N 22°54' E 113°31'6668500.1
2016-Jul-28 03:05N 31°29' E 121°25'459864.5
2016-Jul-28 02:33N 24°25' E 118°05'5532719.5
2016-Jul-28 02:33N 24°53' E 118°57'41523725.9
2016-Jul-28 02:32N 31°23' E 121°36'118244.0
2016-Jul-28 02:32N 31°29' E 121°25'12728.6
2016-Jul-28 02:31N 31°22' E 121°36'667299952.7
2016-Jul-28 02:31N 22°54' E 113°31'144526809.5
2016-Jul-28 02:28N 00°03' E 121°18'145568007.0
2016-Jul-28 02:27N 23°02' E 113°24'44560.8
2016-Jul-28 02:22N 22°28' E 113°54'332631.7
2016-Jul-28 02:21N 22°56' E 113°36'531.3
2016-Jul-28 02:12N 22°53' E 113°32'6681055.9
2016-Jul-28 01:34N 31°23' E 121°36'415186841.1
2016-Jul-28 01:33N 24°53' E 118°57'31636705.1
2016-Jul-28 01:33N 22°56' E 113°36'659158115.8
2016-Jul-28 01:33N 31°21' E 121°31'6638467.5
2016-Jul-28 01:28N 22°54' E 113°31'334294.5
2016-Jul-28 01:27N 22°28' E 113°54'44685.0
2016-Jul-28 01:24N 23°02' E 113°24'6648956.4
2016-Jul-28 01:19N 31°22' E 121°36'456599.1
2016-Jul-28 00:33N 24°25' E 118°05'45882391.0
2016-Jul-28 00:33N 31°23' E 121°36'676202670.8
2016-Jul-28 00:33N 22°28' E 113°54'31226720.3
2016-Jul-28 00:32N 24°47' E 118°58'442397752.4
2016-Jul-28 00:32N 31°58' E 120°49'66513447.5
2016-Jul-28 00:29N 22°56' E 113°36'5211.7
2016-Jul-28 00:28N 22°54' E 113°31'1047.1
2016-Jul-28 00:15N 23°02' E 113°24'6674069.9
2016-Jul-28 00:05N 31°58' E 120°52'5198.4
2016-Jul-27 23:33N 31°23' E 121°36'45891543.4
2016-Jul-27 23:33N 24°25' E 118°05'25822155.1
2016-Jul-27 23:32N 22°28' E 113°54'331260.1
2016-Jul-27 23:31N 22°56' E 113°36'6621809.3
2016-Jul-27 23:09N 31°47' E 121°02'6677895.8
2016-Jul-27 23:04N 22°54' E 113°31'5 9.6
2016-Jul-27 22:34N 22°56' E 113°36'26231484.1
2016-Jul-27 22:33N 24°25' E 118°05'2597217.7
2016-Jul-27 22:31N 22°28' E 113°54'677609148.4
2016-Jul-27 22:31N 31°46' E 121°05'1103977.2
2016-Jul-27 22:29N 30°04' E 121°56'814287.8
2016-Jul-27 22:28N 31°23' E 121°36'80243.0
2016-Jul-27 22:08N 31°56' E 120°11'465780.1
2016-Jul-27 21:33N 24°25' E 118°05'262472260.9
2016-Jul-27 21:33N 22°56' E 113°36'620743931.6
2016-Jul-27 21:32N 29°59' E 122°02'872738.3
2016-Jul-27 21:31N 31°23' E 121°36'676162153.1
2016-Jul-27 21:30N 22°28' E 113°54'6619019.6
2016-Jul-27 21:26N 31°57' E 120°14'51314.5
2016-Jul-27 21:16N 31°41' E 121°11'66525181.1
2016-Jul-27 21:15N 23°02' E 113°24'844.9
2016-Jul-27 21:03N 22°54' E 113°28'6261250.6
2016-Jul-27 20:33N 29°58' E 122°03'394128986.9
2016-Jul-27 20:33N 24°25' E 118°05'458149798.3
2016-Jul-27 20:33N 31°23' E 121°36'663341188.0
2016-Jul-27 20:33N 22°56' E 113°36'663159138.5
2016-Jul-27 20:33N 31°40' E 121°13'1897853466.6
2016-Jul-27 20:32N 00°03' E 121°18'1915149895.6
2016-Jul-27 20:32N 31°58' E 120°18'752128.7
2016-Jul-27 20:30N 31°14' E 121°29'16362.9
2016-Jul-27 20:27N 31°29' E 121°25'66399509.9
2016-Jul-27 20:27N 23°02' E 113°24'6642603.6
2016-Jul-27 20:11N 31°39' E 121°13'109173.3
2016-Jul-27 19:33N 29°58' E 122°03'8527684.3
2016-Jul-27 19:33N 31°20' E 121°40'456328447.1
2016-Jul-27 19:33N 24°25' E 118°05'147484232.1
2016-Jul-27 19:32N 00°03' E 121°18'1446306119.6
2016-Jul-27 19:32N 22°56' E 113°36'66399461.5
2016-Jul-27 19:31N 31°40' E 121°13'6658252.4
2016-Jul-27 19:27N 23°02' E 113°24'659182504.6
2016-Jul-27 19:26N 31°16' E 121°34'286372.9
2016-Jul-27 19:26N 31°39' E 121°13'10713327.1
2016-Jul-27 19:26N 29°58' E 121°58'951542.6
2016-Jul-27 19:22N 31°29' E 121°25'42146.1
2016-Jul-27 19:05N 31°58' E 120°49'476920.0
2016-Jul-27 18:34N 24°25' E 118°05'39428377.1
2016-Jul-27 18:33N 29°58' E 122°03'8513379.5
2016-Jul-27 18:32N 31°20' E 121°33'899200.4
2016-Jul-27 18:32N 29°55' E 122°08'1792921788.8
2016-Jul-27 18:32N 00°03' E 121°18'1897568981.9
2016-Jul-27 18:32N 31°40' E 121°13'66324357.9
2016-Jul-27 18:30N 22°56' E 113°36'6625285.8
2016-Jul-27 18:22N 31°39' E 121°13'471191.3
2016-Jul-27 18:20N 32°03' E 120°25'61946.9
2016-Jul-27 18:16N 31°29' E 121°25'168048.0
2016-Jul-27 18:16N 31°20' E 121°40'793947.4
2016-Jul-27 18:15N 31°57' E 120°18'649212417.2
2016-Jul-27 18:15N 23°02' E 113°24'270392.5
2016-Jul-27 17:33N 24°25' E 118°05'262188902.8
2016-Jul-27 17:33N 22°56' E 113°36'65927256.4
2016-Jul-27 17:32N 31°22' E 121°30'237617.8
2016-Jul-27 17:32N 31°40' E 121°13'1897853474.4
2016-Jul-27 17:31N 00°03' E 121°18'1783641862.0
2016-Jul-27 17:31N 29°46' E 122°04'963990.0
2016-Jul-27 17:30N 31°20' E 121°40'66512473.3
2016-Jul-27 17:27N 23°02' E 113°24'66117881.6
2016-Jul-27 17:24N 32°04' E 120°29'59363.7
2016-Jul-27 17:15N 31°29' E 121°25'14507.6
2016-Jul-27 17:13N 31°39' E 121°13'2131.6
2016-Jul-27 16:34N 31°25' E 121°31'457182871.8
2016-Jul-27 16:33N 24°25' E 118°05'382229409.0
2016-Jul-27 16:33N 29°41' E 122°07'1265760.6
2016-Jul-27 16:32N 31°39' E 121°13'66246743.4
2016-Jul-27 16:31N 22°56' E 113°36'1446650502.2
2016-Jul-27 16:31N 00°03' E 121°18'189651307.0
2016-Jul-27 16:29N 31°39' E 121°13'66417970.5
2016-Jul-27 16:27N 23°02' E 113°24'66316026.6
2016-Jul-27 16:24N 31°29' E 121°25'422107.4
2016-Jul-27 16:23N 31°58' E 120°49'6769503.3
2016-Jul-27 16:19N 22°45' E 113°33'67416395.8
2016-Jul-27 16:16N 31°47' E 121°03'469657.9
2016-Jul-27 15:33N 24°25' E 118°05'459110168.2
2016-Jul-27 15:33N 31°29' E 121°24'11313618.2
2016-Jul-27 15:33N 29°41' E 122°05'1265664.5
2016-Jul-27 15:31N 31°39' E 121°13'1896151640.8
2016-Jul-27 15:31N 00°03' E 121°18'188659033.0
2016-Jul-27 15:29N 31°29' E 121°25'66118176.1
2016-Jul-27 15:27N 22°56' E 113°36'12251.3
2016-Jul-27 15:24N 23°02' E 113°24'66264406.6
2016-Jul-27 15:23N 32°00' E 120°39'662880.7
2016-Jul-27 15:22N 31°20' E 121°40'731760.7
2016-Jul-27 15:19N 31°58' E 120°26'20502.6
2016-Jul-27 15:17N 31°58' E 120°49'54279.4
2016-Jul-27 15:05N 31°22' E 121°36'1834.8
2016-Jul-27 14:33N 31°34' E 121°19'18901134070.5
2016-Jul-27 14:33N 00°03' E 121°18'1474663329.7
2016-Jul-27 14:33N 24°25' E 118°05'457234849.1
2016-Jul-27 14:33N 31°22' E 121°38'10374159.8
2016-Jul-27 14:33N 29°41' E 122°05'611199875.7
2016-Jul-27 14:33N 22°56' E 113°36'66152895.3
2016-Jul-27 14:32N 31°33' E 121°19'413246.3
2016-Jul-27 14:31N 32°01' E 120°44'33947.1
2016-Jul-27 14:29N 31°39' E 121°13'464498.3
2016-Jul-27 13:33N 24°25' E 118°05'46479531.7
2016-Jul-27 13:33N 31°38' E 121°14'18956821177.8
2016-Jul-27 13:33N 00°03' E 121°18'1883147352.6
2016-Jul-27 13:32N 31°26' E 121°29'31482.3
2016-Jul-27 13:28N 31°47' E 121°03'12145.9
2016-Jul-27 13:24N 31°39' E 121°13'1211178.8
2016-Jul-27 13:17N 29°46' E 122°04'61613369.4
2016-Jul-27 13:15N 23°02' E 113°24'66320766.2
2016-Jul-27 13:13N 31°29' E 121°25'3 5.2
2016-Jul-27 12:33N 31°31' E 121°21'161293.2
2016-Jul-27 12:33N 31°42' E 121°08'18993417921.9
2016-Jul-27 12:33N 00°03' E 121°18'1895426481.4
2016-Jul-27 12:32N 31°39' E 121°13'464417774.5
2016-Jul-27 12:32N 24°25' E 118°05'45920661.8
2016-Jul-27 12:31N 31°29' E 121°25'1031860.3
2016-Jul-27 12:28N 29°53' E 122°09'62015726.0
2016-Jul-27 12:25N 22°56' E 113°36'617714.5
2016-Jul-27 11:33N 29°56' E 122°00'39164020.3
2016-Jul-27 11:33N 24°25' E 118°05'463416526.2
2016-Jul-27 11:33N 31°36' E 121°16'662397205.1
2016-Jul-27 11:33N 22°56' E 113°36'66358229.5
2016-Jul-27 11:32N 31°40' E 121°13'189744625.0
2016-Jul-27 11:30N 00°04' E 121°18'145428929.2
2016-Jul-27 11:27N 23°02' E 113°24'66319258.9
2016-Jul-27 11:25N 31°29' E 121°25'25190.9
2016-Jul-27 11:17N 31°46' E 121°03'3 3.8
2016-Jul-27 10:33N 31°47' E 120°59'122782.9
2016-Jul-27 10:33N 31°40' E 121°12'3946.3
2016-Jul-27 10:33N 31°38' E 121°14'131363.6
2016-Jul-27 10:32N 31°29' E 121°25'459206629.5
2016-Jul-27 10:32N 24°25' E 118°05'465279174.0
2016-Jul-27 10:32N 31°40' E 121°13'66345045.2
2016-Jul-27 10:31N 22°56' E 113°36'144554205.1
2016-Jul-27 10:29N 00°04' E 121°18'145432726.2
2016-Jul-27 10:27N 23°02' E 113°24'6238565.8
2016-Jul-27 10:22N 29°58' E 122°03'6243719.8
2016-Jul-27 10:12N 23°02' E 113°23'65510566.6
2016-Jul-27 10:08N 31°58' E 120°26'470801.9
2016-Jul-27 09:33N 24°25' E 118°05'1474589600.2
2016-Jul-27 09:33N 00°04' E 121°18'1893174716.4
2016-Jul-27 09:33N 31°36' E 121°17'661113235.2
2016-Jul-27 09:32N 23°05' E 113°27'623320210.2
2016-Jul-27 09:32N 30°00' E 122°05'10928134.7
2016-Jul-27 09:32N 31°40' E 121°13'66315206.3
2016-Jul-27 09:29N 22°56' E 113°36'662148968.4
2016-Jul-27 09:29N 31°22' E 121°36'28509.4
2016-Jul-27 09:26N 31°41' E 121°12'3068881.5
2016-Jul-27 09:24N 26°44' E 119°44'40597249.6
2016-Jul-27 09:23N 23°05' E 113°28'65916133.0
2016-Jul-27 09:21N 31°29' E 121°25'1316.3
2016-Jul-27 08:33N 31°38' E 121°14'464151793.0
2016-Jul-27 08:33N 24°25' E 118°05'45931185.7
2016-Jul-27 08:32N 31°29' E 121°25'94853.5
2016-Jul-27 08:32N 31°36' E 121°17'65815.3
2016-Jul-27 08:32N 31°32' E 121°23'9818662.0
2016-Jul-27 08:32N 30°00' E 122°05'6239266.5
2016-Jul-27 08:28N 22°56' E 113°36'64392625.3
2016-Jul-27 08:27N 31°57' E 120°07'64422075.4
2016-Jul-27 08:26N 22°58' E 113°30'7196.1
2016-Jul-27 08:24N 23°02' E 113°24'66556988.5
2016-Jul-27 08:23N 31°40' E 121°13'465564.6
2016-Jul-27 07:33N 24°25' E 118°05'46036823.2
2016-Jul-27 07:33N 31°31' E 121°23'659103156.8
2016-Jul-27 07:32N 23°04' E 113°29'65937054.8
2016-Jul-27 07:31N 31°29' E 121°25'143649.8
2016-Jul-27 07:31N 31°40' E 121°13'10913995.5
2016-Jul-27 07:31N 30°00' E 122°05'35334312.7
2016-Jul-27 07:30N 24°50' E 118°56'420215877.8
2016-Jul-27 07:30N 31°28' E 121°28'16687.0
2016-Jul-27 07:28N 31°38' E 121°14'45338.6
2016-Jul-27 07:20N 31°58' E 120°26'1192.4
2016-Jul-27 07:13N 31°57' E 120°13'5583.3
2016-Jul-27 06:33N 31°38' E 121°14'46479511.6
2016-Jul-27 06:33N 24°25' E 118°05'46063630.2
2016-Jul-27 06:33N 31°30' E 121°24'9738610.9
2016-Jul-27 06:33N 30°00' E 122°05'14574789.5
2016-Jul-27 06:32N 31°58' E 120°26'441197.8
2016-Jul-27 06:30N 31°40' E 121°13'2226577.8
2016-Jul-27 06:30N 31°24' E 121°32'81001.5
2016-Jul-27 06:30N 31°29' E 121°25'641240.7
2016-Jul-27 06:27N 31°57' E 120°17'4319064.7
2016-Jul-27 06:24N 24°53' E 118°57'31916632.0
2016-Jul-27 06:23N 23°04' E 113°29'265324.5
2016-Jul-27 05:34N 24°25' E 118°05'464238534.8
2016-Jul-27 05:33N 31°38' E 121°14'132129.7
2016-Jul-27 05:33N 31°29' E 121°25'9642986.3
2016-Jul-27 05:33N 30°00' E 122°05'9626453.1
2016-Jul-27 05:33N 31°29' E 121°25'14425.3
2016-Jul-27 05:31N 31°40' E 121°13'229874.2
2016-Jul-27 05:31N 31°24' E 121°31'65958.9
2016-Jul-27 05:26N 31°58' E 120°26'58546.2
2016-Jul-27 05:20N 31°29' E 121°25'66110045.8
2016-Jul-27 05:16N 22°56' E 113°36'262366.9
2016-Jul-27 04:33N 24°25' E 118°05'45975132.1
2016-Jul-27 04:33N 31°29' E 121°25'1510587.6
2016-Jul-27 04:33N 31°40' E 121°13'109196734.8
2016-Jul-27 04:33N 30°00' E 122°05'14522758.2
2016-Jul-27 04:32N 31°58' E 120°26'441560.0
2016-Jul-27 04:31N 31°40' E 121°13'25988.1
2016-Jul-27 04:29N 31°21' E 121°33'111303.9
2016-Jul-27 04:29N 31°29' E 121°25'622554.9
2016-Jul-27 04:27N 31°59' E 120°22'43314856.5
2016-Jul-27 04:25N 24°53' E 118°57'3162039.8
2016-Jul-27 04:16N 22°56' E 113°36'666299790.2
2016-Jul-27 04:16N 32°01' E 120°47'3110190.5
2016-Jul-27 04:16N 31°56' E 120°11'64012063.9
2016-Jul-27 04:13N 23°05' E 113°27'6611011.9
2016-Jul-27 03:34N 31°40' E 121°13'10949181.0
2016-Jul-27 03:33N 30°00' E 122°05'954296.9
2016-Jul-27 03:32N 31°29' E 121°25'112444.9
2016-Jul-27 03:32N 31°21' E 121°33'765370.5
2016-Jul-27 03:31N 31°57' E 120°14'43562677.1
2016-Jul-27 03:31N 24°47' E 118°55'31721544.4
2016-Jul-27 03:30N 23°05' E 113°27'139022.6
2016-Jul-27 03:30N 22°56' E 113°36'661340150.0
2016-Jul-27 03:29N 31°29' E 121°25'6578292.1
2016-Jul-27 03:29N 31°56' E 120°15'60544.6
2016-Jul-27 03:23N 31°32' E 121°20'658263307.0
2016-Jul-27 03:23N 23°04' E 113°29'6605868.7
2016-Jul-27 03:16N 31°40' E 121°13'441940.5
2016-Jul-27 03:14N 31°58' E 120°26'4464.6
2016-Jul-27 02:33N 31°40' E 121°13'465152320.5
2016-Jul-27 02:33N 24°25' E 118°05'39759585.9
2016-Jul-27 02:33N 30°00' E 122°05'9568757.9
2016-Jul-27 02:33N 31°29' E 121°25'144716.7
2016-Jul-27 02:33N 31°40' E 121°13'6602377028.3
2016-Jul-27 02:33N 23°04' E 113°29'6575314.0
2016-Jul-27 02:25N 31°21' E 121°33'11124.6
2016-Jul-27 02:20N 31°29' E 121°25'66195242.7
2016-Jul-27 02:20N 22°56' E 113°36'623809.6
2016-Jul-27 01:33N 30°00' E 122°05'397286008.7
2016-Jul-27 01:33N 24°25' E 118°05'465128885.0
2016-Jul-27 01:33N 31°40' E 121°13'2513089.0
2016-Jul-27 01:33N 31°21' E 121°33'25757.5
2016-Jul-27 01:31N 31°40' E 121°13'14926.5
2016-Jul-27 01:30N 31°29' E 121°25'127041.4
2016-Jul-27 01:30N 31°22' E 121°36'6624729.2
2016-Jul-27 01:22N 22°56' E 113°36'66111787.4
2016-Jul-27 01:18N 31°29' E 121°25'6598561.4
2016-Jul-27 01:14N 23°04' E 113°29'660990.3
2016-Jul-27 00:34N 31°40' E 121°13'465186167.2
2016-Jul-27 00:33N 24°25' E 118°05'392156871.5
2016-Jul-27 00:33N 29°58' E 121°58'951262.0
2016-Jul-27 00:29N 31°29' E 121°25'142353.4
2016-Jul-27 00:28N 31°40' E 121°13'26355.5
2016-Jul-27 00:24N 31°22' E 121°36'66028609.4
2016-Jul-27 00:23N 23°04' E 113°29'6586849.0
2016-Jul-27 00:17N 31°28' E 121°25'1621.6
2016-Jul-26 23:34N 31°40' E 121°13'46555850.8
2016-Jul-26 23:33N 24°25' E 118°05'46534172.1
2016-Jul-26 23:32N 31°40' E 121°13'153074.7
2016-Jul-26 23:32N 31°28' E 121°25'470.0
2016-Jul-26 23:28N 31°26' E 121°30'5142.9
2016-Jul-26 23:26N 31°29' E 121°25'11743.8
2016-Jul-26 23:25N 31°21' E 121°33'3128.7
2016-Jul-26 23:24N 31°22' E 121°36'6622311.8
2016-Jul-26 23:07N 22°56' E 113°36'262476.8
2016-Jul-26 22:34N 24°25' E 118°05'465837782.7
2016-Jul-26 22:33N 31°40' E 121°13'441150.7
2016-Jul-26 22:31N 31°58' E 120°26'44159091.6
2016-Jul-26 22:31N 31°40' E 121°13'146434.4
2016-Jul-26 22:31N 31°29' E 121°25'91010.6
2016-Jul-26 22:31N 31°22' E 121°30'65959285.4
2016-Jul-26 22:30N 22°56' E 113°36'658237018.3
2016-Jul-26 22:30N 31°19' E 121°34'12100.3
2016-Jul-26 22:23N 31°28' E 121°25'6582369768.6
2016-Jul-26 22:23N 23°04' E 113°29'1012.4
2016-Jul-26 21:34N 22°56' E 113°36'663597033.7
2016-Jul-26 21:33N 31°40' E 121°13'141023.2
2016-Jul-26 21:33N 31°29' E 121°25'45920924.0
2016-Jul-26 21:31N 24°25' E 118°05'465837226.7
2016-Jul-26 21:31N 31°40' E 121°13'281542.2
2016-Jul-26 21:30N 31°18' E 121°33'13231.4
2016-Jul-26 21:27N 31°28' E 121°25'11677.1
2016-Jul-26 21:27N 31°29' E 121°24'1763.8
2016-Jul-26 21:11N 31°13' E 121°30'6531043.1
2016-Jul-26 20:34N 22°56' E 113°36'262236132.2
2016-Jul-26 20:33N 24°25' E 118°05'452813056.7
2016-Jul-26 20:33N 31°18' E 121°33'2824935.0
2016-Jul-26 20:33N 31°40' E 121°13'090.0
2016-Jul-26 20:33N 31°40' E 121°13'6605379.6
2016-Jul-26 20:26N 23°04' E 113°29'6599523.8
2016-Jul-26 20:22N 31°29' E 121°25'1293.6
2016-Jul-26 20:14N 31°22' E 121°36'11116.8
2016-Jul-26 20:08N 31°28' E 121°25'6611139.0
2016-Jul-26 19:34N 22°56' E 113°36'1038249186.2
2016-Jul-26 19:33N 38°50' E 121°33'4311549806.6
2016-Jul-26 19:33N 31°40' E 121°13'465239363.6
2016-Jul-26 19:33N 24°25' E 118°05'46372452.3
2016-Jul-26 19:33N 31°36' E 121°18'10704.1
2016-Jul-26 19:32N 31°28' E 121°25'1 8.5
2016-Jul-26 19:24N 31°29' E 121°25'121422.7
2016-Jul-26 19:23N 31°19' E 121°33'451542.3
2016-Jul-26 18:33N 38°50' E 121°34'431775322.0
2016-Jul-26 18:33N 31°40' E 121°13'124142.3
2016-Jul-26 18:33N 31°32' E 121°23'461207293.7
2016-Jul-26 18:33N 24°25' E 118°05'454116715.1
2016-Jul-26 18:33N 31°22' E 121°30'65673803.4
2016-Jul-26 18:32N 23°04' E 113°29'65928570.6
2016-Jul-26 18:31N 31°29' E 121°25'66152909.5
2016-Jul-26 18:30N 22°56' E 113°36'61720770.6
2016-Jul-26 18:28N 29°58' E 121°59'83200.7
2016-Jul-26 18:04N 31°18' E 121°33'454903.2
2016-Jul-26 17:33N 38°51' E 121°34'540194251.7
2016-Jul-26 17:33N 29°53' E 122°09'11784577.6
2016-Jul-26 17:33N 31°40' E 121°13'1761288.8
2016-Jul-26 17:33N 31°28' E 121°28'66231788.8
2016-Jul-26 17:32N 22°56' E 113°36'66148576.0
2016-Jul-26 17:31N 31°24' E 121°31'6215.3
2016-Jul-26 17:29N 31°28' E 121°25'592670.5
2016-Jul-26 17:28N 31°58' E 120°26'581980.4
2016-Jul-26 17:26N 31°29' E 121°25'6596717.7
2016-Jul-26 17:20N 23°04' E 113°29'660846.8
2016-Jul-26 16:34N 31°40' E 121°13'432388602.3
2016-Jul-26 16:33N 38°52' E 121°33'884353655.8
2016-Jul-26 16:33N 24°25' E 118°05'4581650209.6
2016-Jul-26 16:33N 31°28' E 121°25'6288.0
2016-Jul-26 16:32N 31°25' E 121°31'662216635.7
2016-Jul-26 16:32N 22°56' E 113°36'6619122.4
2016-Jul-26 16:27N 31°28' E 121°26'158.6
2016-Jul-26 16:26N 31°29' E 121°25'6596814.3
2016-Jul-26 16:20N 23°04' E 113°29'6108282.4
2016-Jul-26 16:16N 29°41' E 122°05'550779.0
2016-Jul-26 15:33N 38°51' E 121°34'431776623.3
2016-Jul-26 15:33N 31°40' E 121°13'4651675505.2
2016-Jul-26 15:33N 24°25' E 118°05'26514048.4
2016-Jul-26 15:32N 23°04' E 113°29'65514125.0
2016-Jul-26 15:30N 31°18' E 121°33'7012020.6
2016-Jul-26 15:29N 31°58' E 120°26'5812996.2
2016-Jul-26 15:29N 31°29' E 121°25'4691.4
2016-Jul-26 15:29N 31°32' E 121°21'66116753.0
2016-Jul-26 15:26N 22°56' E 113°36'663755.4
2016-Jul-26 14:33N 31°21' E 121°40'45791310.4
2016-Jul-26 14:33N 24°25' E 118°05'884795505.5
2016-Jul-26 14:33N 38°51' E 121°33'4321553539.1
2016-Jul-26 14:33N 31°40' E 121°13'12735087.9
2016-Jul-26 14:33N 29°41' E 122°05'61064564.0
2016-Jul-26 14:32N 23°04' E 113°29'66067907.3
2016-Jul-26 14:32N 31°22' E 121°37'12805.0
2016-Jul-26 14:31N 31°28' E 121°25'161.6
2016-Jul-26 14:30N 31°29' E 121°25'66113527.9
2016-Jul-26 14:27N 22°56' E 113°36'662158895.9
2016-Jul-26 14:27N 31°36' E 121°16'48838.7
2016-Jul-26 14:23N 31°58' E 120°26'416503.0
2016-Jul-26 13:34N 38°50' E 121°34'8833178938.1
2016-Jul-26 13:34N 24°25' E 118°05'46598559.1
2016-Jul-26 13:33N 31°40' E 121°13'443054.4
2016-Jul-26 13:32N 31°58' E 120°26'65317415.9
2016-Jul-26 13:30N 22°56' E 113°36'661237927.2
2016-Jul-26 13:30N 31°28' E 121°25'1067784.8
2016-Jul-26 13:29N 29°48' E 122°04'6136234.6
2016-Jul-26 13:23N 23°04' E 113°29'66117234.6
2016-Jul-26 13:21N 31°20' E 121°40'16291.5
2016-Jul-26 13:18N 31°29' E 121°25'661898.5
2016-Jul-26 12:34N 22°56' E 113°36'663477613.7
2016-Jul-26 12:33N 31°40' E 121°13'1416232.7
2016-Jul-26 12:33N 31°30' E 121°24'173111.7
2016-Jul-26 12:33N 31°20' E 121°40'8835139.9
2016-Jul-26 12:33N 29°55' E 122°07'10032688.9
2016-Jul-26 12:33N 31°28' E 121°25'65894791.2
2016-Jul-26 12:32N 23°04' E 113°29'265318428.2
2016-Jul-26 12:32N 24°25' E 118°05'883635889.8
2016-Jul-26 12:32N 38°51' E 121°33'431439.7
2016-Jul-26 11:33N 31°40' E 121°13'465119686.1
2016-Jul-26 11:33N 24°25' E 118°05'2625336.3
2016-Jul-26 11:30N 22°56' E 113°36'102020.2
2016-Jul-26 11:30N 23°04' E 113°29'65835905.8
2016-Jul-26 11:29N 31°28' E 121°25'15594.5
2016-Jul-26 11:27N 31°21' E 121°40'669104703.8
2016-Jul-26 11:27N 22°53' E 113°31'667750.4
2016-Jul-26 10:34N 31°39' E 121°13'46443990.0
2016-Jul-26 10:33N 24°25' E 118°05'462138662.7
2016-Jul-26 10:33N 31°35' E 121°17'662264707.4
2016-Jul-26 10:33N 22°56' E 113°36'10229.2
2016-Jul-26 10:30N 23°04' E 113°29'6561601.7
2016-Jul-26 10:05N 31°21' E 121°31'2139.6
2016-Jul-26 09:33N 31°37' E 121°15'46375840.0
2016-Jul-26 09:33N 24°25' E 118°05'466111787.5
2016-Jul-26 09:33N 31°42' E 121°08'66220547.1
2016-Jul-26 09:31N 22°56' E 113°36'65920804.3
2016-Jul-26 09:29N 31°21' E 121°31'9550.6
2016-Jul-26 09:28N 31°22' E 121°41'893.5
2016-Jul-26 09:23N 31°18' E 121°33'6557417.7
2016-Jul-26 09:18N 23°04' E 113°29'659197720.1
2016-Jul-26 09:18N 31°30' E 121°25'459623.7
2016-Jul-26 08:33N 24°25' E 118°05'45986996.4
2016-Jul-26 08:33N 31°30' E 121°24'148496.2
2016-Jul-26 08:33N 31°40' E 121°13'117706.6
2016-Jul-26 08:33N 31°46' E 121°02'66227391.1
2016-Jul-26 08:32N 22°56' E 113°36'1444199955.4
2016-Jul-26 08:31N 00°04' E 121°15'145471696.3
2016-Jul-26 08:30N 23°04' E 113°29'6506429.4
2016-Jul-26 08:24N 31°13' E 121°30'30562.9
2016-Jul-26 08:21N 31°39' E 121°13'23313.3
2016-Jul-26 08:16N 31°21' E 121°31'6647327.6
2016-Jul-26 08:11N 22°52' E 113°33'66811784.4
2016-Jul-26 08:07N 31°38' E 121°15'464822.7
2016-Jul-26 07:33N 24°25' E 118°05'14722649071.6
2016-Jul-26 07:33N 00°06' E 121°20'1890295841.4
2016-Jul-26 07:33N 31°36' E 121°18'81203.9
2016-Jul-26 07:33N 31°41' E 121°11'66282226.5
2016-Jul-26 07:32N 22°56' E 113°36'66141724.5
2016-Jul-26 07:31N 31°50' E 120°54'66699871.2
2016-Jul-26 07:31N 22°54' E 113°29'668141499.4
2016-Jul-26 07:31N 31°36' E 121°18'18368.1
2016-Jul-26 07:28N 31°21' E 121°31'65657624.9
2016-Jul-26 07:27N 23°04' E 113°29'658197468.0
2016-Jul-26 07:27N 31°31' E 121°21'18212.7
2016-Jul-26 07:22N 31°15' E 121°30'11126.8
2016-Jul-26 07:16N 31°22' E 121°41'458641.6
2016-Jul-26 06:33N 24°25' E 118°05'1476885664.8
2016-Jul-26 06:33N 00°02' E 121°26'1888566284.0
2016-Jul-26 06:33N 31°30' E 121°23'2316.7
2016-Jul-26 06:33N 31°32' E 121°22'66255440.6
2016-Jul-26 06:32N 22°56' E 113°36'661216464.6
2016-Jul-26 06:32N 31°34' E 121°19'18260.0
2016-Jul-26 06:28N 31°21' E 121°32'4171500898.9
2016-Jul-26 06:28N 24°48' E 118°52'44239807.8
2016-Jul-26 06:27N 31°58' E 120°52'663596331.0
2016-Jul-26 06:27N 23°04' E 113°29'6504365.2
2016-Jul-26 06:18N 31°13' E 121°30'446599.9
2016-Jul-26 05:33N 24°25' E 118°05'5025579.7
2016-Jul-26 05:33N 24°49' E 118°53'424190927.3
2016-Jul-26 05:33N 31°33' E 121°19'6656.8
2016-Jul-26 05:32N 31°38' E 121°14'28896.9
2016-Jul-26 05:31N 31°58' E 120°52'544442.9
2016-Jul-26 05:30N 31°15' E 121°31'65437373.4
2016-Jul-26 05:29N 22°56' E 113°36'66570396.0
2016-Jul-26 05:28N 31°22' E 121°41'66228389.8
2016-Jul-26 05:27N 23°04' E 113°29'66055235.1
2016-Jul-26 05:26N 31°29' E 121°27'7258.4
2016-Jul-26 05:25N 31°24' E 121°31'92557.8
2016-Jul-26 05:24N 31°26' E 121°22'10392.5
2016-Jul-26 05:23N 31°21' E 121°32'454550.0
2016-Jul-26 04:33N 24°25' E 118°05'45845845.5
2016-Jul-26 04:33N 31°28' E 121°27'41736587.3
2016-Jul-26 04:32N 24°53' E 118°57'41620806.5
2016-Jul-26 04:31N 31°26' E 121°30'65935970.2
2016-Jul-26 04:30N 23°04' E 113°29'65519651.3
2016-Jul-26 04:28N 31°17' E 121°34'544253.6
2016-Jul-26 04:27N 31°58' E 120°52'502011.4
2016-Jul-26 04:26N 31°21' E 121°31'268.3
2016-Jul-26 04:24N 31°23' E 121°30'114.5
2016-Jul-26 04:19N 31°22' E 121°30'9266.6
2016-Jul-26 04:16N 31°22' E 121°41'66521758.8
2016-Jul-26 04:15N 22°56' E 113°36'6623448.6
2016-Jul-26 04:03N 31°26' E 121°30'458931.3
2016-Jul-26 03:34N 24°25' E 118°05'548845.0
2016-Jul-26 03:33N 24°52' E 118°57'43028656.6
2016-Jul-26 03:32N 31°58' E 120°06'643771405.5
2016-Jul-26 03:32N 22°56' E 113°36'66122888.1
2016-Jul-26 03:30N 31°25' E 121°30'862717.0
2016-Jul-26 03:29N 30°01' E 121°50'1271922.7
2016-Jul-26 03:25N 31°58' E 120°52'48934.5
2016-Jul-26 03:22N 31°24' E 121°31'9260.8
2016-Jul-26 03:20N 31°22' E 121°41'981.1
2016-Jul-26 03:13N 31°21' E 121°31'454686.3
2016-Jul-26 02:34N 24°25' E 118°05'4549128.5
2016-Jul-26 02:31N 31°21' E 121°31'65712846.9
2016-Jul-26 02:27N 23°05' E 113°28'66353028.3
2016-Jul-26 02:27N 31°58' E 120°52'331225.8
2016-Jul-26 02:25N 31°57' E 120°12'4302624.8
2016-Jul-26 02:15N 24°52' E 118°57'4163523.3
2016-Jul-26 02:08N 31°22' E 121°41'416711.6
2016-Jul-26 01:33N 24°51' E 118°58'552156.9
2016-Jul-26 01:32N 24°25' E 118°05'4571643609.3
2016-Jul-26 01:32N 31°22' E 121°36'53550.8
2016-Jul-26 01:26N 31°58' E 120°51'66515550.8
2016-Jul-26 01:23N 22°56' E 113°36'65971870.3
2016-Jul-26 01:23N 31°21' E 121°31'6568231.9
2016-Jul-26 01:18N 23°04' E 113°29'6383925.8
2016-Jul-26 01:08N 31°60' E 120°00'85145.4
2016-Jul-26 00:33N 31°22' E 121°30'45554573.6
2016-Jul-26 00:33N 24°25' E 118°05'26220984.1
2016-Jul-26 00:32N 22°56' E 113°36'6598292.7
2016-Jul-26 00:27N 31°21' E 121°31'656590669.4
2016-Jul-26 00:27N 23°04' E 113°29'662264774.0
2016-Jul-26 00:27N 31°58' E 120°51'477513.0
2016-Jul-25 23:31N 24°25' E 118°04'473212682.6
2016-Jul-25 23:31N 32°01' E 120°24'23191.2
2016-Jul-25 23:24N 31°58' E 120°51'5613502.8
2016-Jul-25 23:24N 31°22' E 121°41'8615485.0
2016-Jul-25 23:23N 31°57' E 120°09'79431.0
2016-Jul-25 23:12N 31°21' E 121°31'53415.9
2016-Jul-25 23:05N 31°60' E 120°49'478896.8
2016-Jul-25 22:33N 24°25' E 118°04'47725992.0
2016-Jul-25 22:32N 31°58' E 120°51'3223077.2
2016-Jul-25 22:32N 31°57' E 120°13'642384963.3
2016-Jul-25 22:31N 23°04' E 113°29'66214720.7
2016-Jul-25 22:29N 31°22' E 121°41'6657144.6
2016-Jul-25 22:23N 22°56' E 113°36'222799.1
2016-Jul-25 22:07N 23°45' E 117°32'5089.7
2016-Jul-25 21:33N 24°25' E 118°04'26137623.4
2016-Jul-25 21:33N 22°56' E 113°36'665478952.5
2016-Jul-25 21:33N 31°58' E 120°51'3329581.7
2016-Jul-25 21:33N 31°56' E 120°12'5537.8
2016-Jul-25 21:32N 31°57' E 120°17'64455229.9
2016-Jul-25 21:31N 23°04' E 113°29'65813846.4
2016-Jul-25 21:29N 32°00' E 120°39'63687.8
2016-Jul-25 21:23N 31°18' E 121°33'414114.6
2016-Jul-25 21:23N 31°21' E 121°31'743.8
2016-Jul-25 21:13N 31°14' E 121°30'448667.4
2016-Jul-25 20:33N 24°25' E 118°04'47628120.9
2016-Jul-25 20:32N 31°58' E 120°51'662119148.5
2016-Jul-25 20:31N 23°04' E 113°29'1047.1
2016-Jul-25 20:19N 22°56' E 113°36'6589106.6
2016-Jul-25 20:14N 31°18' E 121°33'748.6
2016-Jul-25 20:05N 31°22' E 121°41'459875.6
2016-Jul-25 19:34N 24°25' E 118°04'47124224.5
2016-Jul-25 19:32N 31°60' E 120°21'65278236.8
2016-Jul-25 19:32N 22°56' E 113°36'101743.9
2016-Jul-25 19:31N 23°04' E 113°29'66214710.6
2016-Jul-25 19:29N 31°58' E 120°51'503421.1
2016-Jul-25 19:28N 31°21' E 121°31'311.9
2016-Jul-25 19:12N 31°19' E 121°34'123.9
2016-Jul-25 19:09N 31°18' E 121°33'5361.5
2016-Jul-25 19:08N 31°14' E 121°29'448749.2
2016-Jul-25 18:33N 24°25' E 118°04'45481794.9
2016-Jul-25 18:32N 31°20' E 121°33'65752523.8
2016-Jul-25 18:31N 23°04' E 113°29'64734275.1
2016-Jul-25 18:30N 31°59' E 120°21'65146871.0
2016-Jul-25 18:30N 22°56' E 113°36'655181354.8
2016-Jul-25 18:29N 32°02' E 120°24'23342.1
2016-Jul-25 18:25N 31°58' E 120°51'543682.5
2016-Jul-25 18:24N 31°18' E 121°33'4215.2
2016-Jul-25 18:23N 31°21' E 121°31'455546.3
2016-Jul-25 17:33N 24°25' E 118°04'26137623.1
2016-Jul-25 17:33N 22°56' E 113°36'61733681.0
2016-Jul-25 17:32N 29°58' E 121°59'616138638.0
2016-Jul-25 17:32N 23°04' E 113°29'65469235.2
2016-Jul-25 17:31N 32°03' E 120°26'212749.4
2016-Jul-25 17:30N 31°58' E 120°51'48488.2
2016-Jul-25 17:25N 31°25' E 121°31'412.3
2016-Jul-25 17:05N 31°21' E 121°32'455864.9
2016-Jul-25 16:33N 24°25' E 118°04'394109038.9
2016-Jul-25 16:33N 29°53' E 122°09'9513139.1
2016-Jul-25 16:33N 31°22' E 121°30'659118542.5
2016-Jul-25 16:32N 22°56' E 113°36'661216410.0
2016-Jul-25 16:32N 31°27' E 121°28'4756.1
2016-Jul-25 16:32N 31°24' E 121°31'492610.7
2016-Jul-25 16:31N 31°58' E 120°51'19169.4
2016-Jul-25 16:24N 32°04' E 120°29'758127.9
2016-Jul-25 16:23N 31°22' E 121°41'66254198.8
2016-Jul-25 16:22N 23°04' E 113°29'264324.1
2016-Jul-25 15:34N 24°25' E 118°04'45847123.1
2016-Jul-25 15:33N 31°25' E 121°31'631295.1
2016-Jul-25 15:30N 32°04' E 120°33'66133031.5
2016-Jul-25 15:29N 22°56' E 113°36'66133537.5
2016-Jul-25 15:28N 31°27' E 121°28'444070.6
2016-Jul-25 15:27N 31°58' E 120°51'54438.6
2016-Jul-25 15:20N 31°18' E 121°33'60904.5
2016-Jul-25 15:16N 32°01' E 120°45'56333.4
2016-Jul-25 15:06N 31°23' E 121°34'5093.6
2016-Jul-25 14:33N 31°58' E 120°51'353484.1
2016-Jul-25 14:33N 31°33' E 121°19'462332578.7
2016-Jul-25 14:33N 24°25' E 118°04'45927086.4
2016-Jul-25 14:32N 31°26' E 121°29'659395336.6
2016-Jul-25 14:31N 23°04' E 113°29'65730717.5
2016-Jul-25 14:30N 32°01' E 120°36'6607429.8
2016-Jul-25 14:25N 22°56' E 113°36'6659809.0
2016-Jul-25 14:21N 31°22' E 121°41'60389.1
2016-Jul-25 14:12N 32°01' E 120°48'478753.1
2016-Jul-25 13:33N 24°25' E 118°04'4627806.2
2016-Jul-25 13:30N 31°33' E 121°19'161605.9
2016-Jul-25 13:29N 31°21' E 121°32'5930572.3
2016-Jul-25 13:29N 32°00' E 120°39'6585862.0
2016-Jul-25 13:22N 23°04' E 113°29'65847408.6
2016-Jul-25 13:22N 31°33' E 121°20'36252.5
2016-Jul-25 13:13N 31°58' E 120°51'27190.8
2016-Jul-25 13:05N 31°39' E 121°13'3364.1
2016-Jul-25 12:33N 32°01' E 120°44'477122739.9
2016-Jul-25 12:33N 24°25' E 118°04'47721714.8
2016-Jul-25 12:32N 31°58' E 120°51'28457.0
2016-Jul-25 12:28N 31°38' E 121°14'0370.3
2016-Jul-25 12:28N 31°38' E 121°14'1231004.7
2016-Jul-25 12:21N 29°43' E 122°02'1504831.9
2016-Jul-25 12:19N 31°59' E 120°49'582401.8
2016-Jul-25 12:18N 31°22' E 121°41'665132969.6
2016-Jul-25 12:17N 22°56' E 113°36'261353.3
2016-Jul-25 11:33N 24°25' E 118°04'47614916.1
2016-Jul-25 11:31N 31°58' E 120°51'66555690.1
2016-Jul-25 11:30N 22°56' E 113°36'66610162.7
2016-Jul-25 11:26N 31°60' E 120°50'581289.4
2016-Jul-25 11:24N 31°22' E 121°41'66230571.5
2016-Jul-25 11:22N 23°04' E 113°29'6191945.9
2016-Jul-25 11:03N 29°53' E 122°08'394795.6
2016-Jul-25 10:34N 24°25' E 118°04'3936205.6
2016-Jul-25 10:30N 29°55' E 122°04'61779301.6
2016-Jul-25 10:29N 23°04' E 113°30'63920173.0
2016-Jul-25 10:27N 31°58' E 120°06'64312307.1
2016-Jul-25 10:24N 22°56' E 113°36'10313.3
2016-Jul-25 10:22N 23°04' E 113°29'6624766.1
2016-Jul-25 10:14N 31°58' E 120°51'133196.0
2016-Jul-25 09:33N 29°57' E 121°55'13359802.4
2016-Jul-25 09:33N 31°58' E 120°51'665149668.3
2016-Jul-25 09:33N 22°56' E 113°36'26149504.0
2016-Jul-25 09:33N 24°25' E 118°04'26412520.1
2016-Jul-25 09:31N 23°04' E 113°29'113.7
2016-Jul-25 09:28N 23°04' E 113°30'64029184.9
2016-Jul-25 09:27N 31°57' E 120°10'811025.8
2016-Jul-25 09:22N 31°18' E 121°33'58454.5
2016-Jul-25 09:15N 32°00' E 120°47'478697.1
2016-Jul-25 08:33N 24°25' E 118°04'541114.5
2016-Jul-25 08:30N 24°48' E 118°58'31529850.7
2016-Jul-25 08:30N 22°56' E 113°36'6639820.9
2016-Jul-25 08:26N 31°40' E 121°13'66020662.3
2016-Jul-25 08:24N 23°04' E 113°29'66210988.8
2016-Jul-25 08:20N 31°22' E 121°41'551080.0
2016-Jul-25 08:17N 31°58' E 120°52'5243720.0
2016-Jul-25 08:09N 23°44' E 117°33'5176325.4
2016-Jul-25 08:04N 31°46' E 121°03'428827.8
2016-Jul-25 07:33N 24°53' E 118°57'31614978.0
2016-Jul-25 07:32N 22°56' E 113°36'66358210.9
2016-Jul-25 07:31N 31°44' E 121°07'197472.4
2016-Jul-25 07:31N 31°58' E 120°52'32114831.1
2016-Jul-25 07:31N 31°57' E 120°14'58104629.4
2016-Jul-25 07:31N 31°36' E 121°18'66011309.1
2016-Jul-25 07:27N 23°04' E 113°30'1166.3
2016-Jul-25 07:27N 23°04' E 113°29'660741.2
2016-Jul-25 06:33N 31°41' E 121°11'2512968.0
2016-Jul-25 06:33N 31°59' E 120°50'3912821.9
2016-Jul-25 06:33N 31°32' E 121°23'6110047.2
2016-Jul-25 06:33N 31°58' E 120°18'4321553691.2
2016-Jul-25 06:33N 24°53' E 118°57'5612557.3
2016-Jul-25 06:33N 24°25' E 118°04'26123514.6
2016-Jul-25 06:32N 22°56' E 113°36'1056.0
2016-Jul-25 06:22N 23°04' E 113°30'6562567.1
2016-Jul-25 06:06N 31°21' E 121°31'455829.4
2016-Jul-25 05:33N 24°25' E 118°04'46646588.5
2016-Jul-25 05:33N 31°39' E 121°14'23437.3
2016-Jul-25 05:30N 31°21' E 121°31'6591185860.2
2016-Jul-25 05:30N 22°56' E 113°36'6538028.8
2016-Jul-25 05:25N 32°01' E 120°22'9142.4
2016-Jul-25 05:21N 31°56' E 120°14'5671.4
2016-Jul-25 04:34N 31°38' E 121°17'3137355.9
2016-Jul-25 04:33N 31°59' E 120°50'47761334.8
2016-Jul-25 04:33N 24°25' E 118°04'2618550.8
2016-Jul-25 04:31N 22°56' E 113°36'65827246.4
2016-Jul-25 04:30N 31°22' E 121°29'285.8
2016-Jul-25 04:28N 31°24' E 121°31'4154568.2
2016-Jul-25 04:23N 24°51' E 118°58'43960754.5
2016-Jul-25 04:22N 32°03' E 120°26'761220.2
2016-Jul-25 04:18N 31°22' E 121°41'9681.2
2016-Jul-25 04:18N 31°21' E 121°31'4706.7
2016-Jul-25 04:17N 31°18' E 121°33'453617.9
2016-Jul-25 03:33N 24°25' E 118°04'46616445.7
2016-Jul-25 03:32N 31°38' E 121°17'66491943.1
2016-Jul-25 03:31N 22°56' E 113°36'659395286.7
2016-Jul-25 03:31N 31°21' E 121°31'514999.0
2016-Jul-25 03:30N 31°59' E 120°50'18235.7
2016-Jul-25 03:26N 32°04' E 120°29'65626242.0
2016-Jul-25 03:24N 23°04' E 113°30'31811116.7
2016-Jul-25 03:23N 24°51' E 118°57'5567.5
2016-Jul-25 02:33N 24°25' E 118°04'46637277.0
2016-Jul-25 02:33N 31°38' E 121°17'66432746.8
2016-Jul-25 02:32N 22°56' E 113°36'65923026.4
2016-Jul-25 02:30N 31°21' E 121°31'41515902.8
2016-Jul-25 02:28N 24°49' E 118°57'3058256.1
2016-Jul-25 02:26N 22°19' E 114°07'68262925.4
2016-Jul-25 02:25N 31°59' E 120°50'477549.2
2016-Jul-25 01:33N 24°25' E 118°04'46664517.1
2016-Jul-25 01:33N 31°38' E 121°17'67845212.4
2016-Jul-25 01:32N 22°19' E 114°07'67239636.5
2016-Jul-25 01:31N 31°21' E 121°31'5110879.3
2016-Jul-25 01:31N 31°59' E 120°50'665479120.2
2016-Jul-25 01:31N 22°56' E 113°36'1042.2
2016-Jul-25 01:16N 23°04' E 113°29'264366.8
2016-Jul-25 00:33N 24°25' E 118°04'45532759.8
2016-Jul-25 00:32N 31°21' E 121°31'504302436.9
2016-Jul-25 00:32N 23°44' E 117°32'525314947.5
2016-Jul-25 00:32N 31°59' E 120°50'68272180.3
2016-Jul-25 00:32N 22°19' E 114°07'67849826.6
2016-Jul-25 00:31N 31°38' E 121°17'6649159.1
2016-Jul-25 00:27N 22°56' E 113°36'6455388.3
2016-Jul-25 00:19N 31°57' E 120°12'6506174.0
2016-Jul-25 00:13N 22°53' E 113°31'12262.7
2016-Jul-25 00:10N 23°04' E 113°29'264422.6
2016-Jul-24 23:33N 24°25' E 118°04'26115676.4
2016-Jul-24 23:32N 22°56' E 113°36'665598904.6
2016-Jul-24 23:32N 31°59' E 120°50'671241668.9
2016-Jul-24 23:32N 22°55' E 113°27'66585512.7
2016-Jul-24 23:31N 31°21' E 121°31'73716.5
2016-Jul-24 23:25N 31°58' E 120°17'64514240.2
2016-Jul-24 23:22N 23°04' E 113°29'581220.8
2016-Jul-24 23:20N 22°19' E 114°07'67861035.7
2016-Jul-24 23:19N 31°38' E 121°17'34981.8
2016-Jul-24 23:17N 32°01' E 120°48'60818.7
2016-Jul-24 23:12N 31°22' E 121°41'5788.0
2016-Jul-24 22:33N 31°59' E 120°50'477245353.8
2016-Jul-24 22:33N 24°25' E 118°04'46618038.1
2016-Jul-24 22:32N 31°38' E 121°17'21250.4
2016-Jul-24 22:27N 31°21' E 121°31'659139513.0
2016-Jul-24 22:27N 22°56' E 113°36'65998867.7
2016-Jul-24 22:26N 31°26' E 121°25'6574139.1
2016-Jul-24 22:17N 23°04' E 113°29'264366.8
2016-Jul-24 21:33N 24°25' E 118°04'47768697.6
2016-Jul-24 21:33N 31°59' E 120°50'311834.4
2016-Jul-24 21:32N 31°38' E 121°17'67849828.9
2016-Jul-24 21:31N 22°19' E 114°07'6728086.2
2016-Jul-24 21:26N 31°21' E 121°31'9322.7
2016-Jul-24 21:25N 31°22' E 121°41'66291724.2
2016-Jul-24 21:24N 23°04' E 113°29'10200.8
2016-Jul-24 21:21N 22°56' E 113°36'6622998.1
2016-Jul-24 21:08N 31°22' E 121°36'6621154.8
2016-Jul-24 20:34N 22°56' E 113°36'26194057.7
2016-Jul-24 20:33N 24°25' E 118°04'47790391.4
2016-Jul-24 20:33N 31°59' E 120°50'5137002.3
2016-Jul-24 20:33N 31°21' E 121°31'657147720.0
2016-Jul-24 20:33N 23°03' E 113°31'2 6.0
2016-Jul-24 20:13N 23°04' E 113°29'264397.3
2016-Jul-24 19:33N 24°25' E 118°04'477132105.7
2016-Jul-24 19:33N 31°59' E 120°50'66566545.4
2016-Jul-24 19:33N 22°56' E 113°36'65920804.6
2016-Jul-24 19:31N 31°21' E 121°31'65618316.1
2016-Jul-24 19:28N 23°04' E 113°29'6572213.0
2016-Jul-24 19:11N 31°26' E 121°25'20234.1
2016-Jul-24 19:05N 31°42' E 121°09'467854.5
2016-Jul-24 18:33N 24°25' E 118°04'4666931.8
2016-Jul-24 18:29N 31°40' E 121°13'281000.9
2016-Jul-24 18:27N 31°59' E 120°50'665299456.6
2016-Jul-24 18:27N 22°56' E 113°36'6635473.4
2016-Jul-24 18:20N 31°38' E 121°15'22268.7
2016-Jul-24 18:15N 31°21' E 121°31'44926079.9
2016-Jul-24 18:14N 38°50' E 121°32'8841316.2
2016-Jul-24 17:33N 24°25' E 118°04'88467707.6
2016-Jul-24 17:33N 38°51' E 121°32'43529011.9
2016-Jul-24 17:32N 31°36' E 121°18'181327.4
2016-Jul-24 17:31N 31°21' E 121°31'171236.8
2016-Jul-24 17:30N 31°35' E 121°19'345885.1
2016-Jul-24 17:30N 31°59' E 120°50'2560.6
2016-Jul-24 17:05N 31°41' E 121°10'2446.5
2016-Jul-24 16:33N 31°23' E 121°30'4571644150.4
2016-Jul-24 16:33N 24°25' E 118°04'884265322.2
2016-Jul-24 16:33N 38°51' E 121°33'53279842.3
2016-Jul-24 16:33N 29°59' E 121°58'9887973.8
2016-Jul-24 16:33N 31°32' E 121°22'391216.4
2016-Jul-24 16:31N 31°59' E 120°50'398878.6
2016-Jul-24 16:30N 31°31' E 121°23'66211035.4
2016-Jul-24 16:27N 22°56' E 113°36'6631854.1
2016-Jul-24 16:05N 31°41' E 121°11'467872.1
2016-Jul-24 15:33N 24°25' E 118°04'3951420232.1
2016-Jul-24 15:33N 29°54' E 122°09'53812334.7
2016-Jul-24 15:31N 38°51' E 121°34'44431352.0
2016-Jul-24 15:30N 31°27' E 121°28'5267.7
2016-Jul-24 15:29N 31°30' E 121°24'175631.7
2016-Jul-24 15:28N 31°22' E 121°41'571504.0
2016-Jul-24 15:26N 31°59' E 120°50'45264.3
2016-Jul-24 15:16N 31°28' E 121°29'3 4.7
2016-Jul-24 14:33N 31°25' E 121°31'10510169.3
2016-Jul-24 14:33N 29°44' E 122°03'38472783.5
2016-Jul-24 14:33N 24°25' E 118°04'477286229.0
2016-Jul-24 14:32N 31°59' E 120°50'402238.4
2016-Jul-24 14:31N 31°30' E 121°24'440198044.9
2016-Jul-24 14:31N 38°50' E 121°33'10383738519.7
2016-Jul-24 14:31N 22°56' E 113°36'471890.0
2016-Jul-24 14:30N 22°19' E 114°07'6776484.1
2016-Jul-24 14:23N 31°41' E 121°11'104380.6
2016-Jul-24 14:07N 30°05' E 121°55'782777.8
2016-Jul-24 14:05N 31°22' E 121°41'82153.3
2016-Jul-24 13:33N 30°01' E 121°60'39654891.9
2016-Jul-24 13:33N 24°25' E 118°04'45516540.7
2016-Jul-24 13:31N 31°20' E 121°33'67218750.6
2016-Jul-24 13:29N 22°19' E 114°07'68261347.1
2016-Jul-24 13:28N 31°59' E 120°50'66516186.0
2016-Jul-24 13:26N 22°56' E 113°36'1038533954.9
2016-Jul-24 13:26N 38°50' E 121°33'4408795.4
2016-Jul-24 13:23N 31°30' E 121°24'66821486.6
2016-Jul-24 13:21N 22°55' E 113°25'6205338.0
2016-Jul-24 13:14N 29°41' E 122°07'1032967.3
2016-Jul-24 13:12N 31°22' E 121°41'459719.6
2016-Jul-24 12:34N 24°25' E 118°04'883212025.3
2016-Jul-24 12:33N 38°50' E 121°33'53677170.9
2016-Jul-24 12:33N 29°55' E 122°07'14028098.5
2016-Jul-24 12:33N 31°59' E 120°50'67156142.3
2016-Jul-24 12:32N 22°54' E 113°29'659118572.5
2016-Jul-24 12:32N 31°15' E 121°30'66614267.7
2016-Jul-24 12:29N 22°19' E 114°07'48630.0
2016-Jul-24 12:24N 22°56' E 113°36'6646907.6
2016-Jul-24 12:18N 31°38' E 121°18'9764.0
2016-Jul-24 12:18N 31°30' E 121°24'76582.6
2016-Jul-24 12:10N 31°59' E 120°01'466764.6
2016-Jul-24 11:33N 24°25' E 118°04'466167670.5
2016-Jul-24 11:33N 31°38' E 121°18'664119519.0
2016-Jul-24 11:33N 22°56' E 113°36'61559864.1
2016-Jul-24 11:32N 29°48' E 122°05'62210268.3
2016-Jul-24 11:29N 22°19' E 114°07'68225298.1
2016-Jul-24 11:27N 31°59' E 120°50'1466104.4
2016-Jul-24 11:26N 29°48' E 122°04'1082892.3
2016-Jul-24 11:23N 31°30' E 121°24'71649.6
2016-Jul-24 11:17N 31°58' E 120°06'64215606.2
2016-Jul-24 11:14N 23°00' E 113°31'264387.3
2016-Jul-24 10:33N 24°25' E 118°04'395203142.3
2016-Jul-24 10:33N 29°55' E 122°08'62135483.8
2016-Jul-24 10:32N 22°56' E 113°36'662595512.9
2016-Jul-24 10:32N 31°30' E 121°24'659339009.6
2016-Jul-24 10:32N 23°03' E 113°30'641144249.5
2016-Jul-24 10:32N 31°57' E 120°11'33379.5
2016-Jul-24 10:27N 31°59' E 120°50'322342.3
2016-Jul-24 10:26N 31°38' E 121°18'6784343.4
2016-Jul-24 10:16N 22°19' E 114°07'67711497.5
2016-Jul-24 10:13N 31°45' E 121°05'6597506.5
2016-Jul-24 10:08N 23°04' E 113°30'6611165.3
2016-Jul-24 09:34N 31°38' E 121°18'466111789.6
2016-Jul-24 09:33N 24°25' E 118°04'392352647.1
2016-Jul-24 09:33N 29°58' E 121°56'1342695.0
2016-Jul-24 09:30N 31°59' E 120°50'283550.0
2016-Jul-24 09:30N 31°58' E 120°17'66626936.9
2016-Jul-24 09:28N 22°19' E 114°07'585335.3
2016-Jul-24 09:28N 23°04' E 113°29'6587899.5
2016-Jul-24 09:23N 31°28' E 121°25'6617298.5
2016-Jul-24 09:17N 22°56' E 113°36'6632889.1
2016-Jul-24 09:03N 31°41' E 121°11'467934.8
2016-Jul-24 08:33N 24°25' E 118°04'2707788.0
2016-Jul-24 08:31N 23°02' E 113°23'667800732.8
2016-Jul-24 08:31N 31°59' E 120°50'66516297.3
2016-Jul-24 08:29N 22°56' E 113°36'653588025.4
2016-Jul-24 08:29N 32°01' E 120°22'67154894.0
2016-Jul-24 08:28N 22°19' E 114°07'66013733.8
2016-Jul-24 08:25N 31°59' E 120°01'63848833.9
2016-Jul-24 08:24N 23°04' E 113°30'66125315.4
2016-Jul-24 08:23N 31°38' E 121°18'466565.2
2016-Jul-24 07:33N 24°25' E 118°04'46615820.3
2016-Jul-24 07:32N 31°38' E 121°18'66113444.4
2016-Jul-24 07:29N 23°04' E 113°30'658789631.8
2016-Jul-24 07:29N 31°28' E 121°25'75294.0
2016-Jul-24 07:13N 31°58' E 120°05'466696.9
2016-Jul-24 06:33N 24°25' E 118°04'46418998.2
2016-Jul-24 06:32N 31°36' E 121°17'1150.6
2016-Jul-24 06:31N 31°38' E 121°18'66495625.1
2016-Jul-24 06:31N 22°56' E 113°36'64313162.3
2016-Jul-24 06:28N 31°57' E 120°08'7214318.4
2016-Jul-24 06:28N 31°28' E 121°25'41308.7
2016-Jul-24 06:20N 31°58' E 120°51'477617.6
2016-Jul-24 05:33N 24°25' E 118°04'261188116.8
2016-Jul-24 05:33N 22°56' E 113°36'481525.1
2016-Jul-24 05:31N 22°18' E 114°08'67823010.5
2016-Jul-24 05:30N 31°41' E 121°11'66015032.1
2016-Jul-24 05:27N 23°04' E 113°30'661139986.1
2016-Jul-24 05:27N 31°38' E 121°18'32437.3
2016-Jul-24 05:22N 31°59' E 120°50'477585.1
2016-Jul-24 04:33N 24°25' E 118°04'2516952.4
2016-Jul-24 04:31N 22°18' E 114°08'67823912.7
2016-Jul-24 04:29N 31°41' E 121°11'66332248.3
2016-Jul-24 04:28N 22°56' E 113°36'101237.4
2016-Jul-24 04:28N 23°04' E 113°30'66113676.0
2016-Jul-24 04:25N 31°38' E 121°18'324264.8
2016-Jul-24 04:24N 31°59' E 120°50'431546.7
2016-Jul-24 04:23N 31°28' E 121°25'651133.5
2016-Jul-24 04:19N 31°58' E 120°17'645842.1
2016-Jul-24 03:33N 23°03' E 113°30'264237423.7
2016-Jul-24 03:33N 24°25' E 118°04'4771717783.9
2016-Jul-24 03:33N 31°59' E 120°50'325006.5
2016-Jul-24 03:33N 31°38' E 121°18'66423905.8
2016-Jul-24 03:31N 22°56' E 113°36'66322727.4
2016-Jul-24 03:29N 31°41' E 121°11'6788934.4
2016-Jul-24 03:25N 22°18' E 114°08'67425027.2
2016-Jul-24 03:23N 31°28' E 121°25'634727.3
2016-Jul-24 03:22N 32°00' E 120°21'15285.8
2016-Jul-24 03:19N 32°00' E 120°39'65845531.3
2016-Jul-24 03:18N 23°04' E 113°30'65510341.6
2016-Jul-24 03:15N 31°18' E 121°33'453660.2
2016-Jul-24 02:33N 24°25' E 118°04'26810710.6
2016-Jul-24 02:32N 23°04' E 113°25'4414.9
2016-Jul-24 02:31N 23°04' E 113°30'660339498.0
2016-Jul-24 02:31N 32°01' E 120°43'384516.8
2016-Jul-24 02:31N 31°38' E 121°18'32615.8
2016-Jul-24 02:28N 31°59' E 120°50'431278.1
2016-Jul-24 02:26N 31°28' E 121°25'6614905.9
2016-Jul-24 02:18N 22°56' E 113°36'6659142.4
2016-Jul-24 02:13N 31°59' E 120°49'6827968.2
2016-Jul-24 02:08N 22°18' E 114°08'67811344.5
2016-Jul-24 02:04N 31°41' E 121°11'467899.2
2016-Jul-24 01:33N 24°25' E 118°04'47766068.6
2016-Jul-24 01:33N 31°59' E 120°50'321096.7
2016-Jul-24 01:31N 31°38' E 121°18'701485.6
2016-Jul-24 01:28N 31°60' E 120°00'4129242.8
2016-Jul-24 01:28N 32°01' E 120°48'22915.8
2016-Jul-24 01:27N 32°01' E 120°22'6714938.8
2016-Jul-24 01:19N 22°18' E 114°08'6784998.1
2016-Jul-24 01:10N 31°41' E 121°11'47447401.9
2016-Jul-24 01:10N 39°05' E 117°45'4917179.4
2016-Jul-24 01:06N 31°28' E 121°25'65814449.1
2016-Jul-24 01:03N 23°04' E 113°29'264536.5
2016-Jul-24 00:33N 24°25' E 118°04'26152253.9
2016-Jul-24 00:33N 22°56' E 113°36'481914.8
2016-Jul-24 00:32N 22°18' E 114°08'67819689.8
2016-Jul-24 00:30N 31°38' E 121°18'1384.2
2016-Jul-24 00:21N 31°26' E 121°25'458579.2
2016-Jul-23 23:33N 24°25' E 118°04'261235142.5
2016-Jul-23 23:33N 22°56' E 113°36'66416954.5
2016-Jul-23 23:31N 31°38' E 121°18'67865987.5
2016-Jul-23 23:30N 22°18' E 114°08'582107.6
2016-Jul-23 23:29N 23°04' E 113°29'6624703.1
2016-Jul-23 23:20N 31°22' E 121°41'15207.9
2016-Jul-23 23:16N 31°28' E 121°25'460651.8
2016-Jul-23 22:34N 24°25' E 118°04'26123514.2
2016-Jul-23 22:33N 22°56' E 113°36'6618620.7
2016-Jul-23 22:28N 31°28' E 121°25'11213.3
2016-Jul-23 22:25N 31°38' E 121°18'6782283.9
2016-Jul-23 22:07N 22°18' E 114°08'251440.4
2016-Jul-23 21:33N 24°25' E 118°04'46631049.5
2016-Jul-23 21:32N 31°38' E 121°18'7612.9
2016-Jul-23 21:31N 31°41' E 121°11'666399437.1
2016-Jul-23 21:31N 23°02' E 113°22'6118271.9
2016-Jul-23 21:31N 22°18' E 114°08'67475864.8
2016-Jul-23 21:31N 31°28' E 121°25'66119034.7
2016-Jul-23 21:29N 22°56' E 113°36'6656400.0
2016-Jul-23 21:22N 31°56' E 120°52'542785.7
2016-Jul-23 21:21N 31°22' E 121°41'663832.2
2016-Jul-23 20:33N 23°05' E 113°28'265238578.2
2016-Jul-23 20:33N 24°25' E 118°04'261188114.0
2016-Jul-23 20:33N 22°56' E 113°36'1039934736.7
2016-Jul-23 20:33N 38°51' E 121°33'106430389.5
2016-Jul-23 20:31N 22°18' E 114°08'67431124.0
2016-Jul-23 20:30N 31°28' E 121°25'22267.9
2016-Jul-23 20:25N 31°44' E 121°07'11372.7
2016-Jul-23 20:23N 31°38' E 121°18'22813.3
2016-Jul-23 20:21N 31°22' E 121°36'457572.6
2016-Jul-23 19:33N 24°25' E 118°04'884530664.5
2016-Jul-23 19:33N 38°51' E 121°33'43147042.6
2016-Jul-23 19:33N 31°40' E 121°13'5290.6
2016-Jul-23 19:32N 31°38' E 121°18'7198.2
2016-Jul-23 19:29N 31°41' E 121°11'66325405.1
2016-Jul-23 19:28N 22°58' E 113°32'4218.3
2016-Jul-23 19:27N 22°56' E 113°36'6612832.5
2016-Jul-23 19:13N 31°28' E 121°25'2178.3
2016-Jul-23 19:12N 31°26' E 121°25'65622721.6
2016-Jul-23 19:10N 23°04' E 113°29'1016.5
2016-Jul-23 18:34N 22°56' E 113°36'261313523.3
2016-Jul-23 18:33N 24°25' E 118°04'88441864.0
2016-Jul-23 18:32N 38°50' E 121°32'41328055.2
2016-Jul-23 18:31N 31°59' E 120°50'68264598.7
2016-Jul-23 18:31N 22°18' E 114°08'67231853.2
2016-Jul-23 18:29N 31°26' E 121°25'50696.7
2016-Jul-23 18:25N 32°01' E 120°42'44196.4
2016-Jul-23 18:12N 31°32' E 121°21'6774.7
2016-Jul-23 18:11N 31°38' E 121°18'4262.3
2016-Jul-23 18:10N 31°40' E 121°13'15206.7
2016-Jul-23 18:06N 31°28' E 121°25'460854.5
2016-Jul-23 17:33N 24°25' E 118°04'4781719008.6
2016-Jul-23 17:33N 32°00' E 120°45'665149524.3
2016-Jul-23 17:33N 22°56' E 113°36'66169990.5
2016-Jul-23 17:33N 31°29' E 121°24'17455.7
2016-Jul-23 17:30N 31°41' E 121°11'42949851.0
2016-Jul-23 17:30N 38°50' E 121°33'43511860.9
2016-Jul-23 17:28N 31°36' E 121°18'6768986.2
2016-Jul-23 17:23N 22°18' E 114°08'6787139.2
2016-Jul-23 17:17N 31°38' E 121°18'65635.6
2016-Jul-23 17:11N 31°58' E 120°05'63979287.8
2016-Jul-23 17:11N 23°04' E 113°29'65832460.4
2016-Jul-23 17:10N 31°28' E 121°25'459759.9
2016-Jul-23 16:33N 24°25' E 118°04'46151905.1
2016-Jul-23 16:33N 31°31' E 121°24'979720.7
2016-Jul-23 16:32N 29°58' E 121°59'10619992.9
2016-Jul-23 16:32N 31°38' E 121°18'66454333.7
2016-Jul-23 16:31N 22°56' E 113°36'661118963.6
2016-Jul-23 16:31N 31°28' E 121°25'67421109.3
2016-Jul-23 16:29N 22°18' E 114°08'106356287.7
2016-Jul-23 16:28N 38°50' E 121°33'4121998.1
2016-Jul-23 16:15N 32°01' E 120°32'412587.4
2016-Jul-23 15:33N 38°51' E 121°33'884127327.9
2016-Jul-23 15:33N 24°25' E 118°04'39454594.1
2016-Jul-23 15:32N 29°53' E 122°09'621131432.3
2016-Jul-23 15:32N 22°56' E 113°36'65458891.3
2016-Jul-23 15:32N 32°01' E 120°24'5230904.4
2016-Jul-23 15:31N 31°38' E 121°18'16259.5
2016-Jul-23 15:28N 31°26' E 121°30'534.0
2016-Jul-23 15:19N 31°28' E 121°25'6744816.6
2016-Jul-23 15:11N 22°18' E 114°08'67720837.5
2016-Jul-23 15:09N 31°22' E 121°41'6651133.2
2016-Jul-23 14:34N 22°56' E 113°36'1039415559.8
2016-Jul-23 14:33N 38°51' E 121°34'884227370.6
2016-Jul-23 14:33N 24°25' E 118°04'383125392.0
2016-Jul-23 14:33N 29°43' E 122°02'16213525.3
2016-Jul-23 14:32N 31°56' E 120°15'43011732.4
2016-Jul-23 14:30N 24°51' E 119°01'4181505488.1
2016-Jul-23 14:30N 31°30' E 121°24'675303639.2
2016-Jul-23 14:30N 22°18' E 114°08'678110978.1
2016-Jul-23 14:30N 31°38' E 121°18'713018.0
2016-Jul-23 14:29N 31°41' E 121°11'6607565.9
2016-Jul-23 14:24N 23°04' E 113°29'6589009.7
2016-Jul-23 14:20N 31°28' E 121°25'15430.8
2016-Jul-23 14:18N 31°22' E 121°41'423573.5
2016-Jul-23 13:34N 24°45' E 118°54'857617191.7
2016-Jul-23 13:33N 38°51' E 121°34'885637016.4
2016-Jul-23 13:33N 24°25' E 118°04'261117571.2
2016-Jul-23 13:33N 22°56' E 113°36'665113968.6
2016-Jul-23 13:33N 31°22' E 121°41'839343.5
2016-Jul-23 13:32N 31°57' E 120°13'683026.6
2016-Jul-23 13:31N 31°28' E 121°25'7361.7
2016-Jul-23 13:30N 31°22' E 121°30'197406.8
2016-Jul-23 13:30N 31°38' E 121°18'661606.6
2016-Jul-23 13:27N 31°57' E 120°04'638164032.0
2016-Jul-23 13:27N 23°04' E 113°29'61042210.4
2016-Jul-23 13:26N 29°41' E 122°05'61710627.6
2016-Jul-23 13:23N 22°18' E 114°08'6758376.3
2016-Jul-23 13:18N 31°30' E 121°24'460624.3
2016-Jul-23 12:33N 24°25' E 118°04'88593658.9
2016-Jul-23 12:33N 38°51' E 121°33'43478030.1
2016-Jul-23 12:33N 31°38' E 121°18'1185828.9
2016-Jul-23 12:31N 29°46' E 122°04'61343246.7
2016-Jul-23 12:31N 22°56' E 113°36'48219.8
2016-Jul-23 12:17N 22°18' E 114°08'67842790.8
2016-Jul-23 12:17N 31°41' E 121°11'25985.7
2016-Jul-23 12:15N 31°22' E 121°30'1017273.6
2016-Jul-23 12:15N 31°22' E 121°41'66236683.0
2016-Jul-23 12:14N 23°04' E 113°29'65838861.1
2016-Jul-23 12:13N 31°30' E 121°24'2199.0
2016-Jul-23 12:12N 31°28' E 121°25'652589.5
2016-Jul-23 12:11N 31°57' E 120°16'2 3.8
2016-Jul-23 11:34N 31°58' E 120°18'469844238.4
2016-Jul-23 11:33N 24°25' E 118°04'39540578.7
2016-Jul-23 11:33N 29°54' E 122°08'6212234623.5
2016-Jul-23 11:33N 22°56' E 113°36'661264485.3
2016-Jul-23 11:33N 31°30' E 121°24'9271.0
2016-Jul-23 11:31N 31°38' E 121°18'67978812.7
2016-Jul-23 11:30N 22°48' E 113°21'680271864.2
2016-Jul-23 11:30N 31°22' E 121°41'67759463.6
2016-Jul-23 11:29N 22°18' E 114°08'6742405.9
2016-Jul-23 11:13N 31°28' E 121°25'658338510.4
2016-Jul-23 11:12N 23°04' E 113°29'6566673.2
2016-Jul-23 11:06N 31°22' E 121°30'2 3.6
2016-Jul-23 10:33N 31°24' E 121°31'457164646.1
2016-Jul-23 10:33N 24°25' E 118°04'26137622.8
2016-Jul-23 10:33N 22°56' E 113°36'616158487.5
2016-Jul-23 10:33N 29°58' E 121°58'37961952.4
2016-Jul-23 10:32N 24°26' E 118°33'45014213.7
2016-Jul-23 10:30N 31°30' E 121°24'16242.4
2016-Jul-23 10:26N 31°41' E 121°11'332090.7
2016-Jul-23 10:25N 31°22' E 121°41'6778921.5
2016-Jul-23 10:21N 22°19' E 114°09'250314.5
2016-Jul-23 09:33N 24°25' E 118°04'202194.2
2016-Jul-23 09:33N 24°23' E 118°25'2797788.9
2016-Jul-23 09:31N 22°56' E 113°36'66121440.8
2016-Jul-23 09:29N 31°28' E 121°25'181403.9
2016-Jul-23 09:28N 31°41' E 121°11'332544.9
2016-Jul-23 09:27N 31°22' E 121°41'8121.0
2016-Jul-23 09:23N 31°25' E 121°33'100602.5
2016-Jul-23 09:13N 29°49' E 122°05'59649908.3
2016-Jul-23 09:12N 39°05' E 117°45'8801350.9
2016-Jul-23 08:33N 24°25' E 118°04'13961.4
2016-Jul-23 08:33N 24°21' E 118°17'46738204.0
2016-Jul-23 08:32N 31°43' E 121°06'66229795.5
2016-Jul-23 08:31N 22°56' E 113°36'10605.8
2016-Jul-23 08:30N 23°04' E 113°29'6598290.5
2016-Jul-23 08:25N 31°30' E 121°23'0171.9
2016-Jul-23 08:25N 31°30' E 121°24'10211456.8
2016-Jul-23 08:24N 29°55' E 122°07'89685.2
2016-Jul-23 08:16N 31°22' E 121°41'67057398.5
2016-Jul-23 08:16N 22°52' E 113°33'265377.3
2016-Jul-23 07:33N 24°25' E 118°04'5344.7
2016-Jul-23 07:33N 24°22' E 118°09'46075247.4
2016-Jul-23 07:32N 31°25' E 121°33'882373.5
2016-Jul-23 07:30N 30°01' E 122°00'620318711.0
2016-Jul-23 07:30N 22°56' E 113°36'66132167.0
2016-Jul-23 07:29N 31°30' E 121°24'65268.5
2016-Jul-23 07:14N 31°56' E 120°14'512244.4
2016-Jul-23 07:13N 31°41' E 121°12'467711.9
2016-Jul-23 06:33N 24°25' E 118°04'23209.8
2016-Jul-23 06:33N 24°25' E 118°02'46717500.3
2016-Jul-23 06:32N 31°41' E 121°12'66339779.4
2016-Jul-23 06:31N 22°56' E 113°36'66368192.2
2016-Jul-23 06:30N 31°38' E 121°15'27560.5
2016-Jul-23 06:27N 31°22' E 121°41'814480.7
2016-Jul-23 06:27N 31°25' E 121°33'19238.4
2016-Jul-23 06:23N 31°37' E 121°16'1054.3
2016-Jul-23 06:12N 31°30' E 121°24'65842331.5
2016-Jul-23 06:11N 23°04' E 113°29'264162.8
2016-Jul-23 04:33N 24°25' E 118°04'26152253.9
2016-Jul-23 04:33N 22°56' E 113°36'25541796.5
2016-Jul-23 04:33N 24°24' E 117°57'46528355.5
2016-Jul-23 04:32N 31°32' E 121°22'669802340.0
2016-Jul-23 04:32N 22°55' E 113°26'669100417.2
2016-Jul-23 04:31N 31°30' E 121°26'243.6
2016-Jul-23 04:29N 31°30' E 121°24'0 8.1
2016-Jul-23 04:26N 31°30' E 121°24'65814908.9
2016-Jul-23 04:23N 23°04' E 113°29'6604868.4
2016-Jul-23 04:15N 31°25' E 121°33'459665.5
2016-Jul-23 03:33N 24°25' E 118°04'461165977.6
2016-Jul-23 03:33N 31°30' E 121°26'43057.8
2016-Jul-23 03:33N 31°27' E 121°30'7184.2
2016-Jul-23 03:31N 31°30' E 121°24'66921492.9
2016-Jul-23 03:29N 22°55' E 113°25'67224447.8
2016-Jul-23 03:28N 31°22' E 121°41'83000.0
2016-Jul-23 03:27N 31°18' E 121°33'151192.1
2016-Jul-23 03:27N 31°30' E 121°24'661340054.9
2016-Jul-23 03:27N 22°56' E 113°36'66123808.0
2016-Jul-23 03:25N 31°24' E 121°32'541821.6
2016-Jul-23 03:23N 32°00' E 120°44'542865.6
2016-Jul-23 03:22N 31°25' E 121°33'55292.3
2016-Jul-23 03:11N 32°01' E 120°44'478756.3
2016-Jul-23 02:33N 24°25' E 118°04'460138118.1
2016-Jul-23 02:33N 31°30' E 121°24'451583.7
2016-Jul-23 02:31N 32°01' E 120°46'502657.8
2016-Jul-23 02:30N 31°26' E 121°28'12207.8
2016-Jul-23 02:26N 31°22' E 121°41'665239346.6
2016-Jul-23 02:26N 22°56' E 113°36'66168027.1
2016-Jul-23 02:26N 31°30' E 121°24'9161.8
2016-Jul-23 02:22N 31°24' E 121°31'6327.5
2016-Jul-23 02:21N 31°18' E 121°33'4566387.7
2016-Jul-23 02:17N 24°24' E 117°57'2622632.6
2016-Jul-23 02:11N 22°54' E 113°28'268430.9
2016-Jul-23 01:33N 24°25' E 118°04'26116501.4
2016-Jul-23 01:33N 22°56' E 113°36'65826905.7
2016-Jul-23 01:31N 31°18' E 121°33'7446.1
2016-Jul-23 01:30N 31°25' E 121°33'91527.6
2016-Jul-23 01:30N 31°30' E 121°24'46328275.6
2016-Jul-23 01:29N 24°24' E 117°57'4647800.4
2016-Jul-23 01:25N 31°30' E 121°24'6594919.4
2016-Jul-23 01:17N 23°04' E 113°29'6623821.4
2016-Jul-23 01:07N 31°22' E 121°41'181036.3
2016-Jul-23 01:06N 31°31' E 121°23'599572.8
2016-Jul-23 01:05N 32°01' E 120°24'473884.6
2016-Jul-23 00:33N 24°25' E 118°04'46050224.8
2016-Jul-23 00:33N 31°30' E 121°24'1317.6
2016-Jul-23 00:33N 31°31' E 121°23'604922.2
2016-Jul-23 00:32N 31°58' E 120°20'471424270.8
2016-Jul-23 00:32N 24°24' E 117°57'2556076.6
2016-Jul-23 00:29N 22°56' E 113°36'6619193.0
2016-Jul-23 00:25N 31°30' E 121°24'976.0
2016-Jul-23 00:18N 31°25' E 121°33'66540.4
2016-Jul-23 00:10N 31°58' E 120°26'65030377.1
2016-Jul-23 00:09N 23°04' E 113°29'264445.7
2016-Jul-22 23:33N 24°25' E 118°04'26520279.4
2016-Jul-22 23:33N 22°51' E 113°34'53806.4
2016-Jul-22 23:33N 22°56' E 113°36'25518726.1
2016-Jul-22 23:32N 24°24' E 117°57'46316196.5
2016-Jul-22 23:30N 31°30' E 121°24'0 1.6
2016-Jul-22 23:13N 31°30' E 121°24'461702.4
2016-Jul-22 22:33N 24°25' E 118°04'4619162.7
2016-Jul-22 22:30N 31°30' E 121°24'055.3
2016-Jul-22 22:30N 31°30' E 121°24'46323832.3
2016-Jul-22 22:29N 24°24' E 117°57'2557168.6
2016-Jul-22 22:27N 22°56' E 113°36'6599637.9
2016-Jul-22 22:22N 31°21' E 121°31'455556.4
2016-Jul-22 21:33N 24°25' E 118°04'7227.8
2016-Jul-22 21:32N 24°24' E 117°57'46039462.6
2016-Jul-22 21:31N 31°24' E 121°31'5395.6
2016-Jul-22 21:30N 31°21' E 121°26'9105.6
2016-Jul-22 21:25N 31°30' E 121°24'019.8
2016-Jul-22 21:24N 31°30' E 121°24'17639.2
2016-Jul-22 21:22N 31°22' E 121°41'665299179.6
2016-Jul-22 21:22N 22°56' E 113°36'6596683.6
2016-Jul-22 21:16N 31°26' E 121°25'6565216.4
2016-Jul-22 21:08N 23°04' E 113°29'264454.7
2016-Jul-22 20:34N 24°25' E 118°04'7207.9
2016-Jul-22 20:32N 24°24' E 117°57'459150296.3
2016-Jul-22 20:31N 31°23' E 121°30'659148377.0
2016-Jul-22 20:31N 22°56' E 113°36'66345000.3
2016-Jul-22 20:30N 31°25' E 121°33'9100.1
2016-Jul-22 20:25N 31°30' E 121°24'69692822.5
2016-Jul-22 20:24N 22°11' E 113°39'69638568.2
2016-Jul-22 20:23N 31°30' E 121°24'461552.3
2016-Jul-22 19:33N 24°25' E 118°04'2613024.3
2016-Jul-22 19:28N 22°56' E 113°36'66128004.4
2016-Jul-22 19:27N 31°30' E 121°24'1994.5
2016-Jul-22 19:15N 31°43' E 121°08'536.4
2016-Jul-22 19:07N 31°41' E 121°12'466827.1
2016-Jul-22 18:33N 24°25' E 118°04'26129392.8
2016-Jul-22 18:33N 22°56' E 113°36'661793306.0
2016-Jul-22 18:33N 31°32' E 121°20'43374.7
2016-Jul-22 18:33N 31°30' E 121°24'10986.2
2016-Jul-22 18:32N 31°37' E 121°16'4256.9
2016-Jul-22 18:31N 31°40' E 121°12'46910754.5
2016-Jul-22 18:29N 24°24' E 117°57'2586823.2
2016-Jul-22 18:26N 23°04' E 113°29'658197505.4
2016-Jul-22 18:26N 31°24' E 121°30'1265.9
2016-Jul-22 18:16N 31°13' E 121°30'447638.6
2016-Jul-22 17:34N 24°25' E 118°04'46210796.5
2016-Jul-22 17:31N 31°32' E 121°23'5319.0
2016-Jul-22 17:30N 31°35' E 121°18'71077.8
2016-Jul-22 17:30N 31°30' E 121°24'0 3.4
2016-Jul-22 17:22N 31°30' E 121°23'972133.8
2016-Jul-22 17:19N 29°58' E 121°59'98128.5
2016-Jul-22 16:34N 31°31' E 121°24'462830716.2
2016-Jul-22 16:33N 24°25' E 118°04'39574914.9
2016-Jul-22 16:33N 29°55' E 122°07'1111229.5
2016-Jul-22 16:28N 31°37' E 121°16'1033.1
2016-Jul-22 16:10N 31°30' E 121°24'0 8.1
2016-Jul-22 16:07N 31°30' E 121°23'461830.9
2016-Jul-22 15:33N 24°25' E 118°04'45815402.8
2016-Jul-22 15:32N 31°24' E 121°30'1049338.8
2016-Jul-22 15:31N 29°45' E 122°03'9910175.5
2016-Jul-22 15:30N 31°21' E 121°38'151117.0
2016-Jul-22 15:30N 31°30' E 121°24'16684.8
2016-Jul-22 15:28N 31°41' E 121°10'66255450.0
2016-Jul-22 15:28N 22°56' E 113°36'66213771.8
2016-Jul-22 15:25N 31°26' E 121°30'5189.2
2016-Jul-22 15:23N 31°21' E 121°30'656124299.1
2016-Jul-22 15:23N 23°04' E 113°29'6592340.7
2016-Jul-22 15:06N 31°30' E 121°24'114210.0
2016-Jul-22 14:33N 29°42' E 122°04'383229698.8
2016-Jul-22 14:33N 24°25' E 118°04'261188114.0
2016-Jul-22 14:33N 22°56' E 113°36'66252929.0
2016-Jul-22 14:32N 31°25' E 121°31'65919606.3
2016-Jul-22 14:30N 23°04' E 113°29'65867727.4
2016-Jul-22 14:30N 31°30' E 121°24'6598912.9
2016-Jul-22 14:25N 23°04' E 113°29'6394886.9
2016-Jul-22 14:18N 32°03' E 119°57'902013.5
2016-Jul-22 14:15N 31°25' E 121°33'459665.5
2016-Jul-22 13:33N 24°25' E 118°04'460552471.6
2016-Jul-22 13:33N 31°30' E 121°23'10575.0
2016-Jul-22 13:32N 31°25' E 121°33'3112.7
2016-Jul-22 13:31N 31°26' E 121°29'6611190277.6
2016-Jul-22 13:31N 22°56' E 113°36'61455239.2
2016-Jul-22 13:30N 29°47' E 122°04'1084237.1
2016-Jul-22 13:29N 31°30' E 121°24'652.0
2016-Jul-22 13:22N 31°26' E 121°29'741.4
2016-Jul-22 13:12N 31°21' E 121°24'3 3.9
2016-Jul-22 12:33N 31°21' E 121°27'1917079.8
2016-Jul-22 12:33N 31°37' E 121°15'465836289.5
2016-Jul-22 12:33N 24°25' E 118°04'394236372.9
2016-Jul-22 12:33N 29°53' E 122°08'1033378.2
2016-Jul-22 12:31N 31°29' E 121°25'117.0
2016-Jul-22 12:26N 31°30' E 121°23'66111779.6
2016-Jul-22 12:23N 22°56' E 113°36'102961.6
2016-Jul-22 12:23N 23°04' E 113°29'6626587.6
2016-Jul-22 12:17N 31°22' E 121°41'17580.2
2016-Jul-22 12:15N 31°30' E 121°24'461665.8
2016-Jul-22 11:33N 24°25' E 118°04'468280785.5
2016-Jul-22 11:33N 31°44' E 121°06'11842450.6
2016-Jul-22 11:33N 29°56' E 122°00'10221578.1
2016-Jul-22 11:33N 31°32' E 121°21'41266.3
2016-Jul-22 11:33N 31°30' E 121°24'65991186.3
2016-Jul-22 11:32N 23°04' E 113°29'10223.5
2016-Jul-22 11:30N 22°56' E 113°36'66135007.5
2016-Jul-22 11:28N 31°24' E 121°31'9190.9
2016-Jul-22 11:26N 31°22' E 121°41'883.3
2016-Jul-22 11:20N 31°25' E 121°33'67311109.4
2016-Jul-22 11:16N 22°58' E 113°16'65261757.1
2016-Jul-22 11:16N 31°57' E 120°08'6408344.8
2016-Jul-22 11:11N 23°04' E 113°29'65938244.1
2016-Jul-22 11:10N 31°30' E 121°24'6636917.7
2016-Jul-22 11:04N 22°55' E 113°34'66246738.0
2016-Jul-22 11:03N 31°26' E 121°28'458917.1
2016-Jul-22 10:34N 24°25' E 118°04'46031272.8
2016-Jul-22 10:33N 31°30' E 121°24'93115.5
2016-Jul-22 10:32N 31°36' E 121°17'65953938.4
2016-Jul-22 10:32N 23°04' E 113°29'64288856.0
2016-Jul-22 10:31N 31°57' E 120°13'6619681.5
2016-Jul-22 10:31N 31°30' E 121°24'611034.4
2016-Jul-22 10:31N 31°26' E 121°28'12304.5
2016-Jul-22 10:29N 31°22' E 121°41'66542738.8
2016-Jul-22 10:28N 22°56' E 113°36'6632385015.3
2016-Jul-22 10:28N 31°25' E 121°33'67545868.8
2016-Jul-22 10:27N 22°54' E 113°16'16789.8
2016-Jul-22 10:26N 23°04' E 113°29'661758.6
2016-Jul-22 09:33N 31°20' E 121°41'458137331.6
2016-Jul-22 09:33N 24°25' E 118°04'46072019.3
2016-Jul-22 09:33N 31°30' E 121°24'1459.4
2016-Jul-22 09:33N 31°30' E 121°24'66168028.0
2016-Jul-22 09:32N 22°56' E 113°36'66213704.3
2016-Jul-22 09:29N 31°40' E 121°12'24225.2
2016-Jul-22 09:23N 31°21' E 121°31'10782.5
2016-Jul-22 09:22N 31°30' E 121°24'621026.7
2016-Jul-22 09:18N 31°60' E 120°20'712207.2
2016-Jul-22 09:17N 31°25' E 121°33'6779483.0
2016-Jul-22 09:12N 22°49' E 113°20'277424.0
2016-Jul-22 08:33N 24°25' E 118°04'26113831.9
2016-Jul-22 08:32N 22°56' E 113°36'66121640.8
2016-Jul-22 08:30N 31°30' E 121°24'4255.2
2016-Jul-22 08:29N 31°32' E 121°19'443.1
2016-Jul-22 08:24N 31°30' E 121°23'18465.1
2016-Jul-22 08:21N 31°42' E 121°08'467581.7
2016-Jul-22 07:33N 24°25' E 118°04'46136878.0
2016-Jul-22 07:33N 31°32' E 121°19'4262.4
2016-Jul-22 07:32N 31°30' E 121°24'15397.8
2016-Jul-22 07:29N 31°18' E 121°33'65813686.2
2016-Jul-22 07:27N 22°56' E 113°36'6619600.4
2016-Jul-22 07:22N 31°30' E 121°23'1618.8
2016-Jul-22 06:32N 31°21' E 121°38'663265291.6
2016-Jul-22 06:32N 22°56' E 113°36'261131.8
2016-Jul-22 04:33N 24°25' E 118°04'461331705.4
2016-Jul-22 04:33N 31°30' E 121°23'6410924.2
2016-Jul-22 04:33N 31°56' E 120°15'645094.9
2016-Jul-22 04:32N 31°30' E 121°23'661237900.5
2016-Jul-22 04:32N 22°56' E 113°36'64423188.0
2016-Jul-22 04:30N 31°57' E 120°10'6417414.4
2016-Jul-22 04:25N 23°04' E 113°29'65915198.7
2016-Jul-22 04:22N 31°25' E 121°30'7113.0
2016-Jul-22 04:19N 31°30' E 121°24'968.2
2016-Jul-22 04:11N 31°25' E 121°33'459738.4
2016-Jul-22 03:34N 24°25' E 118°04'46030133.9
2016-Jul-22 03:33N 31°30' E 121°24'680.2
2016-Jul-22 03:28N 31°26' E 121°28'66113595.4
2016-Jul-22 03:26N 22°56' E 113°36'10226.9
2016-Jul-22 03:23N 23°04' E 113°29'65918819.2
2016-Jul-22 03:21N 31°30' E 121°24'114898.8
2016-Jul-22 03:21N 31°21' E 121°31'4103.3
2016-Jul-22 03:18N 31°25' E 121°33'46377.8
2016-Jul-22 03:11N 31°55' E 120°52'475761.4
2016-Jul-22 02:34N 24°25' E 118°04'46133169.9
2016-Jul-22 02:33N 31°30' E 121°24'66135014.7
2016-Jul-22 02:32N 22°56' E 113°36'1036536.8
2016-Jul-22 02:32N 23°04' E 113°29'019.0
2016-Jul-22 02:31N 23°04' E 113°29'66355474.7
2016-Jul-22 02:30N 31°60' E 120°49'291339.6
2016-Jul-22 02:29N 31°57' E 120°15'65116870.8
2016-Jul-22 02:26N 22°54' E 113°29'66896180.3
2016-Jul-22 02:26N 31°25' E 121°33'702186.9
2016-Jul-22 02:24N 31°59' E 120°21'66338.5
2016-Jul-22 02:12N 31°26' E 121°28'458706.5
2016-Jul-22 01:33N 24°25' E 118°04'46040425.8
2016-Jul-22 01:33N 31°30' E 121°24'4857504.6
2016-Jul-22 01:33N 31°60' E 120°40'615088.8
2016-Jul-22 01:32N 31°22' E 121°36'662238354.3
2016-Jul-22 01:32N 22°56' E 113°36'10808.1
2016-Jul-22 01:31N 23°04' E 113°29'64154925.4
2016-Jul-22 01:30N 31°56' E 120°12'655.9
2016-Jul-22 01:24N 31°58' E 120°18'712006.3
2016-Jul-22 01:22N 31°25' E 121°33'959.5
2016-Jul-22 01:13N 31°30' E 121°24'141015.4
2016-Jul-22 01:12N 31°23' E 121°38'459717.8
2016-Jul-22 00:34N 24°25' E 118°04'460150668.0
2016-Jul-22 00:33N 31°30' E 121°23'66116077.3
2016-Jul-22 00:31N 22°56' E 113°36'65327980.4
2016-Jul-22 00:29N 32°01' E 120°22'753507.9
2016-Jul-22 00:28N 31°23' E 121°38'221.8
2016-Jul-22 00:23N 31°22' E 121°36'7147.8
2016-Jul-22 00:20N 31°26' E 121°28'6584617.5
2016-Jul-22 00:11N 23°04' E 113°29'6591045.8
2016-Jul-21 23:33N 31°34' E 121°18'463138782.4
2016-Jul-21 23:33N 24°25' E 118°04'46130712.9
2016-Jul-21 23:32N 31°30' E 121°24'66176806.3
2016-Jul-21 23:32N 22°56' E 113°36'6644999.7
2016-Jul-21 23:24N 31°23' E 121°38'66164353.1
2016-Jul-21 23:23N 23°04' E 113°29'64915379.9
2016-Jul-21 23:21N 32°00' E 120°23'5296.2
2016-Jul-21 23:20N 32°04' E 120°27'691436.3
2016-Jul-21 23:17N 31°21' E 121°31'455629.3
2016-Jul-21 22:33N 24°25' E 118°04'465186175.5
2016-Jul-21 22:33N 31°39' E 121°14'12531.4
2016-Jul-21 22:32N 31°30' E 121°23'659182386.8
2016-Jul-21 22:32N 23°04' E 113°29'64423904.3
2016-Jul-21 22:30N 31°57' E 120°17'721011.2
2016-Jul-21 22:26N 31°25' E 121°33'66239098.3
2016-Jul-21 22:25N 22°56' E 113°36'6646946.8
2016-Jul-21 22:19N 31°23' E 121°38'6613064.3
2016-Jul-21 22:06N 23°04' E 113°29'65512961.3
2016-Jul-21 22:03N 31°18' E 121°33'453915.3
2016-Jul-21 21:33N 24°25' E 118°04'46541847.2
2016-Jul-21 21:33N 31°56' E 120°12'641288435.2
2016-Jul-21 21:33N 23°03' E 113°31'65416019.5
2016-Jul-21 21:30N 32°03' E 120°26'682864.1
2016-Jul-21 21:29N 31°25' E 121°33'6624640.1
2016-Jul-21 21:20N 22°56' E 113°36'65822987.4
2016-Jul-21 21:18N 31°18' E 121°33'657.5
2016-Jul-21 21:12N 31°23' E 121°38'60401.9
2016-Jul-21 21:03N 32°01' E 120°43'477968.4
2016-Jul-21 20:34N 24°25' E 118°04'4594977.0
2016-Jul-21 20:28N 31°25' E 121°33'71046.8
2016-Jul-21 20:28N 31°18' E 121°33'657.9
2016-Jul-21 20:21N 31°23' E 121°38'66889011.3
2016-Jul-21 20:21N 22°55' E 113°30'64589350.0
2016-Jul-21 20:20N 31°57' E 120°06'711187.9
2016-Jul-21 20:17N 31°30' E 121°23'6613396.4
2016-Jul-21 20:05N 22°56' E 113°36'261495.0
2016-Jul-21 19:34N 24°25' E 118°04'45916691.2
2016-Jul-21 19:32N 31°25' E 121°33'9465.0
2016-Jul-21 19:31N 31°30' E 121°23'66126752.4
2016-Jul-21 19:29N 22°56' E 113°36'6625082.2
2016-Jul-21 19:21N 31°22' E 121°36'534661.3
2016-Jul-21 18:33N 22°33' E 120°17'16515635.4
2016-Jul-21 18:32N 24°25' E 118°04'45978688.0
2016-Jul-21 18:32N 31°25' E 121°33'93080.3
2016-Jul-21 18:32N 31°30' E 121°23'66115360.7
2016-Jul-21 18:29N 22°56' E 113°36'6665113.1
2016-Jul-21 18:21N 31°60' E 120°50'478597.6
2016-Jul-21 17:33N 24°25' E 118°04'45913219.6
2016-Jul-21 17:31N 31°25' E 121°33'663298135.0
2016-Jul-21 17:31N 22°56' E 113°36'6616434.9
2016-Jul-21 17:25N 31°30' E 121°23'661771.0
2016-Jul-21 16:34N 22°56' E 113°36'261188114.0
2016-Jul-21 16:33N 24°25' E 118°04'46712731.6
2016-Jul-21 16:31N 31°42' E 121°10'16219.5
2016-Jul-21 16:27N 31°30' E 121°23'373673.0
2016-Jul-21 16:26N 31°56' E 120°52'303731.1
2016-Jul-21 16:26N 31°35' E 121°18'1349.0
2016-Jul-21 16:10N 31°26' E 121°28'4114.4
2016-Jul-21 16:08N 31°25' E 121°33'459801.8
2016-Jul-21 15:34N 24°25' E 118°04'26438053.1
2016-Jul-21 15:33N 23°04' E 113°29'101044.4
2016-Jul-21 15:33N 22°56' E 113°36'66322301.0
2016-Jul-21 15:31N 31°38' E 121°15'1104568.5
2016-Jul-21 15:29N 29°56' E 122°03'1011303.4
2016-Jul-21 15:25N 31°30' E 121°23'9180.5
2016-Jul-21 15:22N 31°25' E 121°33'517.2
2016-Jul-21 15:04N 31°23' E 121°38'6372.5
2016-Jul-21 15:03N 31°24' E 121°31'457932.3
2016-Jul-21 14:33N 24°25' E 118°04'459103222.1
2016-Jul-21 14:33N 31°23' E 121°38'201696.3
2016-Jul-21 14:32N 31°35' E 121°19'6216.2
2016-Jul-21 14:31N 31°30' E 121°23'66150656.2
2016-Jul-21 14:30N 22°56' E 113°36'61563259.5
2016-Jul-21 14:29N 29°48' E 122°05'6147128.5
2016-Jul-21 14:24N 23°04' E 113°29'659779.5
2016-Jul-21 13:33N 31°32' E 121°22'462207756.6
2016-Jul-21 13:33N 24°25' E 118°04'384690572.3
2016-Jul-21 13:33N 29°41' E 122°07'1071221.3
2016-Jul-21 13:28N 31°24' E 121°31'65840155.3
2016-Jul-21 13:27N 23°04' E 113°29'10247.1
2016-Jul-21 13:25N 22°56' E 113°36'66214712.2
2016-Jul-21 13:22N 31°22' E 121°35'13397.5
2016-Jul-21 13:20N 31°30' E 121°23'5364359.7
2016-Jul-21 13:13N 22°37' E 120°17'53210404.7
2016-Jul-21 13:09N 31°25' E 121°31'458764.1
2016-Jul-21 12:33N 24°25' E 118°04'26116796.0
2016-Jul-21 12:33N 22°56' E 113°36'661103534.5
2016-Jul-21 12:32N 31°28' E 121°27'3196.3
2016-Jul-21 12:31N 31°30' E 121°23'020.6
2016-Jul-21 12:30N 31°31' E 121°23'592246.7
2016-Jul-21 12:28N 32°01' E 120°24'9417.1
2016-Jul-21 12:27N 32°02' E 120°35'611246.4
2016-Jul-21 12:24N 31°22' E 121°30'5306.9
2016-Jul-21 12:23N 31°22' E 121°35'1001864.2
2016-Jul-21 12:20N 29°45' E 122°03'43812525.8
2016-Jul-21 12:18N 22°37' E 120°17'539728.3
2016-Jul-21 11:33N 31°33' E 121°20'46257303.9
2016-Jul-21 11:33N 24°25' E 118°04'46121000.9
2016-Jul-21 11:32N 31°31' E 121°23'132033.2
2016-Jul-21 11:31N 31°22' E 121°35'5142.7
2016-Jul-21 11:29N 31°22' E 121°30'708740.5
2016-Jul-21 11:29N 31°57' E 120°18'50360.0
2016-Jul-21 11:21N 31°39' E 121°13'65927280.8
2016-Jul-21 11:19N 23°04' E 113°29'65927254.0
2016-Jul-21 11:18N 31°30' E 121°24'471920.4
2016-Jul-21 11:16N 32°00' E 120°40'56463411.0
2016-Jul-21 11:16N 22°37' E 120°17'44731551.1
2016-Jul-21 11:15N 29°53' E 122°08'941667.3
2016-Jul-21 11:11N 31°22' E 121°36'457721.6
2016-Jul-21 10:33N 24°25' E 118°04'393202031.1
2016-Jul-21 10:33N 29°55' E 122°03'15455319.2
2016-Jul-21 10:33N 31°56' E 120°12'542083.6
2016-Jul-21 10:32N 31°39' E 121°13'13964.6
2016-Jul-21 10:31N 31°30' E 121°24'026.3
2016-Jul-21 10:30N 31°31' E 121°23'124645.9
2016-Jul-21 10:30N 31°39' E 121°13'18695.3
2016-Jul-21 10:28N 31°26' E 121°28'5327428.6
2016-Jul-21 10:24N 22°37' E 120°17'53041477.3
2016-Jul-21 10:23N 31°22' E 121°35'550.4
2016-Jul-21 10:18N 31°22' E 121°30'455615.2
2016-Jul-21 09:33N 24°25' E 118°04'16218173.9
2016-Jul-21 09:33N 22°34' E 120°13'547393989.6
2016-Jul-21 09:33N 31°39' E 121°13'131412.6
2016-Jul-21 09:32N 31°30' E 121°23'0133.6
2016-Jul-21 09:32N 31°31' E 121°23'101739.6
2016-Jul-21 09:32N 31°22' E 121°30'5111.4
2016-Jul-21 09:29N 31°22' E 121°35'66215680.0
2016-Jul-21 09:27N 22°56' E 113°36'6424926.9
2016-Jul-21 09:19N 31°57' E 120°05'601051.8
2016-Jul-21 09:15N 31°39' E 121°13'65971918.9
2016-Jul-21 09:15N 23°04' E 113°29'63932393.6
2016-Jul-21 09:14N 31°58' E 120°05'85667.3
2016-Jul-21 09:06N 31°18' E 121°33'453832.4
2016-Jul-21 08:33N 24°25' E 118°04'460183813.2
2016-Jul-21 08:33N 31°28' E 121°25'2321.6
2016-Jul-21 08:33N 31°30' E 121°24'13901.5
2016-Jul-21 08:32N 31°22' E 121°36'26303.9
2016-Jul-21 08:27N 31°39' E 121°13'6627665.5
2016-Jul-21 08:22N 22°56' E 113°36'6613654.3
2016-Jul-21 08:11N 31°47' E 120°58'15434.4
2016-Jul-21 08:09N 31°39' E 121°13'22315.0
2016-Jul-21 08:04N 31°22' E 121°30'455884.8
2016-Jul-21 07:33N 24°25' E 118°04'2647610.3
2016-Jul-21 07:31N 23°04' E 113°29'6582370503.3
2016-Jul-21 07:31N 31°24' E 121°31'7667.9
2016-Jul-21 07:31N 31°28' E 121°25'7299.1
2016-Jul-21 07:29N 31°22' E 121°30'324144.1
2016-Jul-21 07:29N 31°46' E 121°04'66317293.6
2016-Jul-21 07:27N 22°56' E 113°36'6616523.1
2016-Jul-21 07:20N 31°30' E 121°23'659841.7
2016-Jul-21 06:33N 23°04' E 113°29'264118910.6
2016-Jul-21 06:33N 24°25' E 118°04'46676326.4
2016-Jul-21 06:33N 31°41' E 121°12'283.1
2016-Jul-21 06:32N 31°39' E 121°13'12641.1
2016-Jul-21 06:30N 31°30' E 121°23'13672.6
2016-Jul-21 06:29N 31°22' E 121°35'6627334.0
2016-Jul-21 06:24N 22°56' E 113°36'6614895.7
2016-Jul-21 06:16N 31°28' E 121°25'261118.2
2016-Jul-21 06:14N 31°46' E 121°04'3450.1
2016-Jul-21 05:34N 31°24' E 121°34'459137661.2
2016-Jul-21 05:33N 24°25' E 118°04'463833629.4
2016-Jul-21 05:33N 31°34' E 121°20'8579.4
2016-Jul-21 05:32N 31°28' E 121°25'213561.3
2016-Jul-21 05:32N 31°43' E 121°08'6139.9
2016-Jul-21 05:30N 31°39' E 121°13'12831.3
2016-Jul-21 05:29N 31°30' E 121°23'461500.0
2016-Jul-21 04:33N 24°25' E 118°04'46583653.5
2016-Jul-21 04:33N 31°37' E 121°16'32319.5
2016-Jul-21 04:33N 31°39' E 121°14'1527521.8
2016-Jul-21 04:33N 31°31' E 121°29'10347.5
2016-Jul-21 04:31N 31°35' E 121°19'66315811.2
2016-Jul-21 04:29N 23°03' E 113°25'12364.7
2016-Jul-21 04:27N 22°56' E 113°36'66314288.0
2016-Jul-21 04:24N 31°24' E 121°34'11152.1
2016-Jul-21 04:20N 31°30' E 121°23'314.1
2016-Jul-21 04:09N 31°28' E 121°25'16262.7
2016-Jul-21 04:05N 31°40' E 121°13'2313586.7
2016-Jul-21 04:05N 31°22' E 121°29'1222.1
2016-Jul-21 03:34N 31°32' E 121°22'462415699.3
2016-Jul-21 03:33N 24°25' E 118°04'46398055.6
2016-Jul-21 03:33N 31°34' E 121°19'16703.3
2016-Jul-21 03:32N 31°23' E 121°33'1120.2
2016-Jul-21 03:31N 31°24' E 121°34'31108.3
2016-Jul-21 03:31N 31°22' E 121°36'66614717.3
2016-Jul-21 03:28N 23°03' E 113°20'6647789.1
2016-Jul-21 03:23N 31°26' E 121°28'4153.1
2016-Jul-21 03:22N 31°28' E 121°25'9265.7
2016-Jul-21 03:20N 31°21' E 121°31'65925773.7
2016-Jul-21 03:18N 22°56' E 113°36'66115663.7
2016-Jul-21 03:16N 31°30' E 121°23'66592065.7
2016-Jul-21 03:15N 23°03' E 113°20'6664538.3
2016-Jul-21 03:06N 31°39' E 121°14'1220.9
2016-Jul-21 02:33N 31°31' E 121°24'1035187.0
2016-Jul-21 02:33N 31°23' E 121°30'662132433.3
2016-Jul-21 02:33N 23°02' E 113°24'270121410.1
2016-Jul-21 02:33N 24°25' E 118°04'261188114.0
2016-Jul-21 02:33N 22°56' E 113°36'121327.5
2016-Jul-21 02:32N 23°05' E 113°26'66138384.7
2016-Jul-21 02:31N 31°28' E 121°28'2330.7
2016-Jul-21 02:31N 31°28' E 121°25'2733.2
2016-Jul-21 02:31N 31°30' E 121°23'916219.8
2016-Jul-21 02:31N 31°24' E 121°31'8570.1
2016-Jul-21 02:30N 31°22' E 121°41'630.8
2016-Jul-21 02:18N 31°24' E 121°34'459615.7
2016-Jul-21 01:34N 24°25' E 118°04'45922629.0
2016-Jul-21 01:32N 31°24' E 121°34'661339738.7
2016-Jul-21 01:32N 23°05' E 113°28'659103165.1
2016-Jul-21 01:32N 31°29' E 121°25'5355.1
2016-Jul-21 01:31N 31°26' E 121°28'41814.4
2016-Jul-21 01:31N 31°24' E 121°32'66213311.8
2016-Jul-21 01:28N 22°56' E 113°36'661108150.6
2016-Jul-21 01:27N 31°28' E 121°25'6624302.6
2016-Jul-21 01:18N 22°57' E 113°33'3 3.8
2016-Jul-21 00:34N 22°56' E 113°36'261235142.5
2016-Jul-21 00:33N 24°25' E 118°04'45560655.1
2016-Jul-21 00:33N 31°20' E 121°33'12701.7
2016-Jul-21 00:32N 31°29' E 121°25'10348.1
2016-Jul-21 00:30N 31°24' E 121°34'15208.6
2016-Jul-21 00:26N 31°33' E 121°20'1065.5
2016-Jul-21 00:17N 31°26' E 121°28'458632.3
2016-Jul-20 23:33N 24°25' E 118°04'46021209.2
2016-Jul-20 23:32N 31°28' E 121°25'9312.0
2016-Jul-20 23:30N 31°24' E 121°34'66370181.5
2016-Jul-20 23:30N 22°56' E 113°36'661238098.0
2016-Jul-20 23:30N 31°30' E 121°24'618.9
2016-Jul-20 23:10N 31°26' E 121°28'458748.9
2016-Jul-20 22:33N 24°25' E 118°04'26162704.7
2016-Jul-20 22:33N 22°56' E 113°36'663183557.8
2016-Jul-20 22:33N 31°24' E 121°34'10137.6
2016-Jul-20 22:29N 31°29' E 121°25'1 4.2
2016-Jul-20 22:11N 31°28' E 121°25'460731.0
2016-Jul-20 21:33N 24°25' E 118°04'459137664.5
2016-Jul-20 21:33N 31°24' E 121°34'994.9
2016-Jul-20 21:28N 31°28' E 121°25'171320.4
2016-Jul-20 21:27N 31°21' E 121°44'18933.4
2016-Jul-20 21:26N 31°29' E 121°25'1 5.3
2016-Jul-20 21:11N 31°30' E 121°23'1117.2
2016-Jul-20 20:33N 31°24' E 121°34'51543.7
2016-Jul-20 20:33N 31°26' E 121°28'45844567.3
2016-Jul-20 20:32N 24°25' E 118°04'4609693.1
2016-Jul-20 20:29N 31°29' E 121°25'162.9
2016-Jul-20 20:28N 31°28' E 121°25'66111663.3
2016-Jul-20 20:25N 22°56' E 113°36'66113683.9
2016-Jul-20 20:22N 31°30' E 121°24'19116.8
2016-Jul-20 20:12N 31°21' E 121°44'460694.6
2016-Jul-20 19:32N 24°25' E 118°04'46111360.0
2016-Jul-20 19:30N 31°30' E 121°24'157.9
2016-Jul-20 19:29N 31°30' E 121°25'10425.8
2016-Jul-20 19:27N 31°24' E 121°34'598.0
2016-Jul-20 19:24N 31°26' E 121°28'6616050.8
2016-Jul-20 19:18N 22°56' E 113°36'261356.3
2016-Jul-20 18:34N 24°25' E 118°04'46055213.6
2016-Jul-20 18:33N 31°29' E 121°25'23553.1
2016-Jul-20 18:33N 31°30' E 121°23'661297618.9
2016-Jul-20 18:33N 22°56' E 113°36'6615432.7
2016-Jul-20 18:26N 31°29' E 121°25'18959.7
2016-Jul-20 18:24N 31°21' E 121°44'958.7
2016-Jul-20 18:15N 31°18' E 121°33'453658.1
2016-Jul-20 17:33N 24°25' E 118°04'46015344.4
2016-Jul-20 17:32N 31°29' E 121°25'66185034.3
2016-Jul-20 17:31N 22°56' E 113°36'66176749.7
2016-Jul-20 17:31N 31°28' E 121°25'2211.9
2016-Jul-20 17:30N 31°30' E 121°23'15906.3
2016-Jul-20 17:29N 31°18' E 121°33'37855.9
2016-Jul-20 17:26N 31°46' E 121°05'331944.9
2016-Jul-20 17:25N 31°24' E 121°34'459527.8
2016-Jul-20 16:33N 24°25' E 118°04'46713225.4
2016-Jul-20 16:31N 31°41' E 121°11'66370178.1
2016-Jul-20 16:31N 22°56' E 113°36'658197312.8
2016-Jul-20 16:30N 31°18' E 121°33'13494.6
2016-Jul-20 16:29N 31°28' E 121°25'3115.8
2016-Jul-20 16:27N 31°30' E 121°23'6841.7
2016-Jul-20 16:27N 31°26' E 121°28'146241.2
2016-Jul-20 16:27N 31°21' E 121°44'9178.6
2016-Jul-20 16:24N 31°24' E 121°34'10264.6
2016-Jul-20 16:22N 31°29' E 121°25'460571.6
2016-Jul-20 15:33N 24°25' E 118°04'26126873.4
2016-Jul-20 15:33N 22°56' E 113°36'66191573.2
2016-Jul-20 15:32N 31°30' E 121°23'171067.9
2016-Jul-20 15:31N 31°14' E 121°29'2414427.4
2016-Jul-20 15:31N 31°36' E 121°17'92654.9
2016-Jul-20 15:31N 31°29' E 121°25'561.3
2016-Jul-20 15:26N 31°26' E 121°28'9572.5
2016-Jul-20 15:25N 31°18' E 121°33'131749.3
2016-Jul-20 15:25N 31°28' E 121°25'17368.4
2016-Jul-20 15:22N 31°21' E 121°44'460568.1
2016-Jul-20 14:34N 24°25' E 118°04'46024025.1
2016-Jul-20 14:32N 31°30' E 121°23'961754.6
2016-Jul-20 14:29N 29°59' E 121°56'9548990.0
2016-Jul-20 14:29N 31°30' E 121°23'2442.5
2016-Jul-20 14:29N 31°29' E 121°25'661297461.4
2016-Jul-20 14:29N 22°56' E 113°36'661216458.1
2016-Jul-20 14:28N 31°29' E 121°25'10133.9
2016-Jul-20 14:24N 31°24' E 121°34'593.5
2016-Jul-20 14:21N 31°20' E 121°33'90112.6
2016-Jul-20 13:33N 29°55' E 122°07'621203193.3
2016-Jul-20 13:33N 22°56' E 113°36'261104507.8
2016-Jul-20 13:33N 24°25' E 118°04'46029541.4
2016-Jul-20 13:32N 31°28' E 121°25'2202.0
2016-Jul-20 13:31N 31°30' E 121°24'1923275.4
2016-Jul-20 13:31N 31°21' E 121°44'14648.4
2016-Jul-20 13:30N 31°26' E 121°28'3413.0
2016-Jul-20 13:30N 31°22' E 121°30'8164.9
2016-Jul-20 13:27N 31°29' E 121°25'8494.2
2016-Jul-20 13:26N 31°24' E 121°32'8286.8
2016-Jul-20 13:24N 31°29' E 121°25'67921437.9
2016-Jul-20 13:22N 22°47' E 113°18'67521136.4
2016-Jul-20 13:20N 31°18' E 121°33'453583.4
2016-Jul-20 12:33N 24°25' E 118°04'26155328.1
2016-Jul-20 12:33N 22°56' E 113°36'66125601.0
2016-Jul-20 12:32N 31°28' E 121°26'181.0
2016-Jul-20 12:31N 31°29' E 121°25'1628972.9
2016-Jul-20 12:31N 31°14' E 121°30'13602.6
2016-Jul-20 12:29N 31°27' E 121°29'4793.0
2016-Jul-20 12:29N 31°29' E 121°25'239.7
2016-Jul-20 12:27N 31°30' E 121°24'6135.2
2016-Jul-20 12:24N 31°26' E 121°28'4214.1
2016-Jul-20 12:23N 31°28' E 121°25'1238.2
2016-Jul-20 12:04N 31°18' E 121°33'453906.5
2016-Jul-20 11:34N 24°25' E 118°04'46257372.7
2016-Jul-20 11:33N 31°33' E 121°19'66112336.8
2016-Jul-20 11:30N 22°56' E 113°36'666114219.9
2016-Jul-20 11:29N 31°21' E 121°44'10222988.7
2016-Jul-20 11:29N 29°41' E 122°07'114136988.8
2016-Jul-20 11:29N 31°29' E 121°25'5248.4
2016-Jul-20 11:28N 31°26' E 121°28'534.5
2016-Jul-20 11:20N 31°29' E 121°25'190.4
2016-Jul-20 11:19N 31°30' E 121°23'273.9
2016-Jul-20 11:17N 31°28' E 121°25'627.5
2016-Jul-20 11:04N 31°32' E 121°20'461918.4
2016-Jul-20 10:33N 24°25' E 118°04'16148419.7
2016-Jul-20 10:33N 22°32' E 120°10'54125288.5
2016-Jul-20 10:32N 31°28' E 121°25'1127061.7
2016-Jul-20 10:31N 29°42' E 122°05'11315062.2
2016-Jul-20 10:31N 31°29' E 121°25'1410079.9
2016-Jul-20 10:30N 31°39' E 121°13'141063.1
2016-Jul-20 10:30N 31°29' E 121°25'1097.7
2016-Jul-20 10:24N 31°36' E 121°17'69520.6
2016-Jul-20 10:16N 31°60' E 120°00'64219577.5
2016-Jul-20 10:14N 22°56' E 113°36'614916.1
2016-Jul-20 09:34N 29°48' E 122°04'12071961.0
2016-Jul-20 09:34N 31°39' E 121°13'2712043.6
2016-Jul-20 09:33N 31°19' E 121°33'454181490.2
2016-Jul-20 09:33N 24°25' E 118°04'46038536.0
2016-Jul-20 09:33N 31°29' E 121°25'16570.4
2016-Jul-20 09:31N 31°40' E 121°11'66256777.5
2016-Jul-20 09:30N 22°56' E 113°36'6627658.8
2016-Jul-20 09:25N 31°29' E 121°25'1674.1
2016-Jul-20 09:25N 31°30' E 121°24'2188.8
2016-Jul-20 09:24N 31°28' E 121°25'7160.9
2016-Jul-20 09:21N 31°22' E 121°30'81808.1
2016-Jul-20 09:15N 31°58' E 120°05'843070.4
2016-Jul-20 09:14N 31°20' E 121°33'7209.9
2016-Jul-20 09:12N 31°26' E 121°28'461103763.0
2016-Jul-20 09:11N 24°24' E 117°57'6 9.9
2016-Jul-20 08:33N 24°25' E 118°04'46055235.0
2016-Jul-20 08:33N 31°29' E 121°25'10672.6
2016-Jul-20 08:32N 31°21' E 121°31'9125222.0
2016-Jul-20 08:32N 29°55' E 122°06'62072008.3
2016-Jul-20 08:31N 22°56' E 113°36'65921559.5
2016-Jul-20 08:29N 31°21' E 121°31'101011.5
2016-Jul-20 08:29N 31°29' E 121°25'280.7
2016-Jul-20 08:28N 31°30' E 121°24'239.6
2016-Jul-20 08:24N 31°28' E 121°25'183409.4
2016-Jul-20 08:24N 31°41' E 121°10'35904.1
2016-Jul-20 08:21N 31°21' E 121°44'460573.8
2016-Jul-20 07:33N 24°25' E 118°04'26136175.8
2016-Jul-20 07:33N 22°56' E 113°36'66036018.2
2016-Jul-20 07:32N 31°24' E 121°31'095.4
2016-Jul-20 07:32N 31°23' E 121°30'899975.8
2016-Jul-20 07:31N 29°57' E 121°54'954479.9
2016-Jul-20 07:30N 31°28' E 121°25'12112.2
2016-Jul-20 07:30N 31°29' E 121°25'0 3.0
2016-Jul-20 07:25N 31°30' E 121°25'5244.4
2016-Jul-20 07:23N 31°26' E 121°28'19644.2
2016-Jul-20 07:22N 31°40' E 121°13'1351.5
2016-Jul-20 07:07N 31°30' E 121°23'461837.1
2016-Jul-20 06:34N 24°25' E 118°04'16320910.9
2016-Jul-20 06:33N 22°37' E 120°17'53664361.8
2016-Jul-20 06:33N 31°30' E 121°25'0 9.8
2016-Jul-20 06:31N 31°29' E 121°25'145617.9
2016-Jul-20 06:31N 31°40' E 121°13'153443.9
2016-Jul-20 06:31N 31°28' E 121°25'66115450.0
2016-Jul-20 06:28N 22°56' E 113°36'6582162.3
2016-Jul-20 06:10N 31°18' E 121°33'9547.2
2016-Jul-20 06:09N 31°26' E 121°28'670.8
2016-Jul-20 06:04N 31°30' E 121°23'461917.3
2016-Jul-20 05:34N 24°25' E 118°04'46141463.2
2016-Jul-20 05:33N 31°30' E 121°23'147.1
2016-Jul-20 05:31N 31°29' E 121°24'141517.1
2016-Jul-20 05:31N 31°40' E 121°13'333157.9
2016-Jul-20 05:30N 31°09' E 121°27'211892.8
2016-Jul-20 05:30N 31°29' E 121°25'66158072.2
2016-Jul-20 05:29N 22°56' E 113°36'6626943.8
2016-Jul-20 05:23N 31°30' E 121°25'460555.7
2016-Jul-20 04:33N 24°25' E 118°04'461414806.6
2016-Jul-20 04:33N 31°31' E 121°21'3321.4
2016-Jul-20 04:33N 31°29' E 121°25'14457.9
2016-Jul-20 04:31N 31°40' E 121°13'13848.4
2016-Jul-20 04:30N 31°30' E 121°23'1253.7
2016-Jul-20 04:30N 31°30' E 121°25'144.3
2016-Jul-20 04:28N 31°28' E 121°25'103573.1
2016-Jul-20 04:28N 31°21' E 121°32'65913331.3
2016-Jul-20 04:25N 22°56' E 113°36'666299827.1
2016-Jul-20 04:25N 31°21' E 121°44'67330675.1
2016-Jul-20 04:23N 22°55' E 113°26'26419415.5
2016-Jul-20 04:23N 24°24' E 117°57'450108096.0
2016-Jul-20 04:22N 31°13' E 121°30'3037.2
2016-Jul-20 03:33N 31°40' E 121°13'4661678061.9
2016-Jul-20 03:33N 24°25' E 118°04'4621664910.4
2016-Jul-20 03:33N 31°34' E 121°18'2219793.1
2016-Jul-20 03:33N 31°15' E 121°31'14377.3
2016-Jul-20 03:31N 31°28' E 121°25'344.2
2016-Jul-20 03:28N 31°30' E 121°23'61177.8
2016-Jul-20 03:27N 31°26' E 121°28'3527.2
2016-Jul-20 03:27N 31°24' E 121°31'862.3
2016-Jul-20 03:19N 31°29' E 121°25'14342.0
2016-Jul-20 03:17N 31°18' E 121°33'66212813.1
2016-Jul-20 03:14N 23°03' E 113°19'666266255.3
2016-Jul-20 03:14N 31°30' E 121°25'1059.6
2016-Jul-20 03:04N 31°21' E 121°31'455892.7
2016-Jul-20 02:33N 24°25' E 118°04'26950886.2
2016-Jul-20 02:33N 23°03' E 113°25'662216717.0
2016-Jul-20 02:33N 31°24' E 121°31'205100.9
2016-Jul-20 02:33N 31°38' E 121°14'2610396.9
2016-Jul-20 02:32N 31°18' E 121°34'141987.2
2016-Jul-20 02:32N 31°29' E 121°25'1282.2
2016-Jul-20 02:32N 31°28' E 121°25'91704.5
2016-Jul-20 02:31N 31°21' E 121°31'241550.5
2016-Jul-20 02:31N 31°40' E 121°13'131069.4
2016-Jul-20 02:30N 31°30' E 121°23'133.6
2016-Jul-20 02:28N 31°29' E 121°25'661119051.1
2016-Jul-20 02:27N 22°56' E 113°36'3652866.5
2016-Jul-20 02:20N 22°43' E 120°11'5273250.0
2016-Jul-20 02:10N 31°25' E 121°32'610.2
2016-Jul-20 01:33N 31°28' E 121°25'460275713.1
2016-Jul-20 01:33N 24°25' E 118°04'45540941.4
2016-Jul-20 01:33N 31°21' E 121°30'911288.6
2016-Jul-20 01:33N 31°29' E 121°25'142535.9
2016-Jul-20 01:32N 31°40' E 121°13'24861.2
2016-Jul-20 01:31N 31°21' E 121°31'142.5
2016-Jul-20 01:29N 31°21' E 121°32'65736932.6
2016-Jul-20 01:28N 23°03' E 113°30'658169301.3
2016-Jul-20 01:28N 31°31' E 121°22'3113.9
2016-Jul-20 01:27N 31°29' E 121°25'218.8
2016-Jul-20 01:22N 31°30' E 121°23'66144090.0
2016-Jul-20 01:21N 22°56' E 113°36'6492655.1
2016-Jul-20 01:06N 31°58' E 120°19'468856.7
2016-Jul-20 00:33N 24°25' E 118°04'46045952.7
2016-Jul-20 00:33N 31°28' E 121°25'658394834.1
2016-Jul-20 00:33N 23°04' E 113°30'656262558.6
2016-Jul-20 00:33N 31°23' E 121°30'8291.7
2016-Jul-20 00:31N 31°29' E 121°25'423394.5
2016-Jul-20 00:30N 31°59' E 120°49'28714.1
2016-Jul-20 00:28N 31°40' E 121°13'1425653.4
2016-Jul-20 00:28N 31°29' E 121°25'2129.1
2016-Jul-20 00:27N 31°30' E 121°23'9643.0
2016-Jul-20 00:26N 31°24' E 121°31'66124534.5
2016-Jul-20 00:25N 22°56' E 113°36'662216689.5
2016-Jul-20 00:24N 31°36' E 121°16'18441.5
2016-Jul-20 00:22N 31°25' E 121°32'349.3
2016-Jul-20 00:18N 31°21' E 121°31'83735.2
2016-Jul-20 00:11N 31°58' E 120°04'6298.8
2016-Jul-19 23:33N 31°40' E 121°13'148455.7
2016-Jul-19 23:33N 31°29' E 121°25'46066281.2
2016-Jul-19 23:33N 24°25' E 118°04'458137279.0
2016-Jul-19 23:33N 31°24' E 121°32'2212.2
2016-Jul-19 23:32N 31°22' E 121°30'65624599.4
2016-Jul-19 23:30N 23°04' E 113°30'104931.8
2016-Jul-19 23:30N 22°56' E 113°36'66115068.1
2016-Jul-19 23:28N 31°28' E 121°26'121310.4
2016-Jul-19 23:27N 31°18' E 121°33'14369.8
2016-Jul-19 23:25N 31°29' E 121°25'1256.6
2016-Jul-19 23:25N 31°28' E 121°25'216.7
2016-Jul-19 23:16N 31°30' E 121°23'691542.8
2016-Jul-19 23:13N 31°57' E 120°08'643976.6
2016-Jul-19 22:34N 22°56' E 113°36'26137622.8
2016-Jul-19 22:33N 24°25' E 118°04'46057043.9
2016-Jul-19 22:33N 31°28' E 121°27'659118540.0
2016-Jul-19 22:32N 23°04' E 113°30'641769260.8
2016-Jul-19 22:32N 31°57' E 120°12'6917641.8
2016-Jul-19 22:32N 31°28' E 121°25'1206.4
2016-Jul-19 22:32N 31°29' E 121°25'142332.1
2016-Jul-19 22:31N 31°40' E 121°13'235076.6
2016-Jul-19 22:31N 31°22' E 121°30'125.1
2016-Jul-19 22:28N 31°23' E 121°30'6227.3
2016-Jul-19 22:27N 31°18' E 121°33'141010.1
2016-Jul-19 22:26N 31°29' E 121°25'5381.3
2016-Jul-19 22:25N 31°32' E 121°20'23188.7
2016-Jul-19 22:18N 31°21' E 121°44'460623.2
2016-Jul-19 21:34N 24°25' E 118°04'466335594.6
2016-Jul-19 21:33N 31°40' E 121°13'112207.5
2016-Jul-19 21:33N 31°31' E 121°22'2425.6
2016-Jul-19 21:33N 31°30' E 121°23'2801.4
2016-Jul-19 21:33N 31°28' E 121°25'177756.4
2016-Jul-19 21:33N 31°21' E 121°44'18685.6
2016-Jul-19 21:31N 31°29' E 121°25'056.5
2016-Jul-19 21:31N 31°29' E 121°25'9519.0
2016-Jul-19 21:30N 31°22' E 121°30'513452.1
2016-Jul-19 21:29N 31°59' E 120°49'565441.8
2016-Jul-19 21:28N 31°18' E 121°33'65510433.7
2016-Jul-19 21:24N 23°04' E 113°30'65471327.2
2016-Jul-19 21:24N 31°21' E 121°27'65730305.4
2016-Jul-19 21:23N 22°56' E 113°36'6495868.9
2016-Jul-19 21:16N 31°58' E 120°18'6459255.5
2016-Jul-19 21:12N 23°04' E 113°29'6607683.7
2016-Jul-19 21:07N 31°39' E 121°14'1 1.9
2016-Jul-19 20:34N 31°40' E 121°13'466419493.3
2016-Jul-19 20:33N 24°25' E 118°04'455163897.7
2016-Jul-19 20:33N 31°22' E 121°30'9342.2
2016-Jul-19 20:32N 31°29' E 121°25'142137.4
2016-Jul-19 20:31N 31°18' E 121°33'8197230.7
2016-Jul-19 20:31N 31°57' E 120°10'708700.9
2016-Jul-19 20:31N 31°28' E 121°25'171939.1
2016-Jul-19 20:30N 31°21' E 121°44'664103875.2
2016-Jul-19 20:30N 23°04' E 113°30'13579.6
2016-Jul-19 20:29N 23°03' E 113°16'6672402246.2
2016-Jul-19 20:29N 31°36' E 121°17'8736.5
2016-Jul-19 20:28N 31°30' E 121°23'123.1
2016-Jul-19 20:25N 31°29' E 121°25'6599524.0
2016-Jul-19 20:20N 23°04' E 113°29'1036.4
2016-Jul-19 20:04N 22°56' E 113°36'261510.4
2016-Jul-19 19:33N 24°25' E 118°04'46667032.1
2016-Jul-19 19:33N 31°39' E 121°13'143010.0
2016-Jul-19 19:33N 31°29' E 121°25'14389.0
2016-Jul-19 19:31N 31°40' E 121°13'14163.7
2016-Jul-19 19:25N 31°29' E 121°25'124.9
2016-Jul-19 19:22N 31°30' E 121°23'46349069.4
2016-Jul-19 19:22N 24°24' E 117°57'260324.2
2016-Jul-19 18:34N 23°05' E 113°27'2583.1
2016-Jul-19 18:33N 23°04' E 113°29'264951009.8
2016-Jul-19 18:33N 24°25' E 118°04'467209951.4
2016-Jul-19 18:33N 31°42' E 121°09'3610750.7
2016-Jul-19 18:33N 31°21' E 121°44'186492.4
2016-Jul-19 18:33N 31°30' E 121°25'052.1
2016-Jul-19 18:32N 31°29' E 121°25'13137.5
2016-Jul-19 18:27N 31°38' E 121°14'66262728.6
2016-Jul-19 18:26N 22°56' E 113°36'66127687.2
2016-Jul-19 18:25N 31°29' E 121°25'213231.0
2016-Jul-19 18:24N 31°44' E 121°07'29231.9
2016-Jul-19 18:17N 31°22' E 121°30'45821991.0
2016-Jul-19 18:16N 24°24' E 117°57'456647.5
2016-Jul-19 17:33N 31°18' E 121°33'655294869.1
2016-Jul-19 17:33N 23°04' E 113°29'667141198.3
2016-Jul-19 17:33N 31°30' E 121°37'114295.3
2016-Jul-19 17:33N 31°29' E 121°25'1619090.2
2016-Jul-19 17:33N 31°41' E 121°12'165617.8
2016-Jul-19 17:33N 31°29' E 121°25'213925.7
2016-Jul-19 17:32N 31°43' E 121°07'66285108.6
2016-Jul-19 17:32N 22°59' E 113°31'662198453.5
2016-Jul-19 17:32N 31°30' E 121°25'133278.9
2016-Jul-19 17:31N 31°38' E 121°14'211336.8
2016-Jul-19 17:30N 31°22' E 121°30'65662141.8
2016-Jul-19 17:30N 23°04' E 113°30'10302.8
2016-Jul-19 17:28N 22°56' E 113°36'66145749.7
2016-Jul-19 17:27N 32°00' E 120°38'635272.1
2016-Jul-19 17:26N 31°18' E 121°33'15208.3
2016-Jul-19 17:22N 31°30' E 121°23'46466745.4
2016-Jul-19 17:22N 24°24' E 117°57'46793493.0
2016-Jul-19 17:21N 31°57' E 120°10'5771.1
2016-Jul-19 16:34N 31°39' E 121°13'465837640.2
2016-Jul-19 16:33N 24°25' E 118°04'46163790.3
2016-Jul-19 16:33N 31°30' E 121°23'65918102.0
2016-Jul-19 16:31N 23°04' E 113°29'655196580.7
2016-Jul-19 16:31N 31°18' E 121°33'010.2
2016-Jul-19 16:30N 31°18' E 121°33'66226480.7
2016-Jul-19 16:28N 22°52' E 113°34'51812.8
2016-Jul-19 16:28N 22°56' E 113°36'66239698.1
2016-Jul-19 16:27N 31°30' E 121°25'9762.1
2016-Jul-19 16:26N 31°22' E 121°30'12210.0
2016-Jul-19 16:23N 31°21' E 121°44'18665.4
2016-Jul-19 16:21N 31°29' E 121°25'862.3
2016-Jul-19 16:14N 31°35' E 121°19'463689.8
2016-Jul-19 15:33N 24°25' E 118°04'46133859.4
2016-Jul-19 15:33N 31°31' E 121°22'15854.3
2016-Jul-19 15:32N 31°42' E 121°09'18581.2
2016-Jul-19 15:30N 31°30' E 121°25'01135.1
2016-Jul-19 15:30N 31°29' E 121°25'1111.8
2016-Jul-19 15:29N 31°30' E 121°23'223.0
2016-Jul-19 15:25N 31°29' E 121°25'171612.9
2016-Jul-19 15:24N 31°42' E 121°10'52259.7
2016-Jul-19 15:12N 31°57' E 120°12'466721.2
2016-Jul-19 14:33N 24°25' E 118°04'46911397.3
2016-Jul-19 14:31N 31°46' E 121°03'24686.5
2016-Jul-19 14:29N 31°29' E 121°25'667160.2
2016-Jul-19 14:28N 31°57' E 120°14'647412.7
2016-Jul-19 14:28N 31°30' E 121°23'233.1
2016-Jul-19 14:24N 31°29' E 121°25'0136.8
2016-Jul-19 14:24N 31°30' E 121°25'95602.0
2016-Jul-19 14:14N 29°59' E 121°56'96948.9
2016-Jul-19 14:08N 31°30' E 121°23'461787.1
2016-Jul-19 13:33N 24°25' E 118°04'46019726.6
2016-Jul-19 13:32N 31°29' E 121°25'10018855.1
2016-Jul-19 13:31N 29°56' E 122°04'9110597.9
2016-Jul-19 13:31N 31°22' E 121°30'65930016.9
2016-Jul-19 13:30N 22°56' E 113°36'66254134.0
2016-Jul-19 13:29N 31°29' E 121°25'268.2
2016-Jul-19 13:27N 31°30' E 121°23'108121.4
2016-Jul-19 12:33N 29°48' E 122°05'10825965.8
2016-Jul-19 12:33N 31°30' E 121°23'1139.0
2016-Jul-19 12:33N 31°30' E 121°23'1796.6
2016-Jul-19 12:33N 31°29' E 121°25'460150640.8
2016-Jul-19 12:32N 24°25' E 118°04'46018617.9
2016-Jul-19 12:31N 31°29' E 121°25'0 2.7
2016-Jul-19 12:26N 31°29' E 121°25'678943.3
2016-Jul-19 12:26N 31°56' E 120°12'74206.1
2016-Jul-19 12:04N 31°23' E 121°31'815.2
2016-Jul-19 11:34N 31°29' E 121°25'460165710.9
2016-Jul-19 11:33N 24°25' E 118°04'3801.7
2016-Jul-19 11:33N 24°25' E 118°01'46120242.2
2016-Jul-19 11:32N 31°29' E 121°25'242.2
2016-Jul-19 11:30N 31°30' E 121°24'139.1
2016-Jul-19 11:28N 31°30' E 121°23'9162.4
2016-Jul-19 11:25N 31°25' E 121°31'7439.0
2016-Jul-19 11:24N 31°29' E 121°25'1143007.9
2016-Jul-19 11:22N 29°41' E 122°07'106131.2
2016-Jul-19 10:34N 31°21' E 121°30'111267.3
2016-Jul-19 10:33N 31°30' E 121°24'11523037.3
2016-Jul-19 10:33N 29°41' E 122°07'384125511.6
2016-Jul-19 10:33N 24°25' E 118°04'46669924.2
2016-Jul-19 10:32N 31°57' E 120°13'46752542.4
2016-Jul-19 10:32N 24°23' E 118°06'4617275.8
2016-Jul-19 10:28N 31°29' E 121°25'022.7
2016-Jul-19 10:27N 31°29' E 121°25'0557.7
2016-Jul-19 10:27N 31°29' E 121°25'43336.4
2016-Jul-19 10:19N 31°59' E 120°49'60306.6
2016-Jul-19 10:08N 31°21' E 121°44'460789.4
2016-Jul-19 09:33N 24°25' E 118°04'47785833.8
2016-Jul-19 09:32N 31°59' E 120°49'665108814.4
2016-Jul-19 09:32N 22°56' E 113°36'26355677.7
2016-Jul-19 09:32N 24°23' E 118°06'46114437.7
2016-Jul-19 09:30N 31°30' E 121°23'21387.8
2016-Jul-19 09:30N 31°29' E 121°25'10932651.9
2016-Jul-19 09:29N 29°46' E 122°03'1607309.2
2016-Jul-19 09:28N 31°58' E 120°18'6432661.9
2016-Jul-19 09:28N 31°29' E 121°25'692128.6
2016-Jul-19 09:26N 31°57' E 120°10'70407.0
2016-Jul-19 09:16N 31°29' E 121°25'15153.2
2016-Jul-19 09:10N 31°15' E 121°31'449741.6
2016-Jul-19 08:33N 24°25' E 118°04'460276162.5
2016-Jul-19 08:33N 31°29' E 121°25'1175.3
2016-Jul-19 08:33N 31°28' E 121°26'1258.7
2016-Jul-19 08:33N 31°29' E 121°25'10333799.7
2016-Jul-19 08:33N 29°53' E 122°09'1048358.8
2016-Jul-19 08:32N 31°30' E 121°24'46187389.2
2016-Jul-19 08:32N 24°23' E 118°06'26323659.4
2016-Jul-19 08:31N 22°56' E 113°36'66074289.5
2016-Jul-19 08:30N 31°30' E 121°22'632238.7
2016-Jul-19 08:29N 31°56' E 120°15'651254.8
2016-Jul-19 08:26N 31°29' E 121°25'42329.8
2016-Jul-19 08:18N 31°59' E 120°49'5668315.1
2016-Jul-19 08:14N 22°34' E 120°17'550819.3
2016-Jul-19 07:33N 31°42' E 121°10'467168125.8
2016-Jul-19 07:33N 24°25' E 118°04'39350525.8
2016-Jul-19 07:33N 29°57' E 121°59'45239720.9
2016-Jul-19 07:32N 22°35' E 120°15'54041386.0
2016-Jul-19 07:31N 31°32' E 121°20'672543.3
2016-Jul-19 07:30N 31°56' E 120°07'6913869.1
2016-Jul-19 07:29N 31°30' E 121°22'194.9
2016-Jul-19 07:29N 31°30' E 121°24'272.5
2016-Jul-19 07:27N 31°29' E 121°25'0 5.4
2016-Jul-19 07:25N 31°29' E 121°25'0 4.7
2016-Jul-19 07:21N 31°29' E 121°25'0 0.3
2016-Jul-19 06:33N 31°29' E 121°25'119.5
2016-Jul-19 06:29N 31°30' E 121°23'2 9.5
2016-Jul-19 06:19N 31°29' E 121°25'460261.6
2016-Jul-19 04:33N 24°25' E 118°04'46135285.8
2016-Jul-19 04:33N 31°30' E 121°23'66135011.5
2016-Jul-19 04:32N 22°56' E 113°36'66219067.3
2016-Jul-19 04:29N 31°32' E 121°22'2070390.3
2016-Jul-19 04:29N 31°14' E 121°30'8111148.5
2016-Jul-19 04:29N 31°57' E 120°10'6922633.1
2016-Jul-19 04:29N 31°30' E 121°25'18385.0
2016-Jul-19 04:26N 31°21' E 121°44'1896.9
2016-Jul-19 04:15N 31°29' E 121°25'2149.0
2016-Jul-19 04:14N 31°30' E 121°22'460684.1
2016-Jul-19 03:34N 24°25' E 118°04'45328106.9
2016-Jul-19 03:33N 31°18' E 121°33'65829231.5
2016-Jul-19 03:31N 22°56' E 113°36'66588663.5
2016-Jul-19 03:31N 31°59' E 120°49'4129518.0
2016-Jul-19 03:31N 31°30' E 121°23'119.4
2016-Jul-19 03:26N 31°30' E 121°25'0 1.5
2016-Jul-19 03:18N 31°29' E 121°25'17536.6
2016-Jul-19 03:16N 31°13' E 121°30'14161.6
2016-Jul-19 03:10N 31°21' E 121°44'322677.3
2016-Jul-19 03:10N 31°39' E 121°13'46213866.3
2016-Jul-19 03:08N 24°28' E 118°04'45715675.1
2016-Jul-19 03:06N 31°29' E 121°25'171707.4
2016-Jul-19 03:05N 31°42' E 121°10'1731.7
2016-Jul-19 02:33N 31°30' E 121°25'15102.4
2016-Jul-19 02:33N 31°30' E 121°23'461118452.0
2016-Jul-19 02:33N 24°25' E 118°04'9726.5
2016-Jul-19 02:32N 24°17' E 118°08'466186488.4
2016-Jul-19 02:32N 31°29' E 121°25'431278.7
2016-Jul-19 02:30N 31°59' E 120°49'66514421.2
2016-Jul-19 02:27N 22°56' E 113°36'6616802.9
2016-Jul-19 02:21N 31°29' E 121°25'1417.9
2016-Jul-19 01:34N 31°39' E 121°13'4651675536.5
2016-Jul-19 01:33N 24°25' E 118°04'26155328.1
2016-Jul-19 01:33N 22°56' E 113°36'65964088.1
2016-Jul-19 01:33N 31°22' E 121°30'91395.4
2016-Jul-19 01:32N 31°29' E 121°25'0 5.9
2016-Jul-19 01:30N 31°29' E 121°25'034.3
2016-Jul-19 01:30N 31°29' E 121°25'115.7
2016-Jul-19 01:25N 31°28' E 121°25'1039.6
2016-Jul-19 01:09N 31°20' E 121°33'5014932.0
2016-Jul-19 01:03N 23°43' E 117°40'4793.8
2016-Jul-19 00:34N 24°25' E 118°04'512500.3
2016-Jul-19 00:32N 23°40' E 117°37'505363852.3
2016-Jul-19 00:32N 31°21' E 121°30'31568.1
2016-Jul-19 00:32N 31°24' E 121°32'66115061.9
2016-Jul-19 00:30N 22°56' E 113°36'36941493.3
2016-Jul-19 00:29N 22°35' E 120°15'56244950.9
2016-Jul-19 00:28N 31°57' E 120°10'6375822.0
2016-Jul-19 00:22N 23°05' E 113°34'655147447.7
2016-Jul-19 00:21N 31°29' E 121°25'0 5.4
2016-Jul-19 00:19N 31°29' E 121°25'  

Dump ship's entire track history